[[{"header":{"parameterUnit":"m.s-1","parameterCategory":1,"la1":31.0,"la2":29.5877,"lo1":-88.7671,"lo2":-86.6584,"dx":0.0162,"dy":0.0185,"nx":115,"ny":88,"refTime":"2023-01-20T18:00:00:Z","depth":0,"parameterNumber":2,"parameterNumberName":"U-component_of_WINDS"},"data":[0.0,0.0,0.0,0.0,0.0,0.0,0.0,0.0,0.0,0.0,0.0,0.0,0.0,0.0,0.0,0.0,0.0,0.0,0.0,0.0,0.0,0.0,0.0,0.0,0.0,0.0,0.0,0.0,0.0,0.0,0.0,0.0,0.0,0.0,0.0,0.0,0.0,0.0,0.0,0.0,0.0,0.0,0.0,0.0,0.0,0.0,0.0,0.0,0.0,0.0,0.0,0.0,0.0,0.0,0.0,0.0,0.0,0.0,0.0,0.0,0.0,0.0,0.0,0.0,0.0,0.0,0.0,0.0,0.0,0.0,0.0,0.0,0.0,0.0,0.0,0.0,0.0,0.0,0.0,0.0,0.0,0.0,0.0,0.0,0.0,0.0,0.0,0.0,0.0,0.0,0.0,0.0,0.0,0.0,0.0,0.0,0.0,0.0,0.0,0.0,0.0,0.0,0.0,0.0,0.0,0.0,0.0,0.0,0.0,0.0,0.0,0.0,0.0,0.0,0.0,0.0,0.0,0.0,0.0,0.0,0.0,0.0,0.0,0.0,0.0,0.0,0.0,0.0,0.0,0.0,0.0,0.0,0.0,0.0,0.0,0.0,0.0,0.0,0.0,0.0,0.0,0.0,0.0,0.0,0.0,0.0,0.0,0.0,0.0,0.0,0.0,0.0,0.0,0.0,0.0,0.0,0.0,0.0,0.0,0.0,0.0,0.0,0.0,0.0,0.0,0.0,0.0,0.0,0.0,0.0,0.0,0.0,0.0,0.0,0.0,0.0,0.0,0.0,0.0,0.0,0.0,0.0,0.0,0.0,0.0,0.0,0.0,0.0,0.0,0.0,0.0,0.0,0.0,0.0,0.0,0.0,0.0,0.0,0.0,0.0,0.0,0.0,0.0,0.0,0.0,0.0,0.0,0.0,0.0,0.0,0.0,0.0,0.0,0.0,0.0,0.0,0.0,0.0,0.0,0.0,0.0,0.0,0.0,0.0,0.0,0.0,0.0,0.0,0.0,0.0,0.0,0.0,0.0,0.0,0.0,0.0,0.0,0.0,0.0,0.0,0.0,0.0,0.0,0.0,0.0,0.0,0.0,0.0,0.0,0.0,0.0,0.0,0.0,0.0,0.0,0.0,0.0,0.0,0.0,0.0,0.0,0.0,0.0,0.0,0.0,0.0,0.0,0.0,0.0,0.0,0.0,0.0,0.0,0.0,0.0,0.0,0.0,0.0,0.0,0.0,0.0,0.0,0.0,0.0,0.0,0.0,0.0,0.0,0.0,0.0,0.0,0.0,0.0,0.0,0.0,0.0,0.0,0.0,0.0,0.0,0.0,0.0,0.0,0.0,0.0,0.0,0.0,0.0,0.0,0.0,0.0,0.0,0.0,0.0,0.0,0.0,0.0,0.0,0.0,0.0,0.0,0.0,0.0,0.0,0.0,0.0,0.0,0.0,0.0,0.0,0.0,0.0,0.0,0.0,0.0,0.0,0.0,0.0,0.0,0.0,0.0,0.0,0.0,0.0,0.0,0.0,0.0,0.0,0.0,0.0,0.0,0.0,0.0,0.0,0.0,0.0,0.0,0.0,0.0,0.0,0.0,0.0,0.0,0.0,0.0,0.0,0.0,0.0,0.0,0.0,0.0,0.0,0.0,0.0,0.0,0.0,0.0,0.0,0.0,0.0,0.0,0.0,0.0,0.0,0.0,0.0,0.0,0.0,0.0,0.0,0.0,0.0,0.0,0.0,0.0,0.0,0.0,0.0,0.0,0.0,0.0,0.0,0.0,0.0,0.0,0.0,0.0,0.0,0.0,0.0,0.0,0.0,0.0,0.0,0.0,0.0,0.0,0.0,0.0,0.0,0.0,0.0,0.0,0.0,0.0,0.0,0.0,0.0,0.0,0.0,0.0,0.0,0.0,0.0,0.0,0.0,0.0,0.0,0.0,0.0,0.0,0.0,0.0,0.0,0.0,0.0,0.0,0.0,0.0,0.0,0.0,0.0,0.0,0.0,0.0,0.0,0.0,0.0,0.0,0.0,0.0,0.0,0.0,0.0,0.0,0.0,0.0,0.0,0.0,0.0,0.0,0.0,0.0,0.0,0.0,0.0,0.0,0.0,0.0,0.0,0.0,0.0,0.0,0.0,0.0,0.0,0.0,0.0,0.0,0.0,0.0,0.0,0.0,0.0,0.0,0.0,0.0,0.0,0.0,0.0,0.0,0.0,0.0,0.0,0.0,0.0,0.0,0.0,0.0,0.0,0.0,0.0,0.0,0.0,0.0,0.0,0.0,0.0,0.0,0.0,0.0,0.0,0.0,0.0,0.0,0.0,0.0,0.0,0.0,0.0,0.0,0.0,0.0,0.0,0.0,0.0,0.0,0.0,0.0,0.0,0.0,0.0,0.0,0.0,0.0,0.0,0.0,0.0,0.0,0.0,0.0,0.0,0.0,0.0,0.0,0.0,0.0,0.0,0.0,0.0,0.0,0.0,0.0,0.0,0.0,0.0,0.0,0.0,0.0,0.0,0.0,0.0,0.0,0.0,0.0,0.0,0.0,0.0,0.0,0.0,0.0,0.0,0.0,0.0,0.0,0.0,0.0,0.0,0.0,0.0,0.0,0.0,0.0,0.0,0.0,0.0,0.0,0.0,0.0,0.0,0.0,0.0,0.0,0.0,0.0,0.0,0.0,0.0,0.0,0.0,0.0,0.0,0.0,0.0,0.0,0.0,0.0,0.0,0.0,0.0,0.0,0.0,0.0,0.0,0.0,0.0,0.0,0.0,0.0,0.0,0.0,0.0,0.0,0.0,0.0,0.0,0.0,0.0,0.0,0.0,0.0,0.0,0.0,0.0,0.0,0.0,0.0,0.0,0.0,0.0,0.0,0.0,0.0,0.0,0.0,0.0,0.0,0.0,0.0,0.0,0.0,0.0,0.0,0.0,0.0,0.0,0.0,0.0,0.0,0.0,0.0,0.0,0.0,0.0,0.0,0.0,0.0,0.0,0.0,0.0,0.0,0.0,0.0,0.0,0.0,0.0,0.0,0.0,0.0,0.0,0.0,0.0,0.0,0.0,0.0,0.0,0.0,0.0,0.0,0.0,0.0,0.0,0.0,0.0,0.0,0.0,0.0,0.0,0.0,0.0,0.0,0.0,0.0,0.0,0.0,0.0,0.0,0.0,0.0,0.0,0.0,0.0,0.0,0.0,0.0,0.0,0.0,0.0,0.0,0.0,0.0,0.0,0.0,0.0,0.0,0.0,0.0,0.0,0.0,0.0,0.0,0.0,0.0,0.0,0.0,0.0,0.0,0.0,0.0,0.0,0.0,0.0,0.0,0.0,0.0,0.0,0.0,0.0,0.0,0.0,0.0,0.0,0.0,0.0,0.0,0.0,0.0,0.0,0.0,0.0,0.0,0.0,0.0,0.0,0.0,0.0,0.0,0.0,0.0,0.0,0.0,0.0,0.0,0.0,0.0,0.0,0.0,0.0,0.0,0.0,0.0,0.0,0.0,0.0,0.0,0.0,0.0,0.0,0.0,0.0,0.0,0.0,0.0,0.0,0.0,0.0,0.0,0.0,0.0,0.0,0.0,0.0,0.0,0.0,0.0,0.0,0.0,0.0,0.0,0.0,0.0,0.0,0.0,0.0,0.0,0.0,0.0,0.0,0.0,0.0,0.0,0.0,0.0,0.0,0.0,0.0,0.0,0.0,0.0,0.0,0.0,0.0,0.0,0.0,0.0,0.0,0.0,0.0,0.0,0.0,0.0,0.0,0.0,0.0,0.0,0.0,0.0,0.0,0.0,0.0,0.0,0.0,0.0,0.0,0.0,0.0,0.0,0.0,0.0,0.0,0.0,0.0,0.0,0.0,0.0,0.0,0.0,0.0,0.0,0.0,0.0,0.0,0.0,0.0,0.0,0.0,0.0,0.0,0.0,0.0,0.0,0.0,0.0,0.0,0.0,0.0,0.0,0.0,0.0,0.0,0.0,0.0,0.0,0.0,0.0,0.0,0.0,0.0,0.0,0.0,0.0,0.0,0.0,0.0,0.0,0.0,0.0,0.0,0.0,0.0,0.0,0.0,0.0,0.0,0.0,0.0,0.0,0.0,0.0,0.0,0.0,0.0,0.0,0.0,0.0,0.0,0.0,0.0,0.0,0.0,0.0,0.0,0.0,0.0,0.0,0.0,0.0,0.0,0.0,0.0,0.0,0.0,0.0,0.0,0.0,0.0,0.0,0.0,0.0,0.0,0.0,0.0,0.0,0.0,0.0,0.0,4.257,0.0,0.0,0.0,0.0,0.0,0.0,0.0,0.0,0.0,0.0,0.0,0.0,0.0,0.0,0.0,0.0,0.0,0.0,0.0,0.0,0.0,0.0,0.0,0.0,0.0,0.0,0.0,0.0,0.0,0.0,0.0,0.0,0.0,0.0,0.0,0.0,0.0,0.0,0.0,0.0,0.0,0.0,0.0,0.0,0.0,0.0,0.0,0.0,0.0,0.0,0.0,0.0,0.0,0.0,0.0,0.0,0.0,0.0,0.0,0.0,0.0,0.0,0.0,0.0,0.0,0.0,0.0,0.0,0.0,0.0,0.0,0.0,0.0,0.0,0.0,0.0,0.0,0.0,0.0,0.0,0.0,0.0,0.0,0.0,0.0,0.0,0.0,0.0,0.0,0.0,0.0,0.0,0.0,0.0,0.0,0.0,0.0,0.0,0.0,0.0,0.0,0.0,0.0,0.0,0.0,0.0,0.0,0.0,0.0,0.0,4.3032,4.2995,4.2884,4.292,4.2957,0.0,0.0,0.0,0.0,0.0,0.0,0.0,0.0,0.0,0.0,0.0,0.0,0.0,0.0,0.0,0.0,0.0,0.0,0.0,0.0,0.0,0.0,0.0,0.0,0.0,0.0,0.0,0.0,0.0,0.0,0.0,0.0,0.0,0.0,0.0,0.0,0.0,0.0,0.0,0.0,0.0,0.0,0.0,0.0,0.0,0.0,0.0,0.0,0.0,0.0,0.0,0.0,0.0,0.0,0.0,0.0,0.0,0.0,0.0,0.0,0.0,0.0,0.0,0.0,0.0,0.0,0.0,0.0,0.0,0.0,0.0,0.0,0.0,0.0,0.0,0.0,0.0,0.0,0.0,0.0,0.0,0.0,0.0,0.0,0.0,0.0,0.0,0.0,0.0,0.0,0.0,0.0,0.0,0.0,0.0,0.0,0.0,0.0,0.0,0.0,0.0,0.0,0.0,0.0,0.0,0.0,0.0,0.0,0.0,0.0,0.0,0.0,4.3318,4.3318,4.3424,0.0,0.0,0.0,0.0,0.0,0.0,0.0,0.0,0.0,0.0,0.0,0.0,0.0,0.0,0.0,0.0,0.0,0.0,0.0,0.0,0.0,0.0,0.0,0.0,0.0,0.0,0.0,0.0,0.0,0.0,0.0,0.0,0.0,0.0,0.0,0.0,0.0,0.0,0.0,0.0,0.0,0.0,0.0,0.0,0.0,0.0,0.0,0.0,0.0,0.0,0.0,0.0,0.0,0.0,0.0,0.0,0.0,0.0,0.0,0.0,0.0,0.0,0.0,0.0,0.0,0.0,0.0,0.0,0.0,0.0,0.0,0.0,0.0,0.0,0.0,0.0,0.0,0.0,0.0,0.0,0.0,0.0,0.0,0.0,0.0,0.0,0.0,0.0,0.0,0.0,0.0,0.0,0.0,0.0,0.0,0.0,0.0,0.0,0.0,0.0,0.0,0.0,0.0,0.0,0.0,0.0,0.0,0.0,0.0,0.0,4.3849,4.3849,4.3849,0.0,4.3818,0.0,0.0,0.0,0.0,0.0,0.0,0.0,0.0,0.0,0.0,0.0,0.0,0.0,0.0,0.0,0.0,0.0,0.0,0.0,0.0,0.0,0.0,0.0,0.0,0.0,0.0,0.0,0.0,0.0,0.0,0.0,0.0,0.0,0.0,0.0,0.0,0.0,0.0,0.0,0.0,0.0,0.0,0.0,0.0,0.0,0.0,0.0,0.0,0.0,0.0,0.0,0.0,0.0,0.0,0.0,0.0,0.0,0.0,0.0,0.0,0.0,0.0,0.0,0.0,0.0,0.0,0.0,0.0,0.0,0.0,0.0,0.0,0.0,0.0,0.0,0.0,0.0,0.0,0.0,0.0,0.0,0.0,0.0,0.0,0.0,0.0,0.0,0.0,0.0,0.0,0.0,0.0,0.0,0.0,0.0,0.0,0.0,0.0,0.0,0.0,0.0,0.0,0.0,0.0,0.0,0.0,0.0,0.0,0.0,0.0,4.4184,4.4213,4.4213,4.4095,0.0,0.0,0.0,0.0,0.0,0.0,0.0,0.0,0.0,0.0,0.0,0.0,0.0,0.0,0.0,0.0,0.0,0.0,0.0,0.0,0.0,0.0,0.0,0.0,0.0,0.0,0.0,0.0,0.0,0.0,0.0,0.0,0.0,0.0,0.0,0.0,0.0,0.0,0.0,0.0,0.0,0.0,0.0,0.0,0.0,0.0,0.0,0.0,0.0,0.0,0.0,0.0,0.0,0.0,0.0,0.0,0.0,0.0,0.0,0.0,0.0,0.0,0.0,0.0,0.0,0.0,0.0,0.0,0.0,0.0,0.0,0.0,0.0,0.0,0.0,0.0,0.0,0.0,0.0,0.0,0.0,0.0,0.0,0.0,0.0,0.0,0.0,0.0,0.0,0.0,0.0,0.0,0.0,0.0,0.0,0.0,0.0,0.0,0.0,0.0,0.0,0.0,0.0,0.0,0.0,0.0,0.0,0.0,0.0,0.0,4.397,4.4417,4.4218,4.4444,4.4336,4.3885,0.0,0.0,0.0,0.0,0.0,0.0,0.0,0.0,0.0,0.0,0.0,0.0,0.0,0.0,0.0,0.0,0.0,0.0,0.0,0.0,0.0,0.0,0.0,0.0,0.0,0.0,0.0,0.0,0.0,0.0,0.0,0.0,0.0,0.0,0.0,0.0,0.0,0.0,0.0,0.0,0.0,0.0,0.0,0.0,0.0,0.0,0.0,0.0,0.0,0.0,0.0,0.0,0.0,0.0,0.0,0.0,0.0,0.0,0.0,0.0,0.0,0.0,0.0,0.0,0.0,0.0,0.0,0.0,0.0,0.0,0.0,0.0,0.0,0.0,0.0,0.0,0.0,0.0,0.0,0.0,0.0,0.0,0.0,0.0,0.0,0.0,0.0,0.0,0.0,0.0,0.0,0.0,0.0,0.0,0.0,0.0,0.0,0.0,0.0,0.0,0.0,0.0,0.0,0.0,0.0,0.0,0.0,0.0,4.3653,4.4435,4.4511,4.3791,4.4473,4.4511,0.0,0.0,0.0,0.0,0.0,0.0,0.0,0.0,0.0,0.0,0.0,0.0,0.0,0.0,0.0,0.0,0.0,0.0,0.0,0.0,0.0,0.0,0.0,0.0,0.0,0.0,0.0,0.0,0.0,0.0,0.0,0.0,0.0,0.0,0.0,0.0,0.0,0.0,0.0,0.0,0.0,0.0,0.0,0.0,0.0,0.0,0.0,0.0,0.0,0.0,0.0,0.0,0.0,0.0,0.0,0.0,0.0,0.0,0.0,0.0,0.0,0.0,0.0,0.0,0.0,0.0,0.0,0.0,0.0,0.0,0.0,0.0,0.0,0.0,0.0,0.0,0.0,0.0,0.0,0.0,0.0,0.0,0.0,0.0,0.0,0.0,0.0,0.0,0.0,0.0,0.0,0.0,0.0,0.0,0.0,0.0,0.0,0.0,0.0,0.0,0.0,0.0,0.0,0.0,0.0,0.0,0.0,0.0,0.0,4.2943,4.317,4.3436,4.3701,4.3966,4.4232,0.0,0.0,0.0,0.0,0.0,0.0,0.0,0.0,0.0,0.0,0.0,0.0,0.0,0.0,0.0,0.0,0.0,0.0,0.0,0.0,0.0,0.0,0.0,0.0,0.0,0.0,0.0,0.0,0.0,0.0,0.0,0.0,0.0,0.0,0.0,0.0,0.0,0.0,0.0,0.0,0.0,0.0,0.0,0.0,0.0,0.0,0.0,0.0,0.0,0.0,0.0,0.0,0.0,0.0,0.0,0.0,0.0,0.0,0.0,0.0,0.0,0.0,0.0,0.0,0.0,0.0,0.0,0.0,0.0,0.0,0.0,0.0,0.0,0.0,0.0,0.0,0.0,0.0,0.0,0.0,0.0,0.0,0.0,0.0,0.0,0.0,0.0,0.0,0.0,0.0,0.0,0.0,0.0,0.0,0.0,0.0,0.0,0.0,0.0,0.0,0.0,0.0,0.0,0.0,0.0,0.0,0.0,0.0,0.0,4.2867,0.0,4.3246,4.3284,4.3549,4.3701,0.0,0.0,0.0,0.0,0.0,0.0,0.0,0.0,0.0,0.0,0.0,0.0,0.0,0.0,0.0,0.0,0.0,0.0,0.0,0.0,0.0,0.0,0.0,0.0,0.0,0.0,0.0,0.0,0.0,0.0,0.0,0.0,0.0,0.0,0.0,0.0,0.0,0.0,0.0,0.0,0.0,0.0,0.0,0.0,0.0,0.0,0.0,0.0,0.0,0.0,0.0,0.0,0.0,0.0,0.0,0.0,0.0,0.0,0.0,0.0,0.0,0.0,0.0,0.0,0.0,0.0,0.0,0.0,0.0,0.0,0.0,0.0,0.0,0.0,0.0,0.0,0.0,0.0,0.0,0.0,0.0,0.0,0.0,0.0,0.0,0.0,0.0,0.0,0.0,0.0,0.0,0.0,0.0,0.0,0.0,0.0,0.0,0.0,0.0,0.0,0.0,0.0,0.0,0.0,0.0,0.0,0.0,0.0,4.2867,4.3663,4.4383,4.3966,4.2526,4.3246,4.2943,0.0,0.0,0.0,0.0,0.0,0.0,0.0,0.0,0.0,0.0,0.0,0.0,0.0,0.0,0.0,0.0,0.0,0.0,0.0,0.0,0.0,0.0,0.0,0.0,0.0,0.0,0.0,0.0,0.0,0.0,0.0,0.0,0.0,0.0,0.0,0.0,0.0,0.0,0.0,0.0,0.0,0.0,0.0,0.0,0.0,0.0,0.0,0.0,0.0,0.0,0.0,0.0,0.0,0.0,0.0,0.0,0.0,0.0,0.0,0.0,0.0,0.0,0.0,0.0,0.0,0.0,0.0,0.0,0.0,0.0,0.0,0.0,0.0,0.0,0.0,0.0,0.0,0.0,0.0,0.0,0.0,0.0,0.0,0.0,0.0,0.0,0.0,0.0,0.0,0.0,0.0,0.0,0.0,0.0,0.0,0.0,0.0,0.0,0.0,0.0,0.0,0.0,0.0,0.0,0.0,0.0,0.0,0.0,0.0,4.2829,4.3057,4.3208,4.3284,4.2981,4.3095,0.0,0.0,0.0,0.0,0.0,0.0,0.0,0.0,0.0,0.0,0.0,0.0,0.0,0.0,0.0,0.0,0.0,0.0,0.0,0.0,0.0,0.0,0.0,0.0,0.0,0.0,0.0,0.0,0.0,0.0,0.0,0.0,0.0,0.0,0.0,0.0,0.0,0.0,0.0,0.0,0.0,0.0,0.0,0.0,0.0,0.0,0.0,0.0,0.0,0.0,0.0,0.0,0.0,0.0,0.0,0.0,0.0,0.0,0.0,0.0,0.0,0.0,0.0,0.0,0.0,0.0,0.0,0.0,0.0,0.0,0.0,0.0,0.0,0.0,0.0,0.0,0.0,0.0,0.0,0.0,0.0,0.0,0.0,0.0,0.0,0.0,0.0,0.0,0.0,0.0,0.0,0.0,0.0,0.0,0.0,0.0,0.0,0.0,0.0,0.0,0.0,0.0,0.0,0.0,0.0,0.0,0.0,0.0,0.0,4.4308,4.3663,4.3587,4.4156,4.3019,4.2905,4.3891,0.0,0.0,0.0,0.0,0.0,0.0,0.0,0.0,0.0,0.0,0.0,0.0,0.0,0.0,0.0,0.0,0.0,0.0,0.0,0.0,0.0,0.0,0.0,0.0,0.0,0.0,0.0,0.0,0.0,0.0,0.0,0.0,0.0,0.0,0.0,0.0,0.0,0.0,0.0,0.0,0.0,0.0,0.0,0.0,0.0,0.0,0.0,0.0,0.0,0.0,0.0,0.0,0.0,0.0,0.0,0.0,0.0,0.0,0.0,0.0,0.0,0.0,0.0,0.0,0.0,0.0,0.0,0.0,0.0,0.0,0.0,0.0,0.0,0.0,0.0,0.0,0.0,0.0,0.0,0.0,0.0,0.0,0.0,0.0,0.0,0.0,0.0,0.0,0.0,0.0,0.0,0.0,0.0,0.0,0.0,0.0,0.0,0.0,0.0,0.0,0.0,0.0,0.0,0.0,0.0,0.0,0.0,0.0,4.7529,4.6051,4.5217,4.5141,4.3512,4.2602,0.0,0.0,0.0,0.0,0.0,0.0,0.0,0.0,0.0,0.0,0.0,0.0,0.0,0.0,0.0,0.0,0.0,0.0,0.0,0.0,0.0,0.0,0.0,0.0,0.0,0.0,0.0,0.0,0.0,0.0,0.0,0.0,0.0,0.0,0.0,0.0,0.0,0.0,0.0,0.0,0.0,0.0,0.0,0.0,0.0,0.0,0.0,0.0,0.0,0.0,0.0,0.0,0.0,0.0,0.0,0.0,0.0,0.0,0.0,0.0,0.0,0.0,0.0,0.0,0.0,0.0,0.0,0.0,0.0,0.0,0.0,0.0,0.0,0.0,0.0,0.0,0.0,0.0,0.0,0.0,0.0,0.0,0.0,0.0,0.0,0.0,0.0,0.0,0.0,0.0,0.0,0.0,0.0,0.0,0.0,0.0,0.0,0.0,0.0,0.0,0.0,0.0,0.0,0.0,0.0,0.0,0.0,0.0,0.0,4.9159,4.9424,4.8969,4.7719,4.6051,4.4876,0.0,0.0,0.0,0.0,0.0,0.0,0.0,0.0,0.0,0.0,0.0,0.0,0.0,0.0,0.0,0.0,0.0,0.0,0.0,0.0,0.0,0.0,0.0,0.0,0.0,0.0,0.0,0.0,0.0,0.0,0.0,0.0,0.0,0.0,0.0,0.0,0.0,0.0,0.0,0.0,0.0,0.0,0.0,0.0,0.0,0.0,0.0,0.0,0.0,0.0,0.0,0.0,0.0,0.0,0.0,0.0,0.0,0.0,0.0,0.0,0.0,0.0,0.0,0.0,0.0,0.0,0.0,0.0,0.0,0.0,0.0,0.0,0.0,0.0,0.0,0.0,0.0,0.0,0.0,0.0,0.0,0.0,0.0,0.0,0.0,0.0,0.0,0.0,0.0,0.0,0.0,0.0,0.0,0.0,0.0,0.0,0.0,0.0,0.0,0.0,0.0,0.0,0.0,0.0,0.0,0.0,0.0,0.0,4.9614,5.094,5.2494,5.2836,5.1888,4.9197,4.7036,0.0,0.0,0.0,0.0,0.0,0.0,0.0,0.0,0.0,0.0,0.0,0.0,0.0,0.0,0.0,0.0,0.0,0.0,0.0,0.0,0.0,0.0,0.0,0.0,0.0,0.0,0.0,0.0,0.0,0.0,0.0,0.0,0.0,0.0,0.0,0.0,0.0,0.0,0.0,0.0,0.0,0.0,0.0,0.0,0.0,0.0,0.0,0.0,0.0,0.0,0.0,0.0,0.0,0.0,0.0,0.0,0.0,0.0,0.0,0.0,0.0,0.0,0.0,0.0,0.0,0.0,0.0,0.0,0.0,0.0,0.0,0.0,0.0,0.0,0.0,0.0,0.0,0.0,0.0,0.0,0.0,0.0,0.0,0.0,0.0,0.0,0.0,0.0,0.0,0.0,0.0,0.0,0.0,0.0,0.0,0.0,0.0,0.0,0.0,0.0,0.0,0.0,0.0,0.0,0.0,0.0,0.0,0.0,5.1623,5.2419,5.5072,5.636,5.6095,5.2191,4.8894,0.0,0.0,0.0,0.0,0.0,0.0,0.0,0.0,0.0,0.0,0.0,0.0,0.0,0.0,0.0,0.0,0.0,0.0,0.0,0.0,0.0,0.0,0.0,0.0,0.0,0.0,0.0,0.0,0.0,0.0,0.0,0.0,0.0,0.0,0.0,0.0,0.0,0.0,0.0,0.0,0.0,0.0,0.0,0.0,0.0,0.0,0.0,0.0,0.0,0.0,0.0,0.0,0.0,0.0,0.0,0.0,0.0,0.0,0.0,0.0,0.0,0.0,0.0,0.0,0.0,0.0,0.0,0.0,0.0,0.0,0.0,0.0,0.0,0.0,0.0,0.0,0.0,0.0,0.0,0.0,0.0,0.0,0.0,0.0,0.0,0.0,0.0,0.0,0.0,0.0,0.0,0.0,0.0,0.0,0.0,0.0,0.0,0.0,0.0,0.0,0.0,0.0,0.0,0.0,0.0,0.0,0.0,0.0,5.1623,5.2456,5.6171,5.7535,5.6209,5.2798,5.0069,0.0,0.0,0.0,0.0,0.0,0.0,0.0,0.0,0.0,0.0,0.0,0.0,0.0,0.0,0.0,0.0,0.0,0.0,0.0,0.0,0.0,0.0,0.0,0.0,0.0,0.0,0.0,0.0,0.0,0.0,0.0,0.0,0.0,0.0,0.0,0.0,0.0,0.0,0.0,0.0,0.0,0.0,0.0,0.0,0.0,0.0,0.0,0.0,4.2445,0.0,0.0,0.0,0.0,0.0,0.0,0.0,0.0,0.0,0.0,0.0,0.0,0.0,0.0,0.0,0.0,0.0,0.0,0.0,0.0,0.0,0.0,0.0,0.0,0.0,0.0,0.0,0.0,0.0,0.0,0.0,0.0,0.0,0.0,0.0,0.0,0.0,0.0,0.0,0.0,0.0,0.0,0.0,0.0,0.0,0.0,0.0,0.0,0.0,0.0,0.0,0.0,0.0,0.0,0.0,0.0,0.0,0.0,0.0,5.2153,5.3101,5.7118,5.8672,5.7346,5.4153,5.1423,0.0,0.0,0.0,0.0,0.0,0.0,0.0,0.0,0.0,0.0,0.0,0.0,0.0,0.0,0.0,0.0,0.0,0.0,0.0,0.0,0.0,0.0,0.0,0.0,0.0,0.0,0.0,0.0,0.0,0.0,0.0,0.0,0.0,0.0,0.0,0.0,0.0,0.0,0.0,0.0,0.0,0.0,0.0,0.0,0.0,0.0,0.0,0.0,0.0,0.0,0.0,0.0,0.0,0.0,0.0,0.0,0.0,0.0,0.0,0.0,0.0,0.0,0.0,0.0,0.0,0.0,0.0,0.0,0.0,0.0,0.0,0.0,0.0,0.0,0.0,0.0,0.0,0.0,0.0,0.0,0.0,0.0,0.0,0.0,0.0,0.0,0.0,0.0,0.0,0.0,0.0,0.0,0.0,0.0,0.0,0.0,0.0,0.0,0.0,0.0,0.0,0.0,0.0,0.0,0.0,0.0,0.0,5.0713,5.2836,5.4162,5.7763,5.9393,5.8672,5.5511,5.2693,5.0334,0.0,0.0,0.0,0.0,0.0,0.0,0.0,0.0,0.0,0.0,0.0,0.0,0.0,0.0,0.0,0.0,0.0,0.0,0.0,0.0,0.0,0.0,0.0,0.0,0.0,0.0,0.0,0.0,0.0,0.0,0.0,0.0,0.0,0.0,0.0,0.0,0.0,0.0,4.0042,4.1515,0.0,0.0,0.0,0.0,0.0,0.0,0.0,0.0,4.2785,0.0,0.0,0.0,0.0,0.0,0.0,0.0,0.0,0.0,0.0,0.0,0.0,0.0,0.0,0.0,0.0,0.0,0.0,0.0,0.0,0.0,0.0,0.0,0.0,0.0,0.0,0.0,0.0,0.0,0.0,0.0,0.0,0.0,0.0,0.0,0.0,0.0,0.0,0.0,0.0,0.0,0.0,0.0,0.0,0.0,0.0,0.0,0.0,0.0,0.0,0.0,0.0,0.0,0.0,0.0,0.0,4.9424,5.0751,5.2836,5.5716,5.7801,5.8824,5.8597,5.5451,5.3177,5.1926,0.0,0.0,0.0,0.0,0.0,0.0,0.0,0.0,0.0,0.0,0.0,0.0,0.0,0.0,0.0,0.0,0.0,0.0,0.0,0.0,0.0,0.0,0.0,0.0,0.0,0.0,0.0,0.0,0.0,0.0,0.0,0.0,0.0,0.0,0.0,0.0,0.0,0.0,0.0,4.1995,4.2609,0.0,0.0,0.0,0.0,0.0,0.0,0.0,0.0,4.3977,0.0,0.0,0.0,0.0,0.0,0.0,0.0,0.0,0.0,0.0,0.0,0.0,0.0,0.0,0.0,0.0,0.0,0.0,0.0,0.0,0.0,0.0,0.0,0.0,0.0,0.0,0.0,0.0,0.0,0.0,0.0,0.0,0.0,0.0,0.0,0.0,0.0,0.0,0.0,0.0,0.0,0.0,0.0,0.0,0.0,0.0,0.0,0.0,0.0,0.0,0.0,0.0,0.0,0.0,0.0,5.0448,5.2267,5.4541,5.7422,5.9089,5.9544,5.8672,5.5481,5.313,0.0,0.0,0.0,0.0,0.0,0.0,0.0,0.0,0.0,0.0,0.0,0.0,0.0,0.0,0.0,0.0,0.0,0.0,0.0,0.0,0.0,0.0,0.0,0.0,0.0,0.0,0.0,0.0,0.0,0.0,0.0,0.0,0.0,0.0,0.0,0.0,0.0,0.0,0.0,0.0,4.2739,4.365,4.3906,0.0,0.0,0.0,0.0,0.0,0.0,4.4522,4.4776,0.0,0.0,0.0,0.0,0.0,0.0,0.0,0.0,0.0,0.0,0.0,0.0,0.0,0.0,0.0,0.0,0.0,0.0,0.0,0.0,0.0,0.0,0.0,0.0,0.0,0.0,0.0,0.0,0.0,0.0,0.0,0.0,0.0,0.0,0.0,0.0,0.0,0.0,0.0,0.0,0.0,0.0,0.0,0.0,0.0,0.0,0.0,0.0,0.0,0.0,0.0,0.0,0.0,0.0,0.0,5.1395,5.3404,5.5868,5.8824,5.988,5.9918,5.8932,5.5616,5.31,0.0,0.0,0.0,0.0,0.0,0.0,0.0,0.0,0.0,0.0,0.0,0.0,0.0,0.0,0.0,0.0,0.0,0.0,0.0,0.0,0.0,0.0,0.0,0.0,0.0,0.0,0.0,0.0,0.0,0.0,0.0,0.0,0.0,0.0,0.0,0.0,0.0,0.0,0.0,0.0,0.0,4.4711,4.4909,4.5031,0.0,0.0,0.0,0.0,4.5147,4.6247,0.0,0.0,0.0,0.0,0.0,0.0,0.0,0.0,0.0,0.0,0.0,0.0,0.0,0.0,0.0,0.0,0.0,0.0,0.0,0.0,0.0,0.0,0.0,0.0,0.0,0.0,0.0,0.0,0.0,0.0,0.0,0.0,0.0,0.0,0.0,0.0,0.0,0.0,0.0,0.0,0.0,0.0,0.0,0.0,0.0,0.0,0.0,0.0,0.0,0.0,0.0,0.0,0.0,0.0,0.0,0.0,5.2077,5.2532,5.4996,5.9393,5.8546,5.8532,5.9747,5.5969,5.3384,0.0,0.0,0.0,0.0,0.0,0.0,0.0,0.0,0.0,0.0,0.0,0.0,0.0,0.0,0.0,0.0,0.0,0.0,0.0,0.0,0.0,0.0,0.0,0.0,0.0,0.0,0.0,0.0,0.0,0.0,0.0,0.0,0.0,0.0,0.0,0.0,0.0,0.0,0.0,0.0,0.0,4.5407,4.4816,4.6128,4.6897,0.0,0.0,4.9524,4.8819,5.1245,0.0,0.0,0.0,0.0,0.0,0.0,0.0,0.0,0.0,0.0,0.0,0.0,0.0,0.0,0.0,0.0,0.0,0.0,0.0,0.0,0.0,0.0,0.0,0.0,0.0,0.0,0.0,0.0,0.0,0.0,0.0,0.0,0.0,0.0,0.0,0.0,0.0,0.0,0.0,0.0,0.0,0.0,0.0,0.0,0.0,0.0,0.0,0.0,0.0,0.0,0.0,0.0,0.0,0.0,0.0,4.8693,5.2351,5.3879,5.6603,6.0539,5.9581,5.9315,6.0,5.5679,5.3112,0.0,0.0,0.0,0.0,0.0,0.0,0.0,0.0,0.0,0.0,0.0,0.0,0.0,0.0,0.0,0.0,0.0,0.0,0.0,0.0,0.0,0.0,0.0,0.0,0.0,0.0,0.0,0.0,0.0,0.0,0.0,0.0,0.0,0.0,0.0,0.0,0.0,0.0,0.0,0.0,0.0,0.0,4.6657,4.7714,0.0,0.0,0.0,5.1298,5.1211,0.0,0.0,0.0,0.0,0.0,0.0,0.0,0.0,0.0,0.0,0.0,0.0,0.0,0.0,0.0,0.0,0.0,0.0,0.0,0.0,0.0,0.0,0.0,0.0,0.0,0.0,0.0,0.0,0.0,0.0,0.0,0.0,0.0,0.0,0.0,0.0,0.0,0.0,0.0,0.0,0.0,0.0,0.0,0.0,0.0,0.0,0.0,0.0,0.0,0.0,0.0,0.0,0.0,0.0,0.0,0.0,0.0,5.2455,5.5047,5.792,6.0989,6.0189,5.9731,5.9827,5.5614,0.0,0.0,0.0,0.0,0.0,0.0,0.0,0.0,0.0,0.0,0.0,0.0,0.0,0.0,0.0,0.0,0.0,0.0,0.0,0.0,0.0,0.0,0.0,0.0,0.0,0.0,0.0,4.4035,0.0,0.0,0.0,0.0,0.0,0.0,0.0,0.0,0.0,0.0,0.0,0.0,0.0,0.0,4.9061,4.8752,4.9883,5.0998,0.0,0.0,5.308,5.3447,5.4859,5.5197,0.0,0.0,0.0,0.0,0.0,0.0,0.0,0.0,0.0,0.0,0.0,0.0,0.0,0.0,0.0,0.0,0.0,0.0,0.0,0.0,0.0,0.0,0.0,0.0,0.0,0.0,0.0,0.0,0.0,0.0,0.0,0.0,0.0,0.0,0.0,0.0,0.0,0.0,0.0,0.0,0.0,0.0,0.0,0.0,0.0,0.0,0.0,0.0,0.0,0.0,0.0,0.0,0.0,0.0,0.0,5.2409,5.516,5.78,6.025,5.9133,5.8736,5.9278,5.6194,5.3879,0.0,0.0,0.0,0.0,0.0,0.0,0.0,0.0,0.0,0.0,0.0,0.0,0.0,0.0,0.0,0.0,0.0,0.0,0.0,0.0,0.0,0.0,0.0,0.0,0.0,0.0,0.0,0.0,0.0,0.0,0.0,0.0,0.0,0.0,0.0,0.0,0.0,0.0,0.0,0.0,0.0,5.0403,5.0498,5.2847,5.4549,0.0,0.0,5.5913,5.5958,5.8602,5.9057,5.4368,0.0,0.0,0.0,0.0,0.0,0.0,0.0,0.0,0.0,0.0,0.0,0.0,0.0,0.0,0.0,0.0,0.0,0.0,0.0,0.0,0.0,0.0,0.0,0.0,0.0,0.0,0.0,0.0,0.0,0.0,0.0,0.0,0.0,0.0,0.0,0.0,0.0,0.0,0.0,0.0,0.0,0.0,0.0,0.0,0.0,0.0,0.0,0.0,0.0,0.0,0.0,0.0,0.0,4.9954,5.1964,5.4715,5.7097,5.8984,5.8124,5.822,5.9531,5.6449,5.4713,0.0,0.0,0.0,0.0,0.0,0.0,0.0,0.0,0.0,0.0,0.0,0.0,0.0,0.0,0.0,0.0,0.0,0.0,0.0,0.0,0.0,0.0,0.0,0.0,0.0,0.0,0.0,0.0,4.5375,4.5639,4.5255,0.0,0.0,0.0,0.0,0.0,0.0,0.0,0.0,0.0,0.0,5.2081,5.2118,5.417,0.0,0.0,5.7194,5.7725,5.7725,5.8786,5.8597,5.5716,5.4597,0.0,0.0,0.0,0.0,0.0,0.0,0.0,0.0,0.0,0.0,0.0,0.0,0.0,0.0,0.0,0.0,0.0,0.0,0.0,0.0,0.0,0.0,0.0,0.0,0.0,0.0,0.0,0.0,0.0,0.0,0.0,0.0,0.0,0.0,0.0,0.0,0.0,0.0,0.0,0.0,0.0,0.0,0.0,0.0,0.0,0.0,0.0,0.0,0.0,0.0,0.0,0.0,5.044,5.2401,5.519,5.7517,5.9198,5.8529,5.8661,5.9658,5.7405,5.6019,0.0,0.0,0.0,0.0,0.0,0.0,0.0,0.0,0.0,0.0,0.0,0.0,0.0,0.0,0.0,0.0,0.0,0.0,0.0,0.0,0.0,0.0,0.0,0.0,0.0,0.0,0.0,0.0,4.5672,4.5975,4.5369,0.0,0.0,0.0,0.0,0.0,0.0,0.0,0.0,0.0,0.0,5.3596,5.3596,5.5259,5.6739,5.7308,5.7725,5.8028,5.8293,5.8293,5.7725,5.6057,0.0,0.0,0.0,0.0,0.0,0.0,0.0,0.0,0.0,0.0,0.0,0.0,0.0,0.0,0.0,0.0,0.0,0.0,0.0,0.0,0.0,0.0,0.0,0.0,0.0,0.0,0.0,0.0,0.0,0.0,0.0,0.0,0.0,0.0,0.0,0.0,0.0,0.0,0.0,0.0,0.0,0.0,0.0,0.0,0.0,0.0,0.0,0.0,0.0,0.0,0.0,0.0,0.0,5.1513,5.4005,5.6902,5.9304,6.0973,6.0511,6.0066,5.9996,5.9249,5.792,5.5879,0.0,0.0,0.0,0.0,0.0,0.0,0.0,0.0,0.0,0.0,0.0,0.0,0.0,0.0,0.0,0.0,0.0,0.0,0.0,0.0,0.0,0.0,0.0,0.0,0.0,0.0,4.5066,4.571,4.6203,0.0,0.0,0.0,0.0,0.0,0.0,0.0,0.0,0.0,0.0,5.2545,5.4852,5.4814,5.6285,5.7346,5.7422,5.6777,5.655,5.7346,5.7422,5.6853,0.0,0.0,0.0,0.0,0.0,0.0,0.0,0.0,0.0,0.0,0.0,0.0,0.0,0.0,0.0,0.0,0.0,0.0,0.0,0.0,0.0,0.0,0.0,0.0,0.0,0.0,0.0,0.0,4.6442,0.0,0.0,0.0,0.0,0.0,0.0,0.0,0.0,0.0,0.0,0.0,4.9057,4.9727,0.0,0.0,0.0,0.0,0.0,0.0,0.0,0.0,0.0,0.0,0.0,0.0,5.2088,5.3552,5.5941,5.8031,5.9627,5.8978,5.9104,6.0155,5.8861,5.7497,5.6121,0.0,0.0,0.0,0.0,0.0,0.0,0.0,0.0,0.0,0.0,0.0,0.0,0.0,0.0,0.0,0.0,0.0,0.0,0.0,0.0,0.0,0.0,0.0,0.0,0.0,4.6885,0.0,0.0,0.0,0.0,0.0,0.0,0.0,0.0,0.0,0.0,0.0,4.9627,5.0496,5.2626,5.4314,5.4844,5.6323,5.7611,0.0,0.0,0.0,0.0,0.0,0.0,0.0,0.0,0.0,0.0,0.0,0.0,0.0,0.0,5.4303,5.1302,5.0618,5.0456,5.0451,0.0,0.0,0.0,0.0,0.0,0.0,0.0,0.0,0.0,0.0,0.0,0.0,0.0,0.0,0.0,0.0,4.778,0.0,0.0,0.0,0.0,0.0,0.0,0.0,0.0,5.0425,5.1292,5.1528,5.2469,5.2846,0.0,5.2394,5.1401,0.0,0.0,0.0,0.0,0.0,0.0,0.0,0.0,5.3065,5.4243,5.6597,5.8646,6.0204,5.9503,5.9737,6.114,5.923,5.7839,5.7192,5.5954,5.5331,0.0,0.0,0.0,0.0,0.0,0.0,0.0,0.0,0.0,0.0,0.0,0.0,0.0,0.0,0.0,0.0,0.0,0.0,0.0,0.0,0.0,0.0,0.0,4.7946,0.0,0.0,0.0,0.0,0.0,0.0,0.0,0.0,0.0,4.9235,5.0069,5.1092,5.1964,5.3252,5.4314,5.4806,0.0,0.0,0.0,0.0,0.0,0.0,0.0,5.6853,5.6323,5.6797,5.7418,5.788,5.8287,5.8551,5.8782,0.0,0.0,5.3533,5.2864,5.2708,5.2629,5.2592,5.285,5.3621,5.3669,5.3822,0.0,0.0,0.0,0.0,0.0,0.0,0.0,0.0,4.9821,4.9766,0.0,4.9635,0.0,0.0,0.0,0.0,0.0,0.0,0.0,0.0,5.264,5.4359,5.5169,5.5996,5.6464,5.6425,5.5559,5.4645,5.3495,5.1803,0.0,0.0,0.0,0.0,0.0,0.0,5.4479,5.6149,5.8821,6.1101,6.2698,6.1997,6.1958,6.2659,6.0399,5.9074,5.8957,5.7247,5.6614,5.7391,5.4612,0.0,0.0,0.0,0.0,0.0,0.0,0.0,0.0,0.0,0.0,0.0,0.0,0.0,0.0,0.0,0.0,0.0,0.0,0.0,0.0,4.878,0.0,0.0,0.0,0.0,0.0,0.0,0.0,0.0,0.0,0.0,5.0334,5.1471,5.276,5.3556,0.0,0.0,0.0,0.0,5.6247,5.6398,5.6323,5.6626,5.7422,5.8218,5.871,5.871,0.0,0.0,5.976,5.9257,5.9171,5.9647,5.8623,5.7413,5.731,5.6664,5.6294,5.6215,5.606,5.6388,5.713,5.6999,5.6929,5.2099,0.0,0.0,0.0,0.0,4.9893,5.0741,5.1832,5.2427,5.2339,5.1706,5.0969,0.0,0.0,0.0,0.0,0.0,0.0,5.1793,5.191,5.3883,5.4944,5.5217,5.6074,5.6503,5.6464,5.6269,5.5939,5.5677,5.5686,5.4452,5.2087,0.0,0.0,0.0,0.0,5.5294,5.7055,5.9171,6.0828,6.1919,6.1724,6.1412,6.1062,6.0945,6.0555,5.9971,5.9397,5.9149,5.9205,5.7226,0.0,0.0,0.0,0.0,0.0,0.0,0.0,0.0,0.0,0.0,0.0,0.0,0.0,0.0,0.0,0.0,0.0,0.0,0.0,4.9462,5.0637,5.094,0.0,0.0,0.0,0.0,0.0,0.0,0.0,0.0,0.0,5.3518,5.3366,5.3404,0.0,0.0,5.4238,5.4806,5.6133,5.746,5.8672,0.0,0.0,0.0,5.9772,5.9544,5.9544,6.0719,6.1822,6.2356,6.2315,6.2239,6.2432,6.1599,6.0918,6.0732,5.8638,5.7187,5.7454,5.7978,5.8652,5.9438,6.0002,6.0378,5.7087,5.3931,5.1904,5.1242,5.1593,5.2099,5.319,5.4632,5.4866,5.4788,5.4515,5.3293,5.2446,5.1901,5.0942,0.0,0.0,0.0,5.3619,5.3697,5.5411,5.6191,5.623,5.7087,5.7477,5.7477,5.7126,5.7126,5.7477,5.7321,5.6475,5.4968,0.0,0.0,5.391,5.5268,5.6625,5.8037,5.9854,6.1218,6.2114,6.2114,6.1373,5.9854,6.0282,6.0321,5.9815,5.9776,6.0059,6.0577,5.8921,5.7402,0.0,0.0,0.0,0.0,0.0,0.0,0.0,0.0,0.0,0.0,0.0,4.8477,4.7946,0.0,0.0,0.0,5.0296,5.1016,5.1812,5.2532,0.0,0.0,0.0,0.0,0.0,0.0,0.0,5.3252,5.4503,5.5527,5.583,5.5489,5.5148,5.5185,5.4882,5.511,5.6247,0.0,5.8483,6.0151,6.0378,6.0643,6.1477,6.1212,6.0984,6.1326,6.2197,6.3145,6.3979,6.3865,6.3751,6.3903,6.3183,6.2466,6.2773,6.0742,5.9133,5.9588,5.9966,6.0642,6.1806,6.2482,6.2932,6.2075,6.0088,5.5411,5.3775,5.4281,5.4242,5.5567,5.7711,5.7009,5.7087,5.7672,5.6035,5.5256,5.5178,5.4437,0.0,0.0,5.4983,5.5372,5.545,5.7048,5.7788,5.7827,5.8607,5.8996,5.8957,5.8178,5.8217,5.888,5.7516,5.7165,5.7749,5.7126,5.6232,5.5291,5.6855,5.8139,5.9113,6.0906,6.2192,6.2971,6.2854,6.1607,5.9191,5.9191,5.9191,5.9113,5.9191,5.9932,6.1412,5.9904,5.8855,5.8661,0.0,0.0,0.0,0.0,0.0,0.0,0.0,0.0,0.0,0.0,0.0,0.0,0.0,0.0,0.0,5.2911,0.0,5.492,5.4352,0.0,0.0,0.0,5.4238,5.5034,5.5185,5.5489,5.6209,0.0,0.0,0.0,0.0,5.7573,5.7687,5.6891,5.6891,5.8559,5.8824,5.9468,6.1098,6.1363,6.1705,6.2538,6.2652,6.2766,6.3259,6.3676,6.3941,6.4434,6.4244,6.4092,6.4547,6.3562,6.2807,6.3495,6.2782,6.2257,6.222,6.2146,6.2444,6.3759,6.4322,6.4847,6.3789,6.2192,6.0984,5.9425,5.7749,5.7087,5.7516,5.8646,5.849,5.8529,5.8568,5.6931,5.584,5.5217,5.5645,5.584,5.5918,5.6736,5.7087,5.7165,5.8217,5.8685,5.8685,5.888,5.8996,5.8957,5.8802,5.8802,5.8996,5.9269,5.9152,5.8724,5.9152,5.8598,5.7099,5.7468,5.8451,5.9971,6.2309,6.3595,6.375,6.2581,6.1295,6.0049,6.0633,6.0672,6.0049,6.0633,6.1179,6.1568,6.1159,6.0321,5.8997,5.748,0.0,0.0,0.0,0.0,0.0,0.0,0.0,0.0,0.0,5.2229,5.1585,0.0,5.2684,0.0,5.4617,5.5678,5.5868,5.5716,0.0,0.0,5.5716,5.5906,5.6702,5.7384,5.7611,5.7156,5.7687,5.818,5.8369,5.8369,5.8862,5.9961,5.8407,5.7725,5.9355,6.0151,6.1098,6.2652,6.3486,6.4055,6.4168,6.432,6.4092,6.3676,6.413,6.4244,6.3183,6.3941,6.4471,6.4092,6.4098,6.4214,6.4329,6.4068,6.3841,6.3879,6.3763,6.3796,6.4247,6.5261,6.6087,6.6361,6.5153,6.4725,6.3517,6.1763,6.0555,6.0477,6.1218,6.0477,6.036,6.0633,5.8918,5.7711,5.6931,5.736,5.7555,5.7672,5.849,5.8646,5.8334,5.9191,5.9347,5.8996,5.8996,5.9425,6.0126,5.9386,5.9776,6.114,6.0243,5.9893,6.0126,6.0243,6.001,5.9464,5.9035,5.9698,6.1451,6.2854,6.3556,6.3517,6.227,6.0984,5.9815,6.0165,6.0049,5.9191,5.9581,6.0049,6.0438,6.0419,5.9991,5.9035,5.7962,5.6737,0.0,0.0,0.0,0.0,0.0,0.0,0.0,0.0,0.0,0.0,0.0,5.4389,0.0,5.5981,0.0,5.6739,5.6739,5.6891,5.727,5.7308,5.7649,5.8407,5.8938,5.9051,5.8559,5.8938,5.9241,5.9241,5.9241,5.9696,6.0909,5.9923,5.9658,6.1212,6.1932,6.269,6.3979,6.4585,6.4737,6.4434,6.432,6.4168,6.3751,6.4017,6.4092,6.3638,6.4244,6.4737,6.432,6.455,6.4817,6.4779,6.467,6.4558,6.4558,6.4783,6.489,6.4847,6.5899,6.6612,6.8855,6.8076,6.7219,6.6439,6.5621,6.4062,6.3672,6.3984,6.2542,6.2309,6.2815,6.1295,6.0204,5.9503,5.9503,5.9503,5.9581,6.0399,6.0321,5.9581,6.0399,6.0399,5.9659,5.9659,6.0438,6.1802,6.0399,6.1179,6.3945,6.1101,6.0438,6.1841,6.114,6.1179,6.1841,6.114,6.1607,6.3166,6.301,6.301,6.3205,6.2153,6.0867,5.9425,5.923,5.8802,5.8061,5.8022,5.8451,5.9269,5.9309,5.927,5.9308,5.8398,5.743,0.0,5.5603,0.0,0.0,0.0,0.0,0.0,0.0,0.0,0.0,5.5223,5.5602,5.6436,5.7156,5.7611,5.7687,5.7725,5.8028,5.8748,5.8824,5.9127,5.9772,5.9885,5.9885,5.9885,5.9885,5.9885,5.9847,5.9885,6.0189,6.0909,6.0984,6.1477,6.3183,6.3486,6.3827,6.4775,6.4926,6.4661,6.4092,6.3865,6.3827,6.3676,6.3638,6.3827,6.432,6.4585,6.4699,6.4699,6.4739,6.4853,6.4853,6.4743,6.4632,6.4633,6.501,6.5344,6.5339,6.6049,6.6762,6.9206,6.8972,6.8115,6.7647,6.7413,6.64,6.527,6.4101,6.375,6.3361,6.2893,6.2542,6.2309,6.2153,6.2153,6.2153,6.2192,6.301,6.2932,6.2192,6.301,6.3283,6.3127,6.3127,6.3322,6.3595,6.3283,6.3478,6.4101,6.3478,6.3322,6.3634,6.3478,6.3478,0.0,0.0,0.0,0.0,6.3595,6.3556,6.4803,6.2737,6.1451,6.1101,6.0399,0.0,5.9815,5.9815,6.0204,6.1023,6.1091,0.0,0.0,0.0,0.0,0.0,0.0,0.0,0.0,0.0,0.0,0.0,5.6996,5.6739,5.6891,5.6929,5.727,5.8142,5.8369,5.871,5.9355,5.943,5.9468,5.9658,5.9658,5.9734,5.9885,5.9885,5.9885,5.9885,5.9885,5.9885,5.9885,5.9885,6.0189,6.0947,6.1098,6.178,6.3372,6.3562,6.3903,6.4699,6.4813,6.485,6.4699,6.4547,6.4244,6.3827,6.36,6.3448,6.3145,6.3524,6.3865,6.3941,6.4325,6.4743,6.4743,6.4596,6.4482,6.4444,6.4516,6.455,6.4629,6.5752,6.68,7.0297,0.0,6.9479,6.905,0.0,6.7725,6.6829,6.5972,6.5114,6.4257,6.3517,6.3478,6.3478,6.3478,6.3517,6.3478,6.3517,6.3906,6.3867,6.3517,6.3906,6.4101,6.4101,6.4101,6.4335,6.4725,6.4296,6.453,6.5309,6.453,6.4296,6.4725,6.4764,6.4725,6.4764,6.5153,6.5387,6.5387,6.4569,6.4569,6.527,6.3711,6.2465,6.1607,0.0,0.0,0.0,0.0,0.0,0.0,0.0,0.0,0.0,0.0,0.0,5.9413,5.8969,5.8816,5.9124,5.889,5.8865,5.9128,5.8834,5.8445,5.8066,5.8407,5.8824,5.9241,5.9279,5.9468,5.9847,5.9885,5.9885,5.9885,5.9885,5.9885,5.9885,5.9885,5.9885,5.9885,5.9885,5.9885,5.9885,5.9885,6.0226,6.0947,6.1098,6.1553,6.2728,6.3031,6.3221,6.3638,6.4055,6.413,6.3789,6.4055,6.3979,6.3259,6.3031,6.3031,6.2993,6.3334,6.3713,6.413,6.4588,6.4779,6.4779,6.4745,6.4596,6.4558,6.4482,6.4443,6.4443,6.5342,6.6011,7.1622,7.0998,7.0726,7.018,6.944,6.8427,6.792,6.7686,0.0,0.0,0.0,6.4374,6.4413,6.4569,6.4413,6.4335,6.4335,6.4491,6.4452,6.4374,6.4647,6.4725,6.4569,6.4725,6.5075,6.5582,6.488,6.527,6.6595,6.5231,6.4919,6.5582,6.5777,6.5933,6.6127,6.6634,6.6595,6.5894,6.5543,6.5465,6.5582,6.4647,6.3517,6.2309,6.1841,6.1062,5.9971,5.962,5.9503,5.9698,5.962,5.9542,5.9464,5.9387,5.9355,5.9355,5.9359,5.9633,6.0268,6.0067,6.011,6.0541,6.017,5.9646,5.897,5.9506,5.9885,5.9885,5.9885,5.9885,5.9885,5.9885,5.9885,5.9885,5.9885,5.9885,5.9885,5.9885,5.9885,5.9885,5.9885,5.9885,5.9885,5.9885,6.0113,6.0681,6.0833,6.1098,6.1818,6.2235,6.2501,6.2614,6.3221,6.3372,6.2766,6.3145,6.3259,6.2614,6.2311,6.2538,6.3334,6.3486,6.3827,6.4699,6.4888,6.4926,6.4926,6.4853,6.4853,6.4743,6.4633,6.4558,6.448,6.489,6.511,7.283,7.2635,7.1193,7.0531,7.0297,6.8699,6.7569,6.6868,6.6634,6.6439,6.6283,6.5543,6.5621,6.6283,6.5543,6.5192,6.527,6.6011,6.5933,0.0,6.6751,6.7063,6.64,6.7102,6.7102,6.6556,6.6361,6.6439,6.6634,6.6439,6.64,6.6595,6.7257,6.7998,6.866,6.8115,6.7764,6.7608,6.6166,6.5777,6.6478,6.4958,6.4374,6.4764,6.2737,6.2231,6.3322,6.1997,6.1568,6.2309,6.2338,6.1987,6.1295,6.111,6.1139,6.1139,6.1083,6.1085,6.1188,6.0971,6.0668,6.0391,6.0293,6.0082,5.9766,5.9847,5.9885,5.9885,5.9918,5.9885,5.9885,5.9885,5.9885,5.9885,5.9885,5.9885,5.9885,5.9885,5.9885,5.9885,5.9885,5.9885,5.9885,5.9885,5.9923,6.0075,6.0189,6.0189,6.053,6.1515,6.2311,6.2501,6.3107,6.3221,6.2501,6.3069,6.3069,6.2538,6.1743,6.1818,6.3372,6.3069,6.3259,6.4661,6.4888,6.4926,6.4888,6.4779,6.4743,6.4707,6.4558,6.4405,6.4405,6.4514,6.466,7.3103,7.2947,7.1778,7.1232,7.1154,6.9907,6.866,6.7452,6.7413,6.7141,6.6712,6.6751,6.7024,6.7374,6.7491,6.753,6.753,6.792,6.792,6.7608,6.8349,6.8504,6.8193,6.8504,6.8465,6.8115,6.8115,6.8115,6.8115,6.8115,6.8115,6.8115,6.8504,6.8894,6.9245,6.8894,6.8699,6.8699,6.7452,6.6985,6.7374,6.7102,6.6673,6.6127,6.4919,6.4257,6.4101,6.3361,6.2922,6.2834,6.2883,6.2494,6.1627,6.1549,6.1549,6.1549,6.1495,6.146,6.146,6.1142,6.0925,6.0712,6.0545,6.043,6.0293,6.0265,6.0246,6.0099,6.0068,6.0007,5.9918,5.9885,5.9885,5.9885,5.9885,5.9885,5.9885,5.9885,5.9885,5.9885,5.9885,5.9885,5.9885,5.9885,5.9885,5.9885,5.9885,5.9885,5.9885,6.053,6.106,6.1098,6.1705,6.1818,6.1288,6.1705,6.2008,6.1705,6.0984,6.1401,6.3031,6.2955,6.3221,6.4509,6.4926,6.4926,6.4888,6.4779,6.4707,6.4633,6.4521,6.4405,6.4326,6.4324,6.4434,7.3531,7.3609,7.2518,7.1973,7.1739,7.092,6.9712,6.8349,6.8271,6.792,6.7413,6.7803,6.8115,6.8349,6.9011,6.9284,6.9323,6.9323,6.9284,6.9323,6.9518,6.9479,6.9323,6.9479,6.9479,6.9323,6.9323,6.9323,6.9323,6.9323,6.9401,6.9557,6.9596,6.9673,6.9868,6.9673,6.9596,6.9557,6.8933,6.8465,6.831,6.8777,6.8349,6.7102,6.6595,6.5855,6.4764,6.4491,6.4091,6.3447,6.3234,6.2767,6.1889,6.1666,6.1598,6.1559,6.1495,6.146,6.1447,6.1181,6.1002,6.1002,6.08,6.0704,6.0681,6.0727,6.0545,6.0265,6.0217,6.0129,5.995,5.9885,5.9885,5.9885,5.9885,5.9885,5.9885,5.9885,5.9885,5.9885,5.9885,5.9885,5.9885,5.9885,5.9885,5.9885,5.9885,5.9885,5.9885,5.9885,5.9885,6.0037,6.0568,6.0795,6.0113,6.0871,6.1326,6.1174,6.0833,6.1591,6.2955,6.3069,6.3296,6.4509,6.4699,6.4547,6.4585,6.4512,6.4403,6.433,6.437,6.4405,6.4324,6.4284,6.4284,7.4739,7.5168,7.3648,7.2518,7.1778,7.0959,7.0102,6.9245,6.9167,6.9128,6.9011,6.831,6.8504,6.9128,6.9284,6.9401,6.9362,6.9323,6.9362,6.944,7.0102,7.0063,6.9518,7.0141,7.0063,6.9479,6.944,6.9596,6.9596,6.9479,6.9751,7.0375,7.0492,7.0881,7.1388,7.0842,7.0492,7.0492,7.0414,6.9985,6.9167,6.8465,6.8037,6.7881,6.64,6.5855,6.64,6.5699,6.527,6.5114,6.4374,6.3595,6.2805,6.1946,6.1507,6.1528,6.1447,6.1381,6.1381,6.1148,6.1002,6.1002,6.0983,6.0962,6.0882,6.1022,6.0899,6.0376,6.0246,6.0129,5.995,5.9885,5.9885,5.9885,5.9885,5.9885,5.9885,5.9885,5.9885,5.9885,5.9885,5.9885,5.9885,5.9885,5.9885,5.9885,5.9885,5.9885,5.9885,5.9885,5.9885,5.9999,6.0568,6.0643,6.0226,6.125,6.1667,6.1326,6.1705,6.2501,6.3296,6.3676,6.3827,6.4509,6.4282,6.3903,6.3827,6.3679,6.3754,6.3911,6.418,6.452,6.4364,6.4284,6.4324,7.5363,7.5596,7.4388,7.3375,7.2557,7.2206,7.131,7.0102,7.0063,7.0336,7.0726,7.0414,7.018,7.0102,7.057,7.0765,7.0765,7.0765,7.0804,7.0804,7.1154,7.1115,7.0881,7.17,7.1856,7.1622,7.205,7.2284,7.2323,7.2284,7.2245,7.2089,7.2089,7.2245,7.2479,7.1739,7.1778,7.2791,7.1817,7.1388,7.1427,7.0687,7.0024,6.9518,6.8816,6.8349,6.8154,6.7374,6.6702,6.6146,6.486,6.372,6.288,6.2001,6.1484,6.1495,6.1447,6.1394,6.1419,6.1268,6.1236,6.1236,6.1225,6.1173,6.1098,6.1022,6.0773,6.0482,6.0376,6.0275,5.9982,5.9885,5.9885,5.9885,5.9885,5.9885,5.9885,5.9885,5.9885,5.9885,5.9885,5.9885,5.9885,5.9885,5.9885,5.9885,5.9885,5.9885,5.9885,5.9885,5.9885,5.9923,6.0189,6.0226,6.0037,6.0833,6.1553,6.1894,6.2159,6.2766,6.3941,6.3865,6.3903,6.4737,6.4017,6.3562,6.3638,6.3568,6.3568,6.3684,6.4065,6.4558,6.4403,6.4326,6.4326,7.583,7.5908,7.5129,7.4388,7.3765,7.3297,7.2401,7.131,7.1037,7.1388,7.2128,7.2167,7.1973,7.1739,7.2245,7.2518,7.2518,7.2518,7.2518,7.2518,7.2518,7.2518,7.2596,7.3142,7.3336,7.3258,7.3921,7.435,7.4388,7.4388,7.4077,7.3531,7.3453,7.3453,7.3375,7.2791,7.3103,7.4116,7.2908,7.2557,7.3142,7.2362,7.1427,7.0648,7.0375,6.9946,6.9323,6.8465,6.7715,6.7069,6.5395,6.4176,6.3531,6.2713,6.2106,6.1822,6.1564,6.1421,6.1419,6.1419,6.1366,6.1391,6.1345,6.1297,6.1208,6.0982,6.0727,6.0533,6.0456,6.0237,5.9982,5.9885,5.9885,5.9885,5.9885,5.9885,5.9885,5.9885,5.9885,5.9885,5.9885,5.9885,5.9885,5.9885,5.9885,5.9885,5.9885,5.9885,5.9885,5.9885,5.9885,5.9885,5.9885,5.9923,5.9961,6.0909,6.1667,6.2273,6.269,6.3638,6.4623,6.4092,6.3638,6.4168,6.3524,6.2955,6.2614,6.2697,6.323,6.3535,6.4067,6.4521,6.4405,6.4366,6.4326,7.6181,7.6765,7.5986,7.5558,7.5441,7.3882,7.3103,7.283,7.2128,7.2245,7.3064,7.3103,7.3492,7.4194,7.4272,7.4272,7.4233,7.4155,7.4116,7.4116,7.4155,7.4233,7.4272,7.4311,7.3921,7.3453,7.4233,7.4583,7.4544,7.4466,7.4388,7.435,7.435,7.435,7.4311,7.4194,7.4311,7.4427,7.357,7.3453,7.4038,7.2713,7.1544,7.0765,6.9868,6.9518,6.9284,6.8504,6.7998,6.7959,6.6273,6.5299,6.5182,6.4382,6.348,6.2731,6.1901,6.146,6.1458,6.1536,6.1444,6.1361,6.1446,6.132,6.1346,6.1134,6.0935,6.0585,6.0551,6.0319,6.0102,5.9999,5.9923,5.9885,5.9885,5.9885,5.9885,5.9885,5.9885,5.9885,5.9885,5.9885,5.9885,5.9885,5.9885,5.9885,5.9885,5.9923,5.9999,5.9961,5.9999,6.0075,6.0075,5.9923,6.0075,6.0909,6.1932,6.2576,6.3334,6.4585,6.4471,6.4282,6.3941,6.341,6.2576,6.1894,6.1401,6.1595,6.2318,6.2967,6.4029,6.4445,6.4405,6.4326,6.4324,7.6688,7.696,7.6649,7.622,7.5635,7.5012,7.4466,7.3921,7.3609,7.396,7.4661,7.4778,7.5246,7.6064,7.6064,7.5441,7.4466,7.4388,7.4388,7.4388,7.4388,7.4388,7.4466,7.4934,7.509,7.4934,7.5635,7.6064,7.6064,7.6064,7.5791,7.5285,7.5207,7.5246,7.5129,7.4661,7.4895,7.5791,7.4661,7.435,7.5051,7.4077,7.3064,7.2206,7.1349,7.0881,7.0881,7.0102,6.9401,6.8855,6.7169,6.594,6.5333,6.4507,6.3923,6.3585,6.3235,6.2832,6.2391,6.2779,6.2546,6.1546,6.2338,6.2616,6.2198,6.2133,6.2196,6.2027,6.1751,6.1576,6.1321,6.0568,5.9885,5.9885,5.9923,5.9961,5.9885,5.9885,5.9885,5.9885,5.9885,5.9885,5.9999,5.9923,5.9885,5.9885,5.9923,6.0151,6.053,6.0643,6.0833,6.1326,6.1477,6.1477,6.1515,6.1363,6.1743,6.2463,6.3296,6.4168,6.4434,6.4092,6.3751,6.3562,6.2463,6.1743,6.1591,6.1826,6.2359,6.3081,6.4067,6.4445,6.4405,6.4439,6.4399,7.6999,7.6999,7.6999,7.6688,7.6103,7.583,7.5363,7.4817,7.4505,7.4895,7.5596,7.5713,7.6181,7.6882,7.6999,7.6415,7.5324,7.5246,7.5246,7.5246,7.5246,7.5246,7.5324,7.5869,7.5986,7.5791,7.6298,7.6727,7.696,7.6999,7.6688,7.6142,7.6142,7.6142,7.6025,7.5519,7.5908,7.6532,7.5558,7.5246,7.5869,7.47,7.3882,7.3414,7.2401,7.1817,7.1778,7.1037,7.0336,6.9634,6.8299,6.7097,6.6166,6.535,6.4726,6.4478,6.4114,6.3765,6.3284,6.3673,6.3464,6.2346,6.3114,6.3507,6.2933,6.2968,6.2989,6.2929,6.2642,6.2425,6.2197,6.1363,6.0719,6.0681,6.0719,6.0719,6.0719,6.0719,6.0757,6.0795,6.0833,6.0757,6.0681,6.0719,6.0757,6.0681,6.0719,6.0984,6.1363,6.1553,6.1667,6.2273,6.2311,6.2273,6.2197,6.197,6.2273,6.2955,6.3486,6.4168,6.4396,6.3979,6.3638,6.3486,6.2993,6.2239,6.205,6.2246,6.274,6.3347,6.3917,6.4406,6.4518,6.4704,6.4627,7.7038,7.6999,7.6999,7.696,7.6804,7.6142,7.5752,7.5596,7.4895,7.5129,7.583,7.5791,7.6298,7.6882,7.6999,7.6921,7.6765,7.6727,7.6727,7.6727,7.6882,7.6843,7.6765,7.6804,7.6493,7.5869,7.5791,7.622,7.696,7.6999,7.696,7.696,7.6882,7.6843,7.696,7.6804,7.6882,7.6804,7.6103,7.6142,7.6571,7.4739,7.3843,7.4077,7.283,7.2011,7.1895,7.1115,7.0648,7.0453,6.9712,6.8844,6.7759,6.6891,6.6205,6.5323,6.4545,6.4129,6.4037,6.4139,6.4186,6.3673,6.3834,6.3976,6.3729,6.3445,6.3269,6.3291,6.294,6.2614,6.2728,6.2614,6.2425,6.2349,6.2122,6.2122,6.2197,6.2349,6.2387,6.2235,6.2159,6.2349,6.2349,6.2122,6.2046,6.2084,6.2084,6.2159,6.2349,6.2387,6.2425,6.2652,6.3069,6.341,6.2955,6.2538,6.3069,6.36,6.4055,6.4547,6.4509,6.4206,6.3751,6.3486,6.2955,6.2239,6.258,6.2776,6.2969,6.3501,6.3992,6.4405,6.4479,6.459,6.4775,7.7545,7.7038,7.6999,7.6999,7.696,7.6688,7.661,7.6571,7.6298,7.6337,7.6571,7.661,7.6727,7.6921,7.6999,7.6999,7.6999,7.6999,7.6999,7.7116,7.7584,7.7506,7.7077,7.6999,7.6882,7.6649,7.661,7.6727,7.696,7.6999,7.6999,7.6999,7.6999,7.6999,7.6999,7.6999,7.6999,7.696,7.6727,7.6765,7.696,7.622,7.5363,7.4427,7.3843,7.3336,7.2713,7.1895,7.1193,7.0687,7.0336,6.9507,6.811,6.71,6.6517,6.6217,6.5917,6.5436,6.4993,6.5343,6.5211,6.4481,6.4937,6.5174,6.4792,6.4763,6.4753,6.4737,6.4426,6.4282,6.4813,6.4964,6.4244,6.2614,6.2425,6.2614,6.2728,6.2576,6.2425,6.2425,6.2425,6.2425,6.2463,6.2538,6.269,6.2614,6.2576,6.2728,6.3145,6.3334,6.3827,6.4661,6.4813,6.4888,6.4888,6.4813,6.5078,6.5002,6.504,6.5192,6.504,6.4813,6.4282,6.3865,6.3259,6.3035,6.3265,6.3495,6.3839,6.3804,6.4256,6.4405,6.4364,6.47,6.5266,7.7506,7.6999,7.6999,7.6999,7.6999,7.6999,7.6999,7.6999,7.6999,7.6999,7.6999,7.6999,7.6999,7.6999,7.6999,7.6999,7.7038,7.7311,7.7311,7.7077,7.7506,7.7506,7.7038,7.6999,7.6999,7.6999,7.6999,7.6999,7.6999,7.6999,7.6999,7.6999,7.6999,7.6999,7.6999,7.6999,7.6999,7.6999,7.6999,7.6999,7.6921,7.6688,7.5986,7.5012,7.4583,7.4155,7.3531,7.2713,7.205,7.1583,7.126,7.0185,6.8501,6.7839,6.7267,6.6733,6.6796,6.6703,6.6314,6.6975,6.7076,6.6244,6.6523,6.6627,6.6167,6.6183,6.6154,6.603,6.6008,6.6094,6.6478,6.6556,6.5798,6.4509,6.4396,6.4282,6.4282,6.4282,6.432,6.4471,6.4396,6.4244,6.4244,6.4282,6.4092,6.3903,6.3789,6.3865,6.4396,6.4547,6.5419,6.6139,6.6329,6.6594,6.7087,6.7162,6.72,6.667,6.6139,6.6139,6.6063,6.595,6.5609,6.5609,6.5192,6.5194,6.5385,6.5235,6.5351,6.5125,6.4935,6.5387,6.5837,6.6099,6.6475,7.7077,7.6999,7.6999,7.6999,7.6999,7.6999,7.6999,7.6999,7.6999,7.6999,7.6999,7.6999,7.6999,7.6999,7.6999,7.6999,7.7116,7.7662,7.7623,7.7155,7.7116,7.7038,7.6999,7.6999,7.6999,7.6999,7.6999,7.6999,7.6999,7.6999,7.6999,7.6999,7.6999,7.6999,7.6999,7.6999,7.6999,7.6999,7.6999,7.6999,7.696,7.6298,7.5791,7.5596,7.4934,7.4544,7.4388,7.3765,7.3219,7.2908,7.195,7.0784,6.9525,6.9148,6.8239,6.7044,6.7495,6.779,6.8024,6.8373,6.8668,6.8302,6.7881,6.767,6.7405,6.7265,6.7191,6.7022,6.7271,6.7516,6.7425,6.7466,6.7352,6.7504,6.6973,6.6897,6.7238,6.7125,6.6783,6.6935,6.7314,6.7276,6.6897,6.6935,6.6632,6.6215,6.5912,6.5912,6.5988,6.6063,6.6556,6.7011,6.7428,6.7807,6.8148,6.83,6.83,6.8148,6.7504,6.7238,6.6973,6.6783,6.6708,6.6783,6.6935,6.7051,6.6975,6.6597,6.6484,6.6371,6.6521,6.7012,6.7086,6.7085,6.7311,7.7584,7.6999,7.6999,7.6999,7.6999,7.6999,7.6999,7.6999,7.6999,7.6999,7.6999,7.6999,7.6999,7.6999,7.6999,7.6999,7.7077,7.7272,7.7272,7.7038,7.6999,7.6999,7.6999,7.6999,7.6999,7.6999,7.6999,7.6999,7.6999,7.6999,7.6999,7.6999,7.6999,7.6999,7.6999,7.6999,7.6999,7.6999,7.6999,7.6999,7.696,7.6804,7.6337,7.5713,7.548,7.5402,7.5363,7.5168,7.3999,7.2245,7.1349,7.0793,7.0212,6.963,6.9006,6.8603,6.8598,6.8762,6.8801,6.9034,6.8823,6.8241,6.8558,6.8386,6.7748,6.8044,6.8034,6.7895,6.7867,6.7997,6.822,6.8337,6.8564,6.8944,6.8224,6.7542,6.7504,6.739,6.739,6.739,6.7466,6.7504,6.7542,6.7504,6.739,6.7162,6.7049,6.7049,6.7049,6.7087,6.7352,6.7921,6.8375,6.8716,6.9058,6.9209,6.9323,6.9399,6.8982,6.8451,6.7958,6.739,6.7276,6.7276,6.7579,6.7732,6.7505,6.7164,6.7278,6.7581,6.7467,6.7581,6.7276,6.72,6.7652,7.7467,7.6999,7.6999,7.6999,7.6999,7.6999,7.6999,7.6999,7.6999,7.6999,7.6999,7.6999,7.6999,7.6999,7.6999,7.6999,7.7038,7.7389,7.7545,7.7545,7.7584,7.7389,7.7194,7.7311,7.735,7.6999,7.6999,7.6999,7.6999,7.6999,7.6999,7.6999,7.6999,7.6999,7.6999,7.6999,7.6999,7.6999,7.6999,7.6999,7.6999,7.6999,7.6765,7.6415,7.6532,7.6804,7.6727,7.6103,7.4622,7.2857,7.2223,7.1872,7.1081,7.0603,7.0095,6.9784,6.9648,6.9616,6.9694,6.9927,6.9927,6.95,6.9639,6.9273,6.8985,6.9149,6.922,6.8935,6.9025,6.9289,6.9393,6.9417,6.9507,6.9626,6.902,6.8451,6.8451,6.8527,6.8451,6.8451,6.8451,6.8451,6.8413,6.8413,6.8224,6.7996,6.7883,6.7883,6.7883,6.7921,6.811,6.8679,6.9058,6.9323,6.9437,6.955,6.9626,6.974,6.9702,6.9285,6.8906,6.8186,6.8337,6.8375,6.8413,6.8375,6.8262,6.8262,6.8565,6.8679,6.8376,6.8224,6.8148,6.7844,6.826,7.6999,7.6999,7.6999,7.6999,7.6999,7.6999,7.6999,7.6999,7.6999,7.6999,7.6999,7.6999,7.6999,7.6999,7.6999,7.6999,7.7038,7.7818,7.8168,7.8246,7.8246,7.8012,7.7116,7.7584,7.7506,7.7077,7.6999,7.6999,7.6999,7.6999,7.6999,7.6999,7.6999,7.6999,7.6999,7.6999,7.6999,7.7038,7.7233,7.7272,7.7311,7.7311,7.7233,7.7233,7.7428,7.7701,7.7467,7.6649,7.5078,7.3457,7.408,7.3406,7.216,7.2001,7.1559,7.1,7.0891,7.086,7.0665,7.1287,7.1675,7.1326,7.0782,7.051,7.0377,7.0365,7.0273,7.001,7.0706,7.0645,7.0489,7.0355,7.0099,6.9928,6.9778,6.9854,6.9891,6.9891,6.9891,6.9891,6.9854,6.9891,6.9891,6.9816,6.9588,6.883,6.8754,6.8754,6.8754,6.8792,6.902,6.9475,6.9702,6.9778,6.9816,6.9854,6.9816,6.9854,6.9854,6.9664,6.9664,6.9361,6.9588,6.9626,6.9247,6.9209,6.9399,6.955,6.9626,6.9588,6.9171,6.9437,6.9702,6.917,6.9207,7.6999,7.6999,7.6999,7.6999,7.6999,7.6999,7.6999,7.6999,7.6999,7.6999,7.6999,7.6999,7.6999,7.6999,7.6999,7.6999,7.7116,7.7857,7.8324,7.8402,7.8987,7.8324,7.735,7.7311,7.7194,7.6999,7.6999,7.6999,7.6999,7.6999,7.6999,7.6999,7.6999,7.6999,7.7038,7.7116,7.6999,7.7116,7.7662,7.8012,7.8012,7.7973,7.7935,7.7935,7.7545,7.735,7.7272,7.6921,7.622,7.5312,7.4689,7.4326,7.3821,7.3703,7.3246,7.2749,7.2912,7.2685,7.1908,7.2569,7.2996,7.1947,7.2103,7.2064,7.1365,7.1403,7.1221,7.1007,7.1076,7.1144,7.0661,7.0407,7.0251,7.008,6.9967,6.9967,6.9929,6.9929,6.9967,6.9929,6.9929,6.9891,6.9891,6.9891,6.974,6.9588,6.9588,6.9588,6.955,6.9512,6.9664,6.9891,6.9891,6.9891,6.9891,6.9891,6.9891,6.9891,6.9891,6.9891,6.9891,6.9891,6.9891,6.9891,6.9816,6.9891,6.9891,6.9891,6.974,6.9854,6.9891,6.9853,6.9815,6.9815,6.9776,7.6999,7.6999,7.6999,7.6999,7.6999,7.6999,7.6999,7.6999,7.6999,7.6999,7.6999,7.6999,7.6999,7.6999,7.6999,7.6999,7.7194,7.7896,7.8519,7.8753,7.8987,7.8402,7.774,7.7194,7.6999,7.6999,7.6999,7.6999,7.6999,7.6999,7.6999,7.6999,7.7038,7.7311,7.7545,7.7623,7.7896,7.8246,7.8597,7.887,7.887,7.848,7.8324,7.8129,7.7584,7.7428,7.8714,7.7545,7.7545,7.7467,7.6532,7.539,7.5041,7.4923,7.4622,7.4382,7.4039,7.3929,7.3346,7.354,7.3773,7.2918,7.3268,7.319,7.2918,7.2841,7.2768,7.2638,7.254,7.2236,7.1257,7.0981,7.0785,7.0535,7.046,7.0612,7.0877,7.0725,7.046,7.046,7.0498,7.0498,7.0422,7.0195,6.9891,6.9778,6.974,6.974,6.9778,6.9702,6.974,6.9891,6.9891,6.9891,6.9891,6.9891,6.9891,6.9891,6.9891,6.9891,6.9891,6.9891,6.9891,6.9891,6.9891,6.9853,6.9853,6.9853,6.9815,6.9737,6.9737,6.9737,6.9737,6.9697,6.9657,7.6999,7.6999,7.6999,7.6999,7.6999,7.6999,7.6999,7.6999,7.6999,7.6999,7.6999,7.6999,7.6999,7.6999,7.6999,7.7038,7.735,7.7662,7.8324,7.9259,7.8675,7.8363,7.8012,7.7623,7.7194,7.7038,7.6999,7.6999,7.7038,7.7155,7.735,7.7272,7.7428,7.7896,7.8363,7.8519,7.8714,7.922,7.9532,7.9688,7.9649,7.9142,7.887,7.8441,7.809,7.8402,7.9376,7.8753,7.8363,8.0273,7.8519,7.717,7.6404,7.6027,7.5712,7.5588,7.5167,7.4761,7.42,7.4395,7.4667,7.4472,7.4395,7.4395,7.4317,7.4084,7.3911,7.395,7.3837,7.3431,7.2365,7.2042,7.1727,7.1408,7.1294,7.1635,7.2052,7.1787,7.1597,7.1294,7.1294,7.1256,7.0915,7.0574,7.0233,6.9929,6.9929,6.9891,6.9929,6.9929,6.9929,6.9891,6.9891,6.9891,6.9891,6.9891,6.9891,6.9891,6.9891,6.9891,6.9891,6.9853,6.9853,6.9853,6.9853,6.9815,6.9776,6.9737,6.9697,6.9617,6.9617,6.9657,6.9657,6.9577,6.9652,7.6999,7.6999,7.6999,7.6999,7.6999,7.6999,7.6999,7.6999,7.6999,7.6999,7.6999,7.6999,7.6999,7.6999,7.6999,7.7389,7.7779,7.7818,7.8207,7.9181,7.8753,7.8402,7.8363,7.8207,7.774,7.7155,7.7116,7.7233,7.7272,7.7662,7.8051,7.8207,7.8636,7.9104,7.922,7.9337,7.9415,7.9883,8.0312,8.0584,8.0506,8.0273,7.9766,7.9298,7.887,7.9259,7.9571,7.9415,7.9337,7.9649,7.9298,7.9001,7.8598,7.8079,7.7142,7.6342,7.6621,7.6294,7.5055,7.5521,7.5716,7.5482,7.5288,7.5288,7.5133,7.4706,7.4589,7.4395,7.4321,7.3956,7.3212,7.2976,7.2734,7.2356,7.2166,7.2279,7.2545,7.281,7.281,7.2431,7.2241,7.1976,7.1635,7.1104,7.0574,7.0308,7.0195,7.0157,7.0157,7.0081,7.0043,6.9967,6.9891,6.9891,6.9891,6.9891,6.9891,6.9891,6.9891,6.9891,6.9815,6.9777,6.9738,6.9737,6.9737,6.9697,6.9657,6.9617,6.9577,6.9536,6.9536,6.9614,6.9611,6.9566,6.9943,7.6999,7.6999,7.6999,7.6999,7.6999,7.6999,7.6999,7.6999,7.6999,7.6999,7.6999,7.6999,7.6999,7.6999,7.6999,7.7506,7.7973,7.7935,7.8402,7.922,7.9104,7.8909,7.8909,7.8909,7.8714,7.8402,7.8324,7.8012,7.7818,7.8519,7.887,7.8987,7.9337,7.9688,8.0078,8.0195,8.0428,8.0779,8.1208,8.1442,8.1364,8.1091,8.0389,7.9766,7.961,7.9727,8.0078,7.9649,8.0,8.0506,8.0,7.9832,7.9897,7.9689,7.8922,7.7914,7.7921,7.771,7.6316,7.6687,7.6415,7.6221,7.6104,7.6104,7.6026,7.5793,7.5444,7.5426,7.5275,7.4934,7.4071,7.3859,7.3476,7.3156,7.3037,7.3227,7.3606,7.4023,7.3871,7.353,7.3227,7.2886,7.2507,7.19,7.1066,7.0687,7.0536,7.0498,7.0498,7.0536,7.0536,7.046,7.0422,7.027,7.0233,7.0119,7.0119,7.0043,6.9967,6.9967,6.9853,6.9775,6.9657,6.9539,6.9577,6.9577,6.9577,6.9495,6.9453,6.9411,6.9449,6.9524,6.952,6.967,7.0197,7.6999,7.6999,7.6999,7.6999,7.6999,7.6999,7.6999,7.6999,7.6999,7.6999,7.6999,7.6999,7.6999,7.6999,7.7077,7.7467,7.8246,7.8285,7.8831,7.9649,7.9532,7.9493,7.9727,7.9571,7.9376,7.9259,7.961,7.9337,7.8831,7.9376,7.9688,7.9883,7.9883,8.0312,8.0935,8.1052,8.1597,8.1831,8.2104,8.2104,8.1909,8.1403,8.0779,8.0117,8.0,8.0428,8.0935,8.0584,8.0857,8.1247,8.0974,8.0389,8.0935,8.1052,8.0701,7.9952,7.9065,7.8604,7.8064,7.7425,7.7192,7.7347,7.6881,7.6803,7.6842,7.6687,7.657,7.6651,7.6458,7.591,7.4984,7.4612,7.4285,7.3952,7.3909,7.4061,7.4478,7.4743,7.4667,7.4402,7.4136,7.372,7.3227,7.2848,7.2052,7.1521,7.137,7.137,7.137,7.137,7.1332,7.1218,7.1104,7.0801,7.0649,7.0459,7.0459,7.0383,7.0268,7.0153,7.0,6.9846,6.9728,6.9679,6.9416,6.9416,6.9411,6.9369,6.9332,6.9327,6.9353,6.9541,6.9847,7.0336,7.0937,7.6999,7.6999,7.6999,7.6999,7.6999,7.6999,7.6999,7.6999,7.6999,7.6999,7.6999,7.6999,7.6999,7.7077,7.7077,7.7545,7.8207,7.8636,7.9337,8.0428,8.0078,8.0117,8.0467,7.9805,7.9844,7.9961,8.0389,8.0078,7.9844,8.0312,8.0623,8.074,8.1247,8.1792,8.1714,8.1714,8.1987,8.2065,8.2104,8.2104,8.2065,8.1948,8.1753,8.1675,8.1636,8.1636,8.1753,8.1519,8.1831,8.187,8.1909,8.1792,8.1948,8.1948,8.1883,8.1491,8.0878,8.0014,7.9152,7.8357,7.8085,7.8241,7.7619,7.7308,7.7231,7.7114,7.6842,7.6687,7.6671,7.6311,7.5705,7.5533,7.526,7.4866,7.4591,7.4629,7.4895,7.4895,7.4895,7.4895,7.4516,7.4136,7.372,7.3454,7.3113,7.262,7.2241,7.2241,7.2241,7.2203,7.1976,7.1824,7.1749,7.1483,7.118,7.0952,7.0913,7.0798,7.0567,7.0451,7.0486,7.0407,7.0098,6.9976,6.9745,6.9665,6.9853,6.9735,6.9391,6.9504,6.9917,7.0179,7.0367,7.1006,7.1719,7.6999,7.6999,7.6999,7.6999,7.6999,7.6999,7.6999,7.6999,7.6999,7.6999,7.6999,7.6999,7.7272,7.7584,7.774,7.8519,7.9454,7.9649,8.035,8.1247,8.113,8.113,8.1403,8.1169,8.0974,8.0974,8.1286,8.1403,8.1169,8.1208,8.1519,8.1558,8.187,8.2026,8.2104,8.2104,8.2104,8.2104,8.2104,8.2104,8.2104,8.2104,8.2104,8.2104,8.2104,8.2104,8.2104,8.2104,8.2104,8.2104,8.2104,8.2104,8.1948,8.1714,8.1468,8.1895,8.0659,7.9975,7.9926,7.9191,7.9095,7.8901,7.8202,7.7464,7.7386,7.7386,7.7114,7.6726,7.704,7.6746,7.5985,7.5634,7.5313,7.5018,7.4895,7.4895,7.4895,7.4895,7.4895,7.4895,7.4857,7.4516,7.4174,7.3871,7.3644,7.3378,7.3075,7.3075,7.3075,7.3075,7.2734,7.2279,7.2241,7.2166,7.1785,7.152,7.1479,7.1363,7.0942,7.0897,7.1153,7.1073,7.0836,7.0831,7.0862,7.0743,7.0517,7.0292,7.0067,7.0292,7.0592,7.0893,7.1231,7.1832,7.2583,7.6999,7.6999,7.6999,7.6999,7.6999,7.6999,7.6999,7.6999,7.6999,7.6999,7.7077,7.7233,7.7623,7.8012,7.8402,7.9181,8.035,8.0701,8.1325,8.1831,8.2104,8.2026,8.1948,8.1987,8.1987,8.2104,8.1909,8.1909,8.1987,8.2026,8.1987,8.2104,8.2026,8.2104,8.2104,8.2104,8.2104,8.2104,8.2104,8.2104,8.2104,8.2104,8.2104,8.2104,8.2104,8.2104,8.2104,8.2104,8.2104,8.2104,8.2104,8.2104,8.1987,8.1714,8.139,8.1467,8.0465,8.0147,8.0137,7.9792,7.9639,7.9484,7.8862,7.8046,7.7347,7.7658,7.7619,7.6764,7.7332,7.6915,7.6111,7.5571,7.5313,7.5095,7.4895,7.4895,7.4932,7.497,7.497,7.4895,7.4895,7.4895,7.4553,7.425,7.4061,7.3985,7.3947,7.3909,7.3871,7.3833,7.3682,7.3265,7.3303,7.3303,7.2997,7.2579,7.2425,7.1962,7.1576,7.1341,7.1595,7.1814,7.1808,7.1876,7.1869,7.1531,7.1118,7.093,7.0818,7.1081,7.1343,7.1757,7.2207,7.2808,7.3446,7.6999,7.6999,7.6999,7.6999,7.6999,7.6999,7.6999,7.6999,7.6999,7.7038,7.7233,7.7779,7.7779,7.7818,7.887,7.9571,7.9766,8.0467,8.1325,8.187,8.2104,8.2104,8.2104,8.2104,8.2104,8.2104,8.2104,8.2104,8.2104,8.2104,8.2104,8.2104,8.2104,8.2104,8.226,8.2455,8.226,8.2221,8.2221,8.2182,8.2143,8.2104,8.2104,8.2104,8.2104,8.2104,8.2104,8.2104,8.2104,8.2104,8.2104,8.2104,8.2026,8.1753,8.1468,8.1194,8.062,8.0419,8.0487,8.018,8.0261,8.0649,8.0144,7.8707,7.8046,7.793,7.7619,7.7174,7.7835,7.7427,7.6531,7.5741,7.5697,7.5627,7.5577,7.5539,7.5463,7.516,7.5122,7.497,7.4895,7.4895,7.4895,7.4553,7.4478,7.4402,7.444,7.4402,7.4516,7.4478,7.4591,7.4478,7.4553,7.4553,7.4475,7.4017,7.3099,7.2784,7.2547,7.2191,7.2064,7.2245,7.2741,7.247,7.2395,7.2019,7.1907,7.217,7.2245,7.1982,7.2132,7.2733,7.3183,7.3709,7.4385,7.6999,7.6999,7.6999,7.6999,7.6999,7.6999,7.6999,7.6999,7.6999,7.735,7.7779,7.8168,7.8714,7.9337,7.9844,8.0623,8.1091,8.1403,8.1792,8.1987,8.2104,8.2104,8.2104,8.2104,8.2104,8.2104,8.2104,8.2104,8.2104,8.2104,8.2104,8.2104,8.2182,8.2494,8.2766,8.3195,8.3,8.2416,8.2533,8.2689,8.2143,8.2104,8.2104,8.2104,8.2104,8.2104,8.2104,8.2104,8.2104,8.2104,8.2104,8.2104,8.1987,8.1675,8.1455,8.1233,8.062,8.0536,8.1031,8.0569,8.0494,8.0533,7.9989,7.9095,7.8629,7.8746,7.8668,7.8573,7.8602,7.8258,7.7603,7.7016,7.6729,7.6531,7.6373,7.6297,7.6107,7.5842,7.569,7.569,7.5236,7.4895,7.4895,7.4857,7.4857,7.4857,7.4895,7.4895,7.4895,7.4895,7.4895,7.4895,7.4895,7.4895,7.4816,7.4199,7.3538,7.3489,7.3477,7.3274,7.3033,7.3334,7.3596,7.3296,7.3258,7.3334,7.3484,7.3747,7.3596,7.3071,7.3258,7.3822,7.4272,7.4685,7.5286,7.6999,7.6999,7.6999,7.6999,7.6999,7.6999,7.6999,7.6999,7.6999,7.7506,7.8324,7.8792,7.9454,8.035,8.1052,8.1169,8.1558,8.1831,8.2026,8.2104,8.2104,8.2104,8.2104,8.2104,8.2104,8.2104,8.2104,8.2104,8.2104,8.2104,8.2299,8.2455,8.2494,8.2922,8.3351,8.413,8.3935,8.3039,8.3195,8.3117,8.2338,8.2377,8.226,8.2182,8.2104,8.2104,8.2104,8.2104,8.2104,8.2104,8.2104,8.2104,8.187,8.1636,8.1416,8.1116,8.0761,8.0458,8.0975,8.1328,8.0844,8.0649,7.9872,7.9251,7.9018,7.9134,7.9018,7.8766,7.9183,7.9365,7.8507,7.7747,7.7339,7.7024,7.6979,7.6941,7.6903,7.6714,7.66,7.6486,7.6069,7.5804,7.5804,7.5842,7.5274,7.516,7.4932,7.4895,7.4895,7.4895,7.4895,7.4895,7.4895,7.4895,7.4857,7.4506,7.419,7.4136,7.4161,7.4327,7.4319,7.446,7.4798,7.4948,7.4948,7.4948,7.4986,7.5136,7.461,7.3934,7.4423,7.4986,7.5324,7.5699,7.6187,7.6999,7.6999,7.6999,7.6999,7.6999,7.6999,7.6999,7.7038,7.7116,7.7545,7.8441,7.9727,8.0117,8.0195,8.1169,8.1481,8.1403,8.1831,8.2104,8.2104,8.2104,8.2104,8.2104,8.2104,8.2104,8.2104,8.2104,8.2104,8.2104,8.2299,8.265,8.3195,8.339,8.3546,8.3546,8.4286,8.4208,8.3624,8.4247,8.3429,8.2922,8.3,8.2766,8.2455,8.2338,8.2377,8.2104,8.2104,8.2104,8.2104,8.2104,8.2104,8.2026,8.1987,8.165,8.0995,8.0878,8.0753,8.0745,8.1426,8.1349,8.0766,7.9989,7.9251,7.8668,7.8785,7.9212,7.9077,7.9548,7.9467,7.8746,7.8122,7.7951,7.7862,7.7855,7.7851,7.7851,7.7244,7.7055,7.6752,7.7017,7.7207,7.7169,7.6903,7.6032,7.5539,7.5084,7.5008,7.516,7.516,7.5274,7.5463,7.5501,7.5501,7.5498,7.5115,7.4838,7.4784,7.4726,7.4824,7.4957,7.5023,7.5511,7.6187,7.6,7.5399,7.5887,7.645,7.5699,7.5098,7.5587,7.6075,7.6413,7.6713,7.7089,7.6999,7.6999,7.6999,7.6999,7.6999,7.6999,7.6999,7.7116,7.7584,7.8012,7.848,7.9532,8.0195,8.0506,8.0896,8.1442,8.1753,8.1792,8.2104,8.2104,8.2104,8.2104,8.2104,8.2143,8.2143,8.2104,8.2104,8.2221,8.2104,8.2611,8.3,8.3507,8.4481,8.4754,8.4676,8.4988,8.5143,8.4325,8.4091,8.3741,8.378,8.3546,8.3312,8.2961,8.2922,8.265,8.2143,8.2104,8.2104,8.2104,8.2104,8.2104,8.2104,8.2104,8.1922,8.1579,8.1524,8.1531,8.1502,8.1776,8.1776,8.1116,8.0222,7.9756,8.0339,7.9562,7.9562,7.9699,8.0245,8.0111,7.94,7.9466,7.9399,7.9267,7.9215,7.9215,7.8988,7.7889,7.7244,7.679,7.679,7.6373,7.6183,7.6752,7.6259,7.6183,7.5842,7.6069,7.6297,7.6032,7.5956,7.6259,7.6411,7.6373,7.6179,7.5683,7.5409,7.5318,7.5148,7.5012,7.5229,7.5399,7.5324,7.5511,7.5662,7.5812,7.6112,7.6338,7.645,7.6375,7.6413,7.6751,7.7164,7.7464,7.7839,7.6999,7.6999,7.6999,7.6999,7.6999,7.6999,7.6999,7.7155,7.7896,7.8324,7.8558,7.9454,8.0234,8.074,8.1169,8.1442,8.2065,8.2104,8.2104,8.2104,8.2104,8.2104,8.2143,8.2377,8.265,8.2611,8.2844,8.3078,8.3156,8.3585,8.4052,8.4715,8.565,8.5923,8.5923,8.6079,8.5806,8.5104,8.4715,8.4676,8.4403,8.413,8.4052,8.3585,8.3234,8.2961,8.2338,8.2104,8.2104,8.2104,8.2104,8.2104,8.2104,8.2104,8.2078,8.2036,8.1975,8.1943,8.1872,8.1854,8.1854,8.1737,8.0455,8.0222,8.0882,8.0105,8.0144,8.0456,8.1035,8.0821,8.0299,8.0493,8.02,7.9992,7.9562,7.9524,7.9102,7.7965,7.732,7.6865,7.6562,7.5918,7.5501,7.5956,7.6297,7.6486,7.6676,7.6941,7.7093,7.6752,7.6449,7.6752,7.6828,7.66,7.6411,7.6104,7.5906,7.5852,7.5607,7.5283,7.5417,7.5596,7.5258,7.5023,7.5662,7.6075,7.6,7.6075,7.615,7.6262,7.6375,7.6901,7.7727,7.8065,7.829,7.6999,7.6999,7.6999,7.6999,7.6999,7.6999,7.6999,7.7077,7.7935,7.8324,7.8402,7.9922,8.0584,8.0896,8.1597,8.1948,8.2065,8.2104,8.2104,8.2104,8.2104,8.2104,8.2338,8.2727,8.2805,8.339,8.3741,8.378,8.4481,8.4676,8.5104,8.5884,8.6585,8.678,8.6897,8.678,8.6196,8.5572,8.5416,8.5027,8.4403,8.5027,8.4676,8.4169,8.3741,8.3312,8.2727,8.2338,8.2221,8.2143,8.2104,8.2104,8.2104,8.2104,8.2039,8.1998,8.1975,8.1908,8.1911,8.1892,8.1892,8.1815,8.1154,8.0339,8.0067,8.0377,8.0416,8.067,8.1065,8.1117,8.1021,8.0701,8.0316,7.9814,7.9191,7.8917,7.8609,7.8002,7.7472,7.7093,7.6865,7.6486,7.6259,7.6449,7.6107,7.6221,7.6373,7.6524,7.6714,7.6903,7.6714,7.6979,7.6979,7.6676,7.6524,7.6407,7.6137,7.5971,7.5809,7.56,7.5735,7.5605,7.522,7.5211,7.6075,7.6338,7.5962,7.5812,7.5812,7.5924,7.6075,7.6826,7.7614,7.8102,7.8403,7.6999,7.6999,7.6999,7.6999,7.6999,7.6999,7.6999,7.7116,7.7896,7.8324,7.8363,7.9415,8.0312,8.0818,8.1091,8.1597,8.1909,8.2104,8.2104,8.2104,8.2104,8.2104,8.2221,8.2455,8.2494,8.2844,8.3351,8.413,8.4169,8.4793,8.6001,8.6819,8.7053,8.717,8.7209,8.717,8.6429,8.5884,8.5806,8.5221,8.4832,8.5455,8.5066,8.4715,8.4715,8.413,8.3273,8.3039,8.2766,8.2182,8.2143,8.2104,8.2104,8.2104,8.2078,8.2007,8.1959,8.1908,8.1911,8.1892,8.1892,8.1892,8.1582,8.1543,8.1154,8.0844,8.0727,8.0942,8.1209,8.1329,8.0999,8.0613,8.0353,7.9929,7.9229,7.8727,7.8419,7.7965,7.7396,7.6752,7.6562,7.6449,7.6297,7.5994,7.569,7.5842,7.5956,7.6145,7.6524,7.679,7.6941,7.7207,7.7093,7.679,7.6941,7.6941,7.644,7.609,7.5852,7.5538,7.5216,7.5087,7.4995,7.5249,7.5737,7.5812,7.5662,7.5662,7.5849,7.5624,7.5774,7.6638,7.7426,7.7952,7.8515,7.6999,7.6999,7.6999,7.6999,7.6999,7.6999,7.6999,7.7155,7.7935,7.8324,7.8441,7.9571,8.0312,8.0818,8.1208,8.1636,8.2065,8.2104,8.2104,8.2104,8.2104,8.2104,8.2143,8.2416,8.2727,8.3,8.3702,8.4754,8.4754,8.5611,8.6819,8.7092,8.7209,8.7209,8.7209,8.7131,8.6741,8.6196,8.5845,8.5494,8.5533,8.5689,8.5494,8.5377,8.5611,8.4676,8.378,8.3702,8.3312,8.2455,8.2299,8.2611,8.2611,8.2598,8.2259,8.2186,8.1943,8.1908,8.1911,8.1892,8.1892,8.1892,8.1892,8.1854,8.1737,8.1426,8.131,8.133,8.1504,8.1514,8.0988,8.0491,8.0348,8.0116,7.9385,7.8647,7.823,7.7813,7.7131,7.6373,7.6069,7.5918,7.5728,7.5463,7.5387,7.569,7.5766,7.5766,7.6449,7.7244,7.7282,7.7358,7.7169,7.6941,7.7093,7.7093,7.6596,7.6062,7.5561,7.5248,7.4853,7.4764,7.4862,7.5041,7.5258,7.5436,7.5849,7.5962,7.6075,7.5924,7.6112,7.7013,7.7652,7.7915,7.844,7.6999,7.6999,7.6999,7.6999,7.6999,7.6999,7.6999,7.7116,7.7935,7.8363,7.8714,8.0,8.0662,8.113,8.1636,8.1909,8.2104,8.2104,8.2104,8.2104,8.2104,8.2104,8.2338,8.2883,8.3078,8.3897,8.4793,8.5572,8.6118,8.6663,8.7014,8.7209,8.7209,8.7209,8.7209,8.7209,8.6897,8.6507,8.6507,8.6429,8.5923,8.5923,8.604,8.5845,8.5416,8.4715,8.4169,8.4013,8.4052,8.3195,8.2922,8.3468,8.3299,8.3013,8.2557,8.2279,8.1959,8.1908,8.1911,8.1892,8.1892,8.1892,8.1892,8.1892,8.1815,8.1776,8.1621,8.1582,8.1718,8.1523,8.1021,8.0715,8.0496,7.9969,7.9305,7.8761,7.8419,7.7965,7.7396,7.6828,7.6752,7.66,7.6373,7.6221,7.6259,7.6107,7.6032,7.5956,7.6449,7.7548,7.7661,7.7586,7.732,7.7055,7.679,7.6714,7.6524,7.6066,7.5641,7.5447,7.5437,7.5161,7.4884,7.5171,7.5483,7.5924,7.63,7.6375,7.6525,7.6788,7.7089,7.7652,7.8027,7.8215,7.8478,7.6999,7.6999,7.6999,7.6999,7.6999,7.6999,7.6999,7.7077,7.7935,7.8597,7.922,7.9688,8.0584,8.1597,8.1831,8.1987,8.2104,8.2104,8.2104,8.2104,8.2104,8.2104,8.2221,8.2844,8.3312,8.3974,8.4988,8.6274,8.6741,8.7053,8.7209,8.7209,8.7209,8.7209,8.7209,8.7209,8.7014,8.678,8.6897,8.6546,8.565,8.6274,8.6702,8.6429,8.5962,8.5884,8.5533,8.5377,8.5027,8.4364,8.4286,8.4052,8.3429,8.2793,8.2337,8.2046,8.2014,8.1926,8.1911,8.1892,8.1892,8.1892,8.1892,8.1892,8.1892,8.1892,8.1892,8.1873,8.1755,8.1451,8.1147,8.0869,8.057,7.9857,7.9301,7.8993,7.8647,7.823,7.7737,7.7586,7.7586,7.7434,7.7207,7.7093,7.7093,7.7055,7.7055,7.7055,7.7207,7.7889,7.8002,7.7889,7.7548,7.7244,7.6865,7.6752,7.6752,7.671,7.6478,7.6246,7.6015,7.5771,7.5562,7.566,7.5944,7.6535,7.6826,7.6675,7.6901,7.7426,7.7727,7.8177,7.8515,7.8741,7.8853,7.6995,7.6985,7.6983,7.6999,7.6999,7.6999,7.6999,7.7077,7.7506,7.8207,7.8987,7.9415,8.0273,8.1442,8.1519,8.187,8.2026,8.2104,8.2104,8.2104,8.2104,8.2104,8.2377,8.2727,8.3039,8.3702,8.5182,8.6351,8.7053,8.7209,8.7209,8.7209,8.7209,8.7209,8.7209,8.7209,8.7209,8.717,8.7209,8.6624,8.565,8.6312,8.6819,8.6585,8.6546,8.6468,8.6274,8.5962,8.5455,8.5143,8.5027,8.4754,8.4208,8.3689,8.3102,8.2629,8.227,8.1926,8.195,8.1931,8.1931,8.1892,8.1892,8.1892,8.1892,8.1892,8.1892,8.1873,8.1652,8.1362,8.1022,8.0707,8.0391,7.9844,7.9642,7.9405,7.9329,7.9102,7.8609,7.8192,7.8306,7.8495,7.823,7.7927,7.7889,7.7775,7.7775,7.7813,7.804,7.8306,7.8382,7.8382,7.8116,7.7586,7.7169,7.7169,7.732,7.7278,7.7278,7.7051,7.6781,7.6488,7.6316,7.6609,7.6931,7.7362,7.7539,7.7464,7.7727,7.8328,7.8478,7.859,7.8891,7.9116,7.9154,7.7017,7.6997,7.7004,7.6999,7.6999,7.6999,7.6999,7.6999,7.7038,7.7428,7.8129,7.8792,7.9727,8.0545,8.0857,8.1442,8.187,8.2065,8.2104,8.2104,8.2104,8.2104,8.2221,8.2533,8.3429,8.4442,8.5689,8.6507,8.717,8.7209,8.7209,8.7209,8.7209,8.7209,8.7209,8.7209,8.7209,8.7209,8.7209,8.7209,8.6858,8.6546,8.6741,8.6741,8.6585,8.6196,8.6157,8.604,8.5689,8.5572,8.5611,8.5338,8.4974,8.4454,8.3983,8.3431,8.2659,8.2336,8.2144,8.2009,8.197,8.1892,8.1931,8.1892,8.1892,8.1892,8.1892,8.1775,8.1585,8.1285,8.0931,8.0608,8.0238,7.9988,7.9865,7.9822,7.9784,7.9784,7.9329,7.8798,7.9026,7.9291,7.914,7.8798,7.8647,7.8533,7.8495,7.8457,7.8571,7.8836,7.9026,7.9064,7.8988,7.8382,7.7699,7.7889,7.8154,7.8078,7.8036,7.7813,7.7543,7.7288,7.7304,7.771,7.8078,7.8226,7.8478,7.8553,7.8891,7.8966,7.8928,7.8853,7.8928,7.9154,7.9266,7.6989,7.6994,7.7011,7.6999,7.6999,7.6999,7.6999,7.6999,7.6999,7.7116,7.735,7.7545,7.8597,8.0818,8.0818,8.1286,8.1987,8.2104,8.2104,8.2104,8.2104,8.2104,8.2455,8.3234,8.4949,8.5845,8.6429,8.6936,8.7209,8.7209,8.7209,8.7209,8.7209,8.7209,8.7209,8.7209,8.7209,8.7209,8.7209,8.7209,8.7209,8.7014,8.7053,8.7092,8.7053,8.6975,8.6975,8.6975,8.6897,8.6663,8.6274,8.6001,8.5637,8.5142,8.4606,8.417,8.336,8.2958,8.2727,8.2203,8.2048,8.2048,8.2048,8.1892,8.1892,8.1892,8.1873,8.1796,8.1546,8.1231,8.0869,8.0501,8.0157,7.9988,7.986,7.986,7.986,7.986,7.967,7.9519,7.9556,7.9708,7.9632,7.9481,7.9443,7.9367,7.9367,7.9329,7.9291,7.9481,7.9632,7.9632,7.9632,7.9215,7.8571,7.895,7.9177,7.9026,7.8874,7.8685,7.8409,7.8126,7.8263,7.8481,7.8719,7.8827,7.9079,7.9116,7.9079,7.9041,7.9079,7.9079,7.9116,7.9304,7.9529]},{"header":{"parameterUnit":"m.s-1","parameterCategory":1,"la1":31.0,"la2":29.5877,"lo1":-88.7671,"lo2":-86.6584,"dx":0.0162,"dy":0.0185,"nx":115,"ny":88,"refTime":"2023-01-20T18:00:00:Z","depth":0,"parameterNumber":3,"parameterNumberName":"V-component_of_WINDS"},"data":[0.0,0.0,0.0,0.0,0.0,0.0,0.0,0.0,0.0,0.0,0.0,0.0,0.0,0.0,0.0,0.0,0.0,0.0,0.0,0.0,0.0,0.0,0.0,0.0,0.0,0.0,0.0,0.0,0.0,0.0,0.0,0.0,0.0,0.0,0.0,0.0,0.0,0.0,0.0,0.0,0.0,0.0,0.0,0.0,0.0,0.0,0.0,0.0,0.0,0.0,0.0,0.0,0.0,0.0,0.0,0.0,0.0,0.0,0.0,0.0,0.0,0.0,0.0,0.0,0.0,0.0,0.0,0.0,0.0,0.0,0.0,0.0,0.0,0.0,0.0,0.0,0.0,0.0,0.0,0.0,0.0,0.0,0.0,0.0,0.0,0.0,0.0,0.0,0.0,0.0,0.0,0.0,0.0,0.0,0.0,0.0,0.0,0.0,0.0,0.0,0.0,0.0,0.0,0.0,0.0,0.0,0.0,0.0,0.0,0.0,0.0,0.0,0.0,0.0,0.0,0.0,0.0,0.0,0.0,0.0,0.0,0.0,0.0,0.0,0.0,0.0,0.0,0.0,0.0,0.0,0.0,0.0,0.0,0.0,0.0,0.0,0.0,0.0,0.0,0.0,0.0,0.0,0.0,0.0,0.0,0.0,0.0,0.0,0.0,0.0,0.0,0.0,0.0,0.0,0.0,0.0,0.0,0.0,0.0,0.0,0.0,0.0,0.0,0.0,0.0,0.0,0.0,0.0,0.0,0.0,0.0,0.0,0.0,0.0,0.0,0.0,0.0,0.0,0.0,0.0,0.0,0.0,0.0,0.0,0.0,0.0,0.0,0.0,0.0,0.0,0.0,0.0,0.0,0.0,0.0,0.0,0.0,0.0,0.0,0.0,0.0,0.0,0.0,0.0,0.0,0.0,0.0,0.0,0.0,0.0,0.0,0.0,0.0,0.0,0.0,0.0,0.0,0.0,0.0,0.0,0.0,0.0,0.0,0.0,0.0,0.0,0.0,0.0,0.0,0.0,0.0,0.0,0.0,0.0,0.0,0.0,0.0,0.0,0.0,0.0,0.0,0.0,0.0,0.0,0.0,0.0,0.0,0.0,0.0,0.0,0.0,0.0,0.0,0.0,0.0,0.0,0.0,0.0,0.0,0.0,0.0,0.0,0.0,0.0,0.0,0.0,0.0,0.0,0.0,0.0,0.0,0.0,0.0,0.0,0.0,0.0,0.0,0.0,0.0,0.0,0.0,0.0,0.0,0.0,0.0,0.0,0.0,0.0,0.0,0.0,0.0,0.0,0.0,0.0,0.0,0.0,0.0,0.0,0.0,0.0,0.0,0.0,0.0,0.0,0.0,0.0,0.0,0.0,0.0,0.0,0.0,0.0,0.0,0.0,0.0,0.0,0.0,0.0,0.0,0.0,0.0,0.0,0.0,0.0,0.0,0.0,0.0,0.0,0.0,0.0,0.0,0.0,0.0,0.0,0.0,0.0,0.0,0.0,0.0,0.0,0.0,0.0,0.0,0.0,0.0,0.0,0.0,0.0,0.0,0.0,0.0,0.0,0.0,0.0,0.0,0.0,0.0,0.0,0.0,0.0,0.0,0.0,0.0,0.0,0.0,0.0,0.0,0.0,0.0,0.0,0.0,0.0,0.0,0.0,0.0,0.0,0.0,0.0,0.0,0.0,0.0,0.0,0.0,0.0,0.0,0.0,0.0,0.0,0.0,0.0,0.0,0.0,0.0,0.0,0.0,0.0,0.0,0.0,0.0,0.0,0.0,0.0,0.0,0.0,0.0,0.0,0.0,0.0,0.0,0.0,0.0,0.0,0.0,0.0,0.0,0.0,0.0,0.0,0.0,0.0,0.0,0.0,0.0,0.0,0.0,0.0,0.0,0.0,0.0,0.0,0.0,0.0,0.0,0.0,0.0,0.0,0.0,0.0,0.0,0.0,0.0,0.0,0.0,0.0,0.0,0.0,0.0,0.0,0.0,0.0,0.0,0.0,0.0,0.0,0.0,0.0,0.0,0.0,0.0,0.0,0.0,0.0,0.0,0.0,0.0,0.0,0.0,0.0,0.0,0.0,0.0,0.0,0.0,0.0,0.0,0.0,0.0,0.0,0.0,0.0,0.0,0.0,0.0,0.0,0.0,0.0,0.0,0.0,0.0,0.0,0.0,0.0,0.0,0.0,0.0,0.0,0.0,0.0,0.0,0.0,0.0,0.0,0.0,0.0,0.0,0.0,0.0,0.0,0.0,0.0,0.0,0.0,0.0,0.0,0.0,0.0,0.0,0.0,0.0,0.0,0.0,0.0,0.0,0.0,0.0,0.0,0.0,0.0,0.0,0.0,0.0,0.0,0.0,0.0,0.0,0.0,0.0,0.0,0.0,0.0,0.0,0.0,0.0,0.0,0.0,0.0,0.0,0.0,0.0,0.0,0.0,0.0,0.0,0.0,0.0,0.0,0.0,0.0,0.0,0.0,0.0,0.0,0.0,0.0,0.0,0.0,0.0,0.0,0.0,0.0,0.0,0.0,0.0,0.0,0.0,0.0,0.0,0.0,0.0,0.0,0.0,0.0,0.0,0.0,0.0,0.0,0.0,0.0,0.0,0.0,0.0,0.0,0.0,0.0,0.0,0.0,0.0,0.0,0.0,0.0,0.0,0.0,0.0,0.0,0.0,0.0,0.0,0.0,0.0,0.0,0.0,0.0,0.0,0.0,0.0,0.0,0.0,0.0,0.0,0.0,0.0,0.0,0.0,0.0,0.0,0.0,0.0,0.0,0.0,0.0,0.0,0.0,0.0,0.0,0.0,0.0,0.0,0.0,0.0,0.0,0.0,0.0,0.0,0.0,0.0,0.0,0.0,0.0,0.0,0.0,0.0,0.0,0.0,0.0,0.0,0.0,0.0,0.0,0.0,0.0,0.0,0.0,0.0,0.0,0.0,0.0,0.0,0.0,0.0,0.0,0.0,0.0,0.0,0.0,0.0,0.0,0.0,0.0,0.0,0.0,0.0,0.0,0.0,0.0,0.0,0.0,0.0,0.0,0.0,0.0,0.0,0.0,0.0,0.0,0.0,0.0,0.0,0.0,0.0,0.0,0.0,0.0,0.0,0.0,0.0,0.0,0.0,0.0,0.0,0.0,0.0,0.0,0.0,0.0,0.0,0.0,0.0,0.0,0.0,0.0,0.0,0.0,0.0,0.0,0.0,0.0,0.0,0.0,0.0,0.0,0.0,0.0,0.0,0.0,0.0,0.0,0.0,0.0,0.0,0.0,0.0,0.0,0.0,0.0,0.0,0.0,0.0,0.0,0.0,0.0,0.0,0.0,0.0,0.0,0.0,0.0,0.0,0.0,0.0,0.0,0.0,0.0,0.0,0.0,0.0,0.0,0.0,0.0,0.0,0.0,0.0,0.0,0.0,0.0,0.0,0.0,0.0,0.0,0.0,0.0,0.0,0.0,0.0,0.0,0.0,0.0,0.0,0.0,0.0,0.0,0.0,0.0,0.0,0.0,0.0,0.0,0.0,0.0,0.0,0.0,0.0,0.0,0.0,0.0,0.0,0.0,0.0,0.0,0.0,0.0,0.0,0.0,0.0,0.0,0.0,0.0,0.0,0.0,0.0,0.0,0.0,0.0,0.0,0.0,0.0,0.0,0.0,0.0,0.0,0.0,0.0,0.0,0.0,0.0,0.0,0.0,0.0,0.0,0.0,0.0,0.0,0.0,0.0,0.0,0.0,0.0,0.0,0.0,0.0,0.0,0.0,0.0,0.0,0.0,0.0,0.0,0.0,0.0,0.0,0.0,0.0,0.0,0.0,0.0,0.0,0.0,0.0,0.0,0.0,0.0,0.0,0.0,0.0,0.0,0.0,0.0,0.0,0.0,0.0,0.0,0.0,0.0,0.0,0.0,0.0,0.0,0.0,0.0,0.0,0.0,0.0,0.0,0.0,0.0,0.0,0.0,0.0,0.0,0.0,0.0,0.0,0.0,0.0,0.0,0.0,0.0,0.0,0.0,0.0,0.0,0.0,0.0,0.0,0.0,0.0,0.0,0.0,0.0,0.0,0.0,0.0,0.0,0.0,0.0,0.0,0.0,0.0,0.0,0.0,0.0,0.0,0.0,0.0,0.0,0.0,0.0,0.0,0.0,0.0,0.0,0.0,0.0,0.0,0.0,0.0,0.0,0.0,0.0,0.0,0.0,0.0,0.0,0.0,0.0,0.0,0.0,0.0,0.0,0.0,0.0,0.0,0.0,0.0,0.0,0.0,0.0,-1.8179,0.0,0.0,0.0,0.0,0.0,0.0,0.0,0.0,0.0,0.0,0.0,0.0,0.0,0.0,0.0,0.0,0.0,0.0,0.0,0.0,0.0,0.0,0.0,0.0,0.0,0.0,0.0,0.0,0.0,0.0,0.0,0.0,0.0,0.0,0.0,0.0,0.0,0.0,0.0,0.0,0.0,0.0,0.0,0.0,0.0,0.0,0.0,0.0,0.0,0.0,0.0,0.0,0.0,0.0,0.0,0.0,0.0,0.0,0.0,0.0,0.0,0.0,0.0,0.0,0.0,0.0,0.0,0.0,0.0,0.0,0.0,0.0,0.0,0.0,0.0,0.0,0.0,0.0,0.0,0.0,0.0,0.0,0.0,0.0,0.0,0.0,0.0,0.0,0.0,0.0,0.0,0.0,0.0,0.0,0.0,0.0,0.0,0.0,0.0,0.0,0.0,0.0,0.0,0.0,0.0,0.0,0.0,0.0,0.0,0.0,-1.6951,-1.7044,-1.7217,-1.7232,-1.7138,0.0,0.0,0.0,0.0,0.0,0.0,0.0,0.0,0.0,0.0,0.0,0.0,0.0,0.0,0.0,0.0,0.0,0.0,0.0,0.0,0.0,0.0,0.0,0.0,0.0,0.0,0.0,0.0,0.0,0.0,0.0,0.0,0.0,0.0,0.0,0.0,0.0,0.0,0.0,0.0,0.0,0.0,0.0,0.0,0.0,0.0,0.0,0.0,0.0,0.0,0.0,0.0,0.0,0.0,0.0,0.0,0.0,0.0,0.0,0.0,0.0,0.0,0.0,0.0,0.0,0.0,0.0,0.0,0.0,0.0,0.0,0.0,0.0,0.0,0.0,0.0,0.0,0.0,0.0,0.0,0.0,0.0,0.0,0.0,0.0,0.0,0.0,0.0,0.0,0.0,0.0,0.0,0.0,0.0,0.0,0.0,0.0,0.0,0.0,0.0,0.0,0.0,0.0,0.0,0.0,0.0,0.0,0.0,0.0,0.0,0.0,0.0,-1.5981,-1.5981,-1.5805,0.0,0.0,0.0,0.0,0.0,0.0,0.0,0.0,0.0,0.0,0.0,0.0,0.0,0.0,0.0,0.0,0.0,0.0,0.0,0.0,0.0,0.0,0.0,0.0,0.0,0.0,0.0,0.0,0.0,0.0,0.0,0.0,0.0,0.0,0.0,0.0,0.0,0.0,0.0,0.0,0.0,0.0,0.0,0.0,0.0,0.0,0.0,0.0,0.0,0.0,0.0,0.0,0.0,0.0,0.0,0.0,0.0,0.0,0.0,0.0,0.0,0.0,0.0,0.0,0.0,0.0,0.0,0.0,0.0,0.0,0.0,0.0,0.0,0.0,0.0,0.0,0.0,0.0,0.0,0.0,0.0,0.0,0.0,0.0,0.0,0.0,0.0,0.0,0.0,0.0,0.0,0.0,0.0,0.0,0.0,0.0,0.0,0.0,0.0,0.0,0.0,0.0,0.0,0.0,0.0,0.0,0.0,0.0,0.0,0.0,-1.4459,-1.4459,-1.4459,0.0,-1.4555,0.0,0.0,0.0,0.0,0.0,0.0,0.0,0.0,0.0,0.0,0.0,0.0,0.0,0.0,0.0,0.0,0.0,0.0,0.0,0.0,0.0,0.0,0.0,0.0,0.0,0.0,0.0,0.0,0.0,0.0,0.0,0.0,0.0,0.0,0.0,0.0,0.0,0.0,0.0,0.0,0.0,0.0,0.0,0.0,0.0,0.0,0.0,0.0,0.0,0.0,0.0,0.0,0.0,0.0,0.0,0.0,0.0,0.0,0.0,0.0,0.0,0.0,0.0,0.0,0.0,0.0,0.0,0.0,0.0,0.0,0.0,0.0,0.0,0.0,0.0,0.0,0.0,0.0,0.0,0.0,0.0,0.0,0.0,0.0,0.0,0.0,0.0,0.0,0.0,0.0,0.0,0.0,0.0,0.0,0.0,0.0,0.0,0.0,0.0,0.0,0.0,0.0,0.0,0.0,0.0,0.0,0.0,0.0,0.0,0.0,-1.3403,-1.3307,-1.3307,-1.3692,0.0,0.0,0.0,0.0,0.0,0.0,0.0,0.0,0.0,0.0,0.0,0.0,0.0,0.0,0.0,0.0,0.0,0.0,0.0,0.0,0.0,0.0,0.0,0.0,0.0,0.0,0.0,0.0,0.0,0.0,0.0,0.0,0.0,0.0,0.0,0.0,0.0,0.0,0.0,0.0,0.0,0.0,0.0,0.0,0.0,0.0,0.0,0.0,0.0,0.0,0.0,0.0,0.0,0.0,0.0,0.0,0.0,0.0,0.0,0.0,0.0,0.0,0.0,0.0,0.0,0.0,0.0,0.0,0.0,0.0,0.0,0.0,0.0,0.0,0.0,0.0,0.0,0.0,0.0,0.0,0.0,0.0,0.0,0.0,0.0,0.0,0.0,0.0,0.0,0.0,0.0,0.0,0.0,0.0,0.0,0.0,0.0,0.0,0.0,0.0,0.0,0.0,0.0,0.0,0.0,0.0,0.0,0.0,0.0,0.0,-1.2608,-1.2318,-1.2159,-1.2221,-1.2608,-1.3312,0.0,0.0,0.0,0.0,0.0,0.0,0.0,0.0,0.0,0.0,0.0,0.0,0.0,0.0,0.0,0.0,0.0,0.0,0.0,0.0,0.0,0.0,0.0,0.0,0.0,0.0,0.0,0.0,0.0,0.0,0.0,0.0,0.0,0.0,0.0,0.0,0.0,0.0,0.0,0.0,0.0,0.0,0.0,0.0,0.0,0.0,0.0,0.0,0.0,0.0,0.0,0.0,0.0,0.0,0.0,0.0,0.0,0.0,0.0,0.0,0.0,0.0,0.0,0.0,0.0,0.0,0.0,0.0,0.0,0.0,0.0,0.0,0.0,0.0,0.0,0.0,0.0,0.0,0.0,0.0,0.0,0.0,0.0,0.0,0.0,0.0,0.0,0.0,0.0,0.0,0.0,0.0,0.0,0.0,0.0,0.0,0.0,0.0,0.0,0.0,0.0,0.0,0.0,0.0,0.0,0.0,0.0,0.0,-1.1086,-1.1182,-1.1201,-1.102,-1.1191,-1.1201,0.0,0.0,0.0,0.0,0.0,0.0,0.0,0.0,0.0,0.0,0.0,0.0,0.0,0.0,0.0,0.0,0.0,0.0,0.0,0.0,0.0,0.0,0.0,0.0,0.0,0.0,0.0,0.0,0.0,0.0,0.0,0.0,0.0,0.0,0.0,0.0,0.0,0.0,0.0,0.0,0.0,0.0,0.0,0.0,0.0,0.0,0.0,0.0,0.0,0.0,0.0,0.0,0.0,0.0,0.0,0.0,0.0,0.0,0.0,0.0,0.0,0.0,0.0,0.0,0.0,0.0,0.0,0.0,0.0,0.0,0.0,0.0,0.0,0.0,0.0,0.0,0.0,0.0,0.0,0.0,0.0,0.0,0.0,0.0,0.0,0.0,0.0,0.0,0.0,0.0,0.0,0.0,0.0,0.0,0.0,0.0,0.0,0.0,0.0,0.0,0.0,0.0,0.0,0.0,0.0,0.0,0.0,0.0,0.0,-1.0707,-1.0764,-1.083,-1.0896,-1.0962,-1.1028,0.0,0.0,0.0,0.0,0.0,0.0,0.0,0.0,0.0,0.0,0.0,0.0,0.0,0.0,0.0,0.0,0.0,0.0,0.0,0.0,0.0,0.0,0.0,0.0,0.0,0.0,0.0,0.0,0.0,0.0,0.0,0.0,0.0,0.0,0.0,0.0,0.0,0.0,0.0,0.0,0.0,0.0,0.0,0.0,0.0,0.0,0.0,0.0,0.0,0.0,0.0,0.0,0.0,0.0,0.0,0.0,0.0,0.0,0.0,0.0,0.0,0.0,0.0,0.0,0.0,0.0,0.0,0.0,0.0,0.0,0.0,0.0,0.0,0.0,0.0,0.0,0.0,0.0,0.0,0.0,0.0,0.0,0.0,0.0,0.0,0.0,0.0,0.0,0.0,0.0,0.0,0.0,0.0,0.0,0.0,0.0,0.0,0.0,0.0,0.0,0.0,0.0,0.0,0.0,0.0,0.0,0.0,0.0,0.0,-1.0688,0.0,-1.0783,-1.0792,-1.0858,-1.0896,0.0,0.0,0.0,0.0,0.0,0.0,0.0,0.0,0.0,0.0,0.0,0.0,0.0,0.0,0.0,0.0,0.0,0.0,0.0,0.0,0.0,0.0,0.0,0.0,0.0,0.0,0.0,0.0,0.0,0.0,0.0,0.0,0.0,0.0,0.0,0.0,0.0,0.0,0.0,0.0,0.0,0.0,0.0,0.0,0.0,0.0,0.0,0.0,0.0,0.0,0.0,0.0,0.0,0.0,0.0,0.0,0.0,0.0,0.0,0.0,0.0,0.0,0.0,0.0,0.0,0.0,0.0,0.0,0.0,0.0,0.0,0.0,0.0,0.0,0.0,0.0,0.0,0.0,0.0,0.0,0.0,0.0,0.0,0.0,0.0,0.0,0.0,0.0,0.0,0.0,0.0,0.0,0.0,0.0,0.0,0.0,0.0,0.0,0.0,0.0,0.0,0.0,0.0,0.0,0.0,0.0,0.0,0.0,-1.0688,-1.0886,-1.1066,-1.0962,-1.0603,-1.0783,-1.0707,0.0,0.0,0.0,0.0,0.0,0.0,0.0,0.0,0.0,0.0,0.0,0.0,0.0,0.0,0.0,0.0,0.0,0.0,0.0,0.0,0.0,0.0,0.0,0.0,0.0,0.0,0.0,0.0,0.0,0.0,0.0,0.0,0.0,0.0,0.0,0.0,0.0,0.0,0.0,0.0,0.0,0.0,0.0,0.0,0.0,0.0,0.0,0.0,0.0,0.0,0.0,0.0,0.0,0.0,0.0,0.0,0.0,0.0,0.0,0.0,0.0,0.0,0.0,0.0,0.0,0.0,0.0,0.0,0.0,0.0,0.0,0.0,0.0,0.0,0.0,0.0,0.0,0.0,0.0,0.0,0.0,0.0,0.0,0.0,0.0,0.0,0.0,0.0,0.0,0.0,0.0,0.0,0.0,0.0,0.0,0.0,0.0,0.0,0.0,0.0,0.0,0.0,0.0,0.0,0.0,0.0,0.0,0.0,0.0,-1.0679,-1.0735,-1.0773,-1.0792,-1.0716,-1.0745,0.0,0.0,0.0,0.0,0.0,0.0,0.0,0.0,0.0,0.0,0.0,0.0,0.0,0.0,0.0,0.0,0.0,0.0,0.0,0.0,0.0,0.0,0.0,0.0,0.0,0.0,0.0,0.0,0.0,0.0,0.0,0.0,0.0,0.0,0.0,0.0,0.0,0.0,0.0,0.0,0.0,0.0,0.0,0.0,0.0,0.0,0.0,0.0,0.0,0.0,0.0,0.0,0.0,0.0,0.0,0.0,0.0,0.0,0.0,0.0,0.0,0.0,0.0,0.0,0.0,0.0,0.0,0.0,0.0,0.0,0.0,0.0,0.0,0.0,0.0,0.0,0.0,0.0,0.0,0.0,0.0,0.0,0.0,0.0,0.0,0.0,0.0,0.0,0.0,0.0,0.0,0.0,0.0,0.0,0.0,0.0,0.0,0.0,0.0,0.0,0.0,0.0,0.0,0.0,0.0,0.0,0.0,0.0,0.0,-1.1047,-1.0886,-1.0868,-1.1009,-1.0726,-1.0697,-1.0943,0.0,0.0,0.0,0.0,0.0,0.0,0.0,0.0,0.0,0.0,0.0,0.0,0.0,0.0,0.0,0.0,0.0,0.0,0.0,0.0,0.0,0.0,0.0,0.0,0.0,0.0,0.0,0.0,0.0,0.0,0.0,0.0,0.0,0.0,0.0,0.0,0.0,0.0,0.0,0.0,0.0,0.0,0.0,0.0,0.0,0.0,0.0,0.0,0.0,0.0,0.0,0.0,0.0,0.0,0.0,0.0,0.0,0.0,0.0,0.0,0.0,0.0,0.0,0.0,0.0,0.0,0.0,0.0,0.0,0.0,0.0,0.0,0.0,0.0,0.0,0.0,0.0,0.0,0.0,0.0,0.0,0.0,0.0,0.0,0.0,0.0,0.0,0.0,0.0,0.0,0.0,0.0,0.0,0.0,0.0,0.0,0.0,0.0,0.0,0.0,0.0,0.0,0.0,0.0,0.0,0.0,0.0,0.0,-1.185,-1.1482,-1.1274,-1.1255,-1.0849,-1.0622,0.0,0.0,0.0,0.0,0.0,0.0,0.0,0.0,0.0,0.0,0.0,0.0,0.0,0.0,0.0,0.0,0.0,0.0,0.0,0.0,0.0,0.0,0.0,0.0,0.0,0.0,0.0,0.0,0.0,0.0,0.0,0.0,0.0,0.0,0.0,0.0,0.0,0.0,0.0,0.0,0.0,0.0,0.0,0.0,0.0,0.0,0.0,0.0,0.0,0.0,0.0,0.0,0.0,0.0,0.0,0.0,0.0,0.0,0.0,0.0,0.0,0.0,0.0,0.0,0.0,0.0,0.0,0.0,0.0,0.0,0.0,0.0,0.0,0.0,0.0,0.0,0.0,0.0,0.0,0.0,0.0,0.0,0.0,0.0,0.0,0.0,0.0,0.0,0.0,0.0,0.0,0.0,0.0,0.0,0.0,0.0,0.0,0.0,0.0,0.0,0.0,0.0,0.0,0.0,0.0,0.0,0.0,0.0,0.0,-1.2257,-1.2323,-1.2209,-1.1898,-1.1482,-1.1189,0.0,0.0,0.0,0.0,0.0,0.0,0.0,0.0,0.0,0.0,0.0,0.0,0.0,0.0,0.0,0.0,0.0,0.0,0.0,0.0,0.0,0.0,0.0,0.0,0.0,0.0,0.0,0.0,0.0,0.0,0.0,0.0,0.0,0.0,0.0,0.0,0.0,0.0,0.0,0.0,0.0,0.0,0.0,0.0,0.0,0.0,0.0,0.0,0.0,0.0,0.0,0.0,0.0,0.0,0.0,0.0,0.0,0.0,0.0,0.0,0.0,0.0,0.0,0.0,0.0,0.0,0.0,0.0,0.0,0.0,0.0,0.0,0.0,0.0,0.0,0.0,0.0,0.0,0.0,0.0,0.0,0.0,0.0,0.0,0.0,0.0,0.0,0.0,0.0,0.0,0.0,0.0,0.0,0.0,0.0,0.0,0.0,0.0,0.0,0.0,0.0,0.0,0.0,0.0,0.0,0.0,0.0,0.0,-1.237,-1.2701,-1.3088,-1.3173,-1.2937,-1.2266,-1.1728,0.0,0.0,0.0,0.0,0.0,0.0,0.0,0.0,0.0,0.0,0.0,0.0,0.0,0.0,0.0,0.0,0.0,0.0,0.0,0.0,0.0,0.0,0.0,0.0,0.0,0.0,0.0,0.0,0.0,0.0,0.0,0.0,0.0,0.0,0.0,0.0,0.0,0.0,0.0,0.0,0.0,0.0,0.0,0.0,0.0,0.0,0.0,0.0,0.0,0.0,0.0,0.0,0.0,0.0,0.0,0.0,0.0,0.0,0.0,0.0,0.0,0.0,0.0,0.0,0.0,0.0,0.0,0.0,0.0,0.0,0.0,0.0,0.0,0.0,0.0,0.0,0.0,0.0,0.0,0.0,0.0,0.0,0.0,0.0,0.0,0.0,0.0,0.0,0.0,0.0,0.0,0.0,0.0,0.0,0.0,0.0,0.0,0.0,0.0,0.0,0.0,0.0,0.0,0.0,0.0,0.0,0.0,0.0,-1.2871,-1.3069,-1.3731,-1.4052,-1.3986,-1.3013,-1.2191,0.0,0.0,0.0,0.0,0.0,0.0,0.0,0.0,0.0,0.0,0.0,0.0,0.0,0.0,0.0,0.0,0.0,0.0,0.0,0.0,0.0,0.0,0.0,0.0,0.0,0.0,0.0,0.0,0.0,0.0,0.0,0.0,0.0,0.0,0.0,0.0,0.0,0.0,0.0,0.0,0.0,0.0,0.0,0.0,0.0,0.0,0.0,0.0,0.0,0.0,0.0,0.0,0.0,0.0,0.0,0.0,0.0,0.0,0.0,0.0,0.0,0.0,0.0,0.0,0.0,0.0,0.0,0.0,0.0,0.0,0.0,0.0,0.0,0.0,0.0,0.0,0.0,0.0,0.0,0.0,0.0,0.0,0.0,0.0,0.0,0.0,0.0,0.0,0.0,0.0,0.0,0.0,0.0,0.0,0.0,0.0,0.0,0.0,0.0,0.0,0.0,0.0,0.0,0.0,0.0,0.0,0.0,0.0,-1.2871,-1.3079,-1.4005,-1.4345,-1.4014,-1.3164,-1.2484,0.0,0.0,0.0,0.0,0.0,0.0,0.0,0.0,0.0,0.0,0.0,0.0,0.0,0.0,0.0,0.0,0.0,0.0,0.0,0.0,0.0,0.0,0.0,0.0,0.0,0.0,0.0,0.0,0.0,0.0,0.0,0.0,0.0,0.0,0.0,0.0,0.0,0.0,0.0,0.0,0.0,0.0,0.0,0.0,0.0,0.0,0.0,0.0,-1.8566,0.0,0.0,0.0,0.0,0.0,0.0,0.0,0.0,0.0,0.0,0.0,0.0,0.0,0.0,0.0,0.0,0.0,0.0,0.0,0.0,0.0,0.0,0.0,0.0,0.0,0.0,0.0,0.0,0.0,0.0,0.0,0.0,0.0,0.0,0.0,0.0,0.0,0.0,0.0,0.0,0.0,0.0,0.0,0.0,0.0,0.0,0.0,0.0,0.0,0.0,0.0,0.0,0.0,0.0,0.0,0.0,0.0,0.0,0.0,-1.3003,-1.324,-1.4241,-1.4629,-1.4298,-1.3377,-1.2702,0.0,0.0,0.0,0.0,0.0,0.0,0.0,0.0,0.0,0.0,0.0,0.0,0.0,0.0,0.0,0.0,0.0,0.0,0.0,0.0,0.0,0.0,0.0,0.0,0.0,0.0,0.0,0.0,0.0,0.0,0.0,0.0,0.0,0.0,0.0,0.0,0.0,0.0,0.0,0.0,0.0,0.0,0.0,0.0,0.0,0.0,0.0,0.0,0.0,0.0,0.0,0.0,0.0,0.0,0.0,0.0,0.0,0.0,0.0,0.0,0.0,0.0,0.0,0.0,0.0,0.0,0.0,0.0,0.0,0.0,0.0,0.0,0.0,0.0,0.0,0.0,0.0,0.0,0.0,0.0,0.0,0.0,0.0,0.0,0.0,0.0,0.0,0.0,0.0,0.0,0.0,0.0,0.0,0.0,0.0,0.0,0.0,0.0,0.0,0.0,0.0,0.0,0.0,0.0,0.0,0.0,0.0,-1.2644,-1.3173,-1.3504,-1.4402,-1.4808,-1.4629,-1.3583,-1.2772,-1.255,0.0,0.0,0.0,0.0,0.0,0.0,0.0,0.0,0.0,0.0,0.0,0.0,0.0,0.0,0.0,0.0,0.0,0.0,0.0,0.0,0.0,0.0,0.0,0.0,0.0,0.0,0.0,0.0,0.0,0.0,0.0,0.0,0.0,0.0,0.0,0.0,0.0,0.0,-1.7723,-1.8159,0.0,0.0,0.0,0.0,0.0,0.0,0.0,0.0,-1.8272,0.0,0.0,0.0,0.0,0.0,0.0,0.0,0.0,0.0,0.0,0.0,0.0,0.0,0.0,0.0,0.0,0.0,0.0,0.0,0.0,0.0,0.0,0.0,0.0,0.0,0.0,0.0,0.0,0.0,0.0,0.0,0.0,0.0,0.0,0.0,0.0,0.0,0.0,0.0,0.0,0.0,0.0,0.0,0.0,0.0,0.0,0.0,0.0,0.0,0.0,0.0,0.0,0.0,0.0,0.0,0.0,-1.2323,-1.2654,-1.3173,-1.3892,-1.4411,-1.4666,-1.461,-1.3825,-1.3258,-1.2947,0.0,0.0,0.0,0.0,0.0,0.0,0.0,0.0,0.0,0.0,0.0,0.0,0.0,0.0,0.0,0.0,0.0,0.0,0.0,0.0,0.0,0.0,0.0,0.0,0.0,0.0,0.0,0.0,0.0,0.0,0.0,0.0,0.0,0.0,0.0,0.0,0.0,0.0,0.0,-1.7934,-1.8087,0.0,0.0,0.0,0.0,0.0,0.0,0.0,0.0,-1.7323,0.0,0.0,0.0,0.0,0.0,0.0,0.0,0.0,0.0,0.0,0.0,0.0,0.0,0.0,0.0,0.0,0.0,0.0,0.0,0.0,0.0,0.0,0.0,0.0,0.0,0.0,0.0,0.0,0.0,0.0,0.0,0.0,0.0,0.0,0.0,0.0,0.0,0.0,0.0,0.0,0.0,0.0,0.0,0.0,0.0,0.0,0.0,0.0,0.0,0.0,0.0,0.0,0.0,0.0,0.0,-1.2578,-1.3032,-1.3599,-1.4317,-1.4733,-1.4846,-1.4629,-1.3704,-1.3124,0.0,0.0,0.0,0.0,0.0,0.0,0.0,0.0,0.0,0.0,0.0,0.0,0.0,0.0,0.0,0.0,0.0,0.0,0.0,0.0,0.0,0.0,0.0,0.0,0.0,0.0,0.0,0.0,0.0,0.0,0.0,0.0,0.0,0.0,0.0,0.0,0.0,0.0,0.0,0.0,-1.7159,-1.7194,-1.6416,0.0,0.0,0.0,0.0,0.0,0.0,-1.7538,-1.7638,0.0,0.0,0.0,0.0,0.0,0.0,0.0,0.0,0.0,0.0,0.0,0.0,0.0,0.0,0.0,0.0,0.0,0.0,0.0,0.0,0.0,0.0,0.0,0.0,0.0,0.0,0.0,0.0,0.0,0.0,0.0,0.0,0.0,0.0,0.0,0.0,0.0,0.0,0.0,0.0,0.0,0.0,0.0,0.0,0.0,0.0,0.0,0.0,0.0,0.0,0.0,0.0,0.0,0.0,0.0,-1.2814,-1.3315,-1.3929,-1.4666,-1.4791,-1.48,-1.4557,-1.3481,-1.2748,0.0,0.0,0.0,0.0,0.0,0.0,0.0,0.0,0.0,0.0,0.0,0.0,0.0,0.0,0.0,0.0,0.0,0.0,0.0,0.0,0.0,0.0,0.0,0.0,0.0,0.0,0.0,0.0,0.0,0.0,0.0,0.0,0.0,0.0,0.0,0.0,0.0,0.0,0.0,0.0,0.0,-1.6495,-1.5354,-1.5836,0.0,0.0,0.0,0.0,-1.733,-1.7406,0.0,0.0,0.0,0.0,0.0,0.0,0.0,0.0,0.0,0.0,0.0,0.0,0.0,0.0,0.0,0.0,0.0,0.0,0.0,0.0,0.0,0.0,0.0,0.0,0.0,0.0,0.0,0.0,0.0,0.0,0.0,0.0,0.0,0.0,0.0,0.0,0.0,0.0,0.0,0.0,0.0,0.0,0.0,0.0,0.0,0.0,0.0,0.0,0.0,0.0,0.0,0.0,0.0,0.0,0.0,0.0,-1.2984,-1.3098,-1.3712,-1.4808,-1.4326,-1.4052,-1.4344,-1.3179,-1.257,0.0,0.0,0.0,0.0,0.0,0.0,0.0,0.0,0.0,0.0,0.0,0.0,0.0,0.0,0.0,0.0,0.0,0.0,0.0,0.0,0.0,0.0,0.0,0.0,0.0,0.0,0.0,0.0,0.0,0.0,0.0,0.0,0.0,0.0,0.0,0.0,0.0,0.0,0.0,0.0,0.0,-1.6639,-1.6091,-1.5771,-1.5692,0.0,0.0,-1.4905,-1.4809,-1.5423,0.0,0.0,0.0,0.0,0.0,0.0,0.0,0.0,0.0,0.0,0.0,0.0,0.0,0.0,0.0,0.0,0.0,0.0,0.0,0.0,0.0,0.0,0.0,0.0,0.0,0.0,0.0,0.0,0.0,0.0,0.0,0.0,0.0,0.0,0.0,0.0,0.0,0.0,0.0,0.0,0.0,0.0,0.0,0.0,0.0,0.0,0.0,0.0,0.0,0.0,0.0,0.0,0.0,0.0,0.0,-1.2028,-1.2689,-1.3184,-1.372,-1.4394,-1.403,-1.3967,-1.4128,-1.2344,-1.1653,0.0,0.0,0.0,0.0,0.0,0.0,0.0,0.0,0.0,0.0,0.0,0.0,0.0,0.0,0.0,0.0,0.0,0.0,0.0,0.0,0.0,0.0,0.0,0.0,0.0,0.0,0.0,0.0,0.0,0.0,0.0,0.0,0.0,0.0,0.0,0.0,0.0,0.0,0.0,0.0,0.0,0.0,-1.5047,-1.4815,0.0,0.0,0.0,-1.4831,-1.5535,0.0,0.0,0.0,0.0,0.0,0.0,0.0,0.0,0.0,0.0,0.0,0.0,0.0,0.0,0.0,0.0,0.0,0.0,0.0,0.0,0.0,0.0,0.0,0.0,0.0,0.0,0.0,0.0,0.0,0.0,0.0,0.0,0.0,0.0,0.0,0.0,0.0,0.0,0.0,0.0,0.0,0.0,0.0,0.0,0.0,0.0,0.0,0.0,0.0,0.0,0.0,0.0,0.0,0.0,0.0,0.0,0.0,-1.2593,-1.2835,-1.3239,-1.3661,-1.2931,-1.2832,-1.3126,-1.0936,0.0,0.0,0.0,0.0,0.0,0.0,0.0,0.0,0.0,0.0,0.0,0.0,0.0,0.0,0.0,0.0,0.0,0.0,0.0,0.0,0.0,0.0,0.0,0.0,0.0,0.0,0.0,-1.3884,0.0,0.0,0.0,0.0,0.0,0.0,0.0,0.0,0.0,0.0,0.0,0.0,0.0,0.0,-1.5351,-1.421,-1.3951,-1.4023,0.0,0.0,-1.4845,-1.5832,-1.5731,-1.5828,0.0,0.0,0.0,0.0,0.0,0.0,0.0,0.0,0.0,0.0,0.0,0.0,0.0,0.0,0.0,0.0,0.0,0.0,0.0,0.0,0.0,0.0,0.0,0.0,0.0,0.0,0.0,0.0,0.0,0.0,0.0,0.0,0.0,0.0,0.0,0.0,0.0,0.0,0.0,0.0,0.0,0.0,0.0,0.0,0.0,0.0,0.0,0.0,0.0,0.0,0.0,0.0,0.0,0.0,0.0,-1.2946,-1.1976,-1.176,-1.2258,-1.0161,-0.9697,-1.112,-0.9026,-0.9137,0.0,0.0,0.0,0.0,0.0,0.0,0.0,0.0,0.0,0.0,0.0,0.0,0.0,0.0,0.0,0.0,0.0,0.0,0.0,0.0,0.0,0.0,0.0,0.0,0.0,0.0,0.0,0.0,0.0,0.0,0.0,0.0,0.0,0.0,0.0,0.0,0.0,0.0,0.0,0.0,0.0,-1.4691,-1.4361,-1.3914,-1.3727,0.0,0.0,-1.407,-1.4211,-1.4747,-1.4862,-1.3808,0.0,0.0,0.0,0.0,0.0,0.0,0.0,0.0,0.0,0.0,0.0,0.0,0.0,0.0,0.0,0.0,0.0,0.0,0.0,0.0,0.0,0.0,0.0,0.0,0.0,0.0,0.0,0.0,0.0,0.0,0.0,0.0,0.0,0.0,0.0,0.0,0.0,0.0,0.0,0.0,0.0,0.0,0.0,0.0,0.0,0.0,0.0,0.0,0.0,0.0,0.0,0.0,0.0,-1.0732,-1.1045,-1.0017,-0.9555,-0.9871,-0.8816,-0.8701,-0.9429,-0.7557,-0.7568,0.0,0.0,0.0,0.0,0.0,0.0,0.0,0.0,0.0,0.0,0.0,0.0,0.0,0.0,0.0,0.0,0.0,0.0,0.0,0.0,0.0,0.0,0.0,0.0,0.0,0.0,0.0,0.0,-1.2371,-1.2443,-1.1915,0.0,0.0,0.0,0.0,0.0,0.0,0.0,0.0,0.0,0.0,-1.4934,-1.4945,-1.4262,0.0,0.0,-1.426,-1.4392,-1.4392,-1.4657,-1.461,-1.3892,-1.4629,0.0,0.0,0.0,0.0,0.0,0.0,0.0,0.0,0.0,0.0,0.0,0.0,0.0,0.0,0.0,0.0,0.0,0.0,0.0,0.0,0.0,0.0,0.0,0.0,0.0,0.0,0.0,0.0,0.0,0.0,0.0,0.0,0.0,0.0,0.0,0.0,0.0,0.0,0.0,0.0,0.0,0.0,0.0,0.0,0.0,0.0,0.0,0.0,0.0,0.0,0.0,0.0,-0.9919,-1.0067,-0.8618,-0.7828,-0.7925,-0.7316,-0.7203,-0.7722,-0.616,-0.6259,0.0,0.0,0.0,0.0,0.0,0.0,0.0,0.0,0.0,0.0,0.0,0.0,0.0,0.0,0.0,0.0,0.0,0.0,0.0,0.0,0.0,0.0,0.0,0.0,0.0,0.0,0.0,0.0,-1.1387,-1.1463,-1.1312,0.0,0.0,0.0,0.0,0.0,0.0,0.0,0.0,0.0,0.0,-1.4738,-1.4738,-1.442,-1.4147,-1.4288,-1.4392,-1.4468,-1.4534,-1.4534,-1.4392,-1.3977,0.0,0.0,0.0,0.0,0.0,0.0,0.0,0.0,0.0,0.0,0.0,0.0,0.0,0.0,0.0,0.0,0.0,0.0,0.0,0.0,0.0,0.0,0.0,0.0,0.0,0.0,0.0,0.0,0.0,0.0,0.0,0.0,0.0,0.0,0.0,0.0,0.0,0.0,0.0,0.0,0.0,0.0,0.0,0.0,0.0,0.0,0.0,0.0,0.0,0.0,0.0,0.0,0.0,-1.013,-1.062,-0.7997,-0.6757,-0.6947,-0.5294,-0.4991,-0.6173,-0.4923,-0.5322,-0.7978,0.0,0.0,0.0,0.0,0.0,0.0,0.0,0.0,0.0,0.0,0.0,0.0,0.0,0.0,0.0,0.0,0.0,0.0,0.0,0.0,0.0,0.0,0.0,0.0,0.0,0.0,-1.1236,-1.1397,-1.152,0.0,0.0,0.0,0.0,0.0,0.0,0.0,0.0,0.0,0.0,-1.3834,-1.3803,-1.3794,-1.4033,-1.4298,-1.4317,-1.4156,-1.4099,-1.4298,-1.4317,-1.4175,0.0,0.0,0.0,0.0,0.0,0.0,0.0,0.0,0.0,0.0,0.0,0.0,0.0,0.0,0.0,0.0,0.0,0.0,0.0,0.0,0.0,0.0,0.0,0.0,0.0,0.0,0.0,0.0,-0.7668,0.0,0.0,0.0,0.0,0.0,0.0,0.0,0.0,0.0,0.0,0.0,-0.7113,-0.6547,0.0,0.0,0.0,0.0,0.0,0.0,0.0,0.0,0.0,0.0,0.0,0.0,-0.8717,-0.8722,-0.625,-0.495,-0.5086,-0.4383,-0.4263,-0.4866,-0.4374,-0.4778,-0.6394,0.0,0.0,0.0,0.0,0.0,0.0,0.0,0.0,0.0,0.0,0.0,0.0,0.0,0.0,0.0,0.0,0.0,0.0,0.0,0.0,0.0,0.0,0.0,0.0,0.0,-1.169,0.0,0.0,0.0,0.0,0.0,0.0,0.0,0.0,0.0,0.0,0.0,-1.295,-1.3177,-1.3365,-1.3542,-1.3674,-1.4043,-1.4364,0.0,0.0,0.0,0.0,0.0,0.0,0.0,0.0,0.0,0.0,0.0,0.0,0.0,0.0,-1.5828,-1.7665,-1.8424,-1.8865,-1.8988,0.0,0.0,0.0,0.0,0.0,0.0,0.0,0.0,0.0,0.0,0.0,0.0,0.0,0.0,0.0,0.0,-0.7461,0.0,0.0,0.0,0.0,0.0,0.0,0.0,0.0,-0.53,-0.5278,-0.5985,-0.5283,-0.5438,0.0,-0.6317,-0.6995,0.0,0.0,0.0,0.0,0.0,0.0,0.0,0.0,-0.7222,-0.7262,-0.5201,-0.4101,-0.421,-0.4161,-0.4177,-0.4275,-0.4142,-0.4425,-0.5129,-0.5758,-0.6426,0.0,0.0,0.0,0.0,0.0,0.0,0.0,0.0,0.0,0.0,0.0,0.0,0.0,0.0,0.0,0.0,0.0,0.0,0.0,0.0,0.0,0.0,0.0,-1.1954,0.0,0.0,0.0,0.0,0.0,0.0,0.0,0.0,0.0,-1.2276,-1.2484,-1.2739,-1.2956,-1.3277,-1.3542,-1.3665,0.0,0.0,0.0,0.0,0.0,0.0,0.0,-1.4175,-1.4043,-1.4557,-1.5117,-1.5509,-1.5346,-1.5415,-1.5613,0.0,0.0,-1.6623,-1.7432,-1.802,-1.825,-1.8237,-1.8327,-1.8725,-1.8349,-1.8139,0.0,0.0,0.0,0.0,0.0,0.0,0.0,0.0,-0.6117,-0.6552,0.0,-0.6645,0.0,0.0,0.0,0.0,0.0,0.0,0.0,0.0,-0.4258,-0.3801,-0.3979,-0.3916,-0.3948,-0.3946,-0.4007,-0.4661,-0.5977,-0.6935,0.0,0.0,0.0,0.0,0.0,0.0,-0.5966,-0.6149,-0.4888,-0.4273,-0.4384,-0.4335,-0.4333,-0.4382,-0.4224,-0.4131,-0.4123,-0.5386,-0.62,-0.6285,-0.8772,0.0,0.0,0.0,0.0,0.0,0.0,0.0,0.0,0.0,0.0,0.0,0.0,0.0,0.0,0.0,0.0,0.0,0.0,0.0,0.0,-1.2162,0.0,0.0,0.0,0.0,0.0,0.0,0.0,0.0,0.0,0.0,-1.255,-1.2833,-1.3154,-1.3353,0.0,0.0,0.0,0.0,-1.4024,-1.4062,-1.4043,-1.4118,-1.4317,-1.4515,-1.4638,-1.4638,0.0,0.0,-1.5734,-1.5187,-1.489,-1.5704,-1.5297,-1.4982,-1.5222,-1.6382,-1.7345,-1.786,-1.8215,-1.8594,-1.8839,-1.7972,-1.7541,-0.3643,0.0,0.0,0.0,0.0,-0.3817,-0.3993,-0.4079,-0.4472,-0.4579,-0.4637,-0.5357,0.0,0.0,0.0,0.0,0.0,0.0,-0.4076,-0.4085,-0.3886,-0.3842,-0.3861,-0.3921,-0.3951,-0.3948,-0.3935,-0.4157,-0.4504,-0.4872,-0.6204,-0.8483,0.0,0.0,0.0,0.0,-0.6056,-0.6123,-0.4917,-0.4253,-0.433,-0.4316,-0.4294,-0.427,-0.4262,-0.4234,-0.4194,-0.4544,-0.5175,-0.6223,-0.7027,0.0,0.0,0.0,0.0,0.0,0.0,0.0,0.0,0.0,0.0,0.0,0.0,0.0,0.0,0.0,0.0,0.0,0.0,0.0,-1.2332,-1.2625,-1.2701,0.0,0.0,0.0,0.0,0.0,0.0,0.0,0.0,0.0,-1.3343,-1.3306,-1.3315,0.0,0.0,-1.3523,-1.3665,-1.3996,-1.4326,-1.4629,0.0,0.0,0.0,-1.4903,-1.4846,-1.4846,-1.5139,-1.5557,-1.5836,-1.5681,-1.5662,-1.5856,-1.5644,-1.5471,-1.5565,-1.5849,-1.6398,-1.7019,-1.7312,-1.7513,-1.7748,-1.7631,-1.7599,-0.3992,-0.3771,-0.363,-0.3583,-0.3608,-0.3643,-0.3719,-0.382,-0.3837,-0.3831,-0.3812,-0.4428,-0.4704,-0.4655,-0.5242,0.0,0.0,0.0,-0.3749,-0.3755,-0.3875,-0.3929,-0.3932,-0.3992,-0.4019,-0.4019,-0.3995,-0.3995,-0.4019,-0.4008,-0.4817,-0.6506,0.0,0.0,-0.7097,-0.5931,-0.5328,-0.5333,-0.4711,-0.4281,-0.4343,-0.4343,-0.4292,-0.4185,-0.4215,-0.4218,-0.4183,-0.418,-0.4595,-0.5433,-0.5933,-0.654,0.0,0.0,0.0,0.0,0.0,0.0,0.0,0.0,0.0,0.0,0.0,-1.2087,-1.1954,0.0,0.0,0.0,-1.254,-1.272,-1.2918,-1.3098,0.0,0.0,0.0,0.0,0.0,0.0,0.0,-1.3277,-1.3589,-1.3844,-1.392,-1.3835,-1.375,-1.3759,-1.3684,-1.374,-1.4024,0.0,-1.4581,-1.4997,-1.5054,-1.512,-1.5328,-1.5262,-1.5205,-1.529,-1.5508,-1.5744,-1.5952,-1.5923,-1.5895,-1.5933,-1.5753,-1.5719,-1.5942,-1.5992,-1.626,-1.6665,-1.7053,-1.7389,-1.7723,-1.7916,-1.8046,-0.4341,-0.4202,-0.3875,-0.376,-0.3796,-0.3793,-0.3886,-0.4036,-0.3986,-0.3992,-0.4033,-0.3918,-0.3864,-0.3858,-0.3807,0.0,0.0,-0.3845,-0.3872,-0.3877,-0.3989,-0.4041,-0.4044,-0.4098,-0.4125,-0.4123,-0.4068,-0.4071,-0.4117,-0.4022,-0.3997,-0.4038,-0.3995,-0.4426,-0.5324,-0.4475,-0.4065,-0.4134,-0.4259,-0.4349,-0.4403,-0.4395,-0.4308,-0.4139,-0.4139,-0.4139,-0.4134,-0.4139,-0.4191,-0.4294,-0.5504,-0.6186,-0.6166,0.0,0.0,0.0,0.0,0.0,0.0,0.0,0.0,0.0,0.0,0.0,0.0,0.0,0.0,0.0,-1.3192,0.0,-1.3693,-1.3551,0.0,0.0,0.0,-1.3523,-1.3721,-1.3759,-1.3835,-1.4014,0.0,0.0,0.0,0.0,-1.4355,-1.4383,-1.4185,-1.4185,-1.46,-1.4666,-1.4827,-1.5233,-1.53,-1.5385,-1.5593,-1.5621,-1.5649,-1.5772,-1.5876,-1.5942,-1.6065,-1.6018,-1.598,-1.6093,-1.5848,-1.5805,-1.6273,-1.6529,-1.6682,-1.6817,-1.7235,-1.7906,-1.8282,-1.8444,-1.8595,-0.4461,-0.4349,-0.4264,-0.4155,-0.4038,-0.3992,-0.4022,-0.4101,-0.409,-0.4093,-0.4095,-0.3981,-0.3905,-0.3861,-0.3891,-0.3905,-0.391,-0.3967,-0.3992,-0.3997,-0.4071,-0.4104,-0.4104,-0.4117,-0.4125,-0.4123,-0.4112,-0.4112,-0.4125,-0.4145,-0.4136,-0.4106,-0.4136,-0.4226,-0.4368,-0.4145,-0.4087,-0.4194,-0.4357,-0.4447,-0.4458,-0.4376,-0.4286,-0.4199,-0.424,-0.4243,-0.4199,-0.424,-0.4278,-0.4305,-0.4545,-0.4747,-0.4643,-0.6549,0.0,0.0,0.0,0.0,0.0,0.0,0.0,0.0,0.0,-1.3022,-1.2862,0.0,-1.3136,0.0,-1.3618,-1.3882,-1.3929,-1.3892,0.0,0.0,-1.3892,-1.3939,-1.4137,-1.4307,-1.4364,-1.4251,-1.4383,-1.4506,-1.4553,-1.4553,-1.4676,-1.495,-1.4563,-1.4392,-1.4799,-1.4997,-1.5233,-1.5621,-1.5829,-1.5971,-1.5999,-1.6037,-1.598,-1.5876,-1.5989,-1.6018,-1.5753,-1.5942,-1.6075,-1.598,-1.6279,-1.6457,-1.6637,-1.7167,-1.7555,-1.7565,-1.7983,-1.8293,-1.8422,-1.8713,-1.895,-0.464,-0.4556,-0.4526,-0.4442,-0.4319,-0.4234,-0.4229,-0.4281,-0.4229,-0.4221,-0.424,-0.412,-0.4036,-0.3981,-0.4011,-0.4025,-0.4033,-0.409,-0.4101,-0.4079,-0.4139,-0.415,-0.4125,-0.4125,-0.4155,-0.4204,-0.4153,-0.418,-0.4275,-0.4213,-0.4188,-0.4204,-0.4213,-0.4196,-0.4158,-0.4128,-0.4174,-0.4297,-0.4395,-0.4444,-0.4442,-0.4354,-0.4264,-0.4183,-0.4207,-0.4199,-0.4139,-0.4166,-0.4199,-0.4226,-0.449,-0.4458,-0.4128,-0.5709,-0.6841,0.0,0.0,0.0,0.0,0.0,0.0,0.0,0.0,0.0,0.0,0.0,-1.3561,0.0,-1.3958,0.0,-1.4147,-1.4147,-1.4185,-1.4279,-1.4288,-1.4374,-1.4563,-1.4695,-1.4723,-1.46,-1.4695,-1.477,-1.477,-1.477,-1.4884,-1.5186,-1.4941,-1.4874,-1.5262,-1.5441,-1.563,-1.5952,-1.6103,-1.6141,-1.6065,-1.6037,-1.5999,-1.5895,-1.5961,-1.598,-1.5867,-1.6018,-1.6141,-1.6037,-1.6244,-1.6461,-1.6452,-1.6875,-1.7298,-1.7449,-1.7814,-1.8301,-1.8595,-1.8896,-1.9101,-0.4815,-0.476,-0.47,-0.4646,-0.4589,-0.448,-0.4452,-0.4474,-0.4373,-0.4357,-0.4392,-0.4286,-0.421,-0.4161,-0.4161,-0.4161,-0.4166,-0.4224,-0.4218,-0.4166,-0.4224,-0.4224,-0.4172,-0.4172,-0.4226,-0.4322,-0.4224,-0.4278,-0.4471,-0.4273,-0.4226,-0.4324,-0.4275,-0.4278,-0.4324,-0.4275,-0.4308,-0.4417,-0.4406,-0.4406,-0.442,-0.4346,-0.4256,-0.4155,-0.4142,-0.4112,-0.406,-0.4057,-0.4087,-0.4145,-0.4668,-0.4665,-0.4147,-0.5238,-0.629,0.0,-0.7691,0.0,0.0,0.0,0.0,0.0,0.0,0.0,0.0,-1.3769,-1.3863,-1.4071,-1.4251,-1.4364,-1.4383,-1.4392,-1.4468,-1.4648,-1.4666,-1.4742,-1.4903,-1.4931,-1.4931,-1.4931,-1.4931,-1.4931,-1.4922,-1.4931,-1.5007,-1.5186,-1.5205,-1.5328,-1.5753,-1.5829,-1.5914,-1.615,-1.6188,-1.6122,-1.598,-1.5923,-1.5914,-1.5876,-1.5867,-1.5914,-1.6037,-1.6103,-1.6131,-1.6131,-1.6291,-1.632,-1.632,-1.6593,-1.6866,-1.7017,-1.7724,-1.8275,-1.8581,-1.8939,-1.9144,-0.4839,-0.4823,-0.4763,-0.473,-0.4714,-0.4643,-0.4564,-0.4482,-0.4458,-0.4431,-0.4398,-0.4373,-0.4357,-0.4346,-0.4346,-0.4346,-0.4349,-0.4406,-0.4401,-0.4349,-0.4406,-0.4425,-0.4414,-0.4414,-0.4428,-0.4447,-0.4425,-0.4439,-0.4482,-0.4439,-0.4428,-0.445,-0.4439,-0.4439,0.0,0.0,0.0,0.0,-0.4447,-0.4444,-0.4531,-0.4387,-0.4297,-0.4273,-0.4224,0.0,-0.4183,-0.4183,-0.421,-0.4267,-0.4406,0.0,0.0,0.0,0.0,0.0,0.0,0.0,0.0,0.0,0.0,0.0,-1.3421,-1.4147,-1.4185,-1.4194,-1.4279,-1.4496,-1.4553,-1.4638,-1.4799,-1.4818,-1.4827,-1.4874,-1.4874,-1.4893,-1.4931,-1.4931,-1.4931,-1.4931,-1.4931,-1.4931,-1.4931,-1.4931,-1.5007,-1.5196,-1.5233,-1.5404,-1.58,-1.5848,-1.5933,-1.6131,-1.616,-1.6169,-1.6131,-1.6093,-1.6018,-1.5914,-1.5857,-1.5819,-1.5744,-1.5838,-1.5923,-1.5942,-1.6336,-1.6593,-1.6593,-1.7157,-1.758,-1.7721,-1.8044,-1.8357,-1.8075,-1.8699,-1.9155,-0.4916,0.0,-0.4858,-0.4828,0.0,-0.4736,-0.4673,-0.4613,-0.4553,-0.4493,-0.4442,-0.4439,-0.4439,-0.4439,-0.4442,-0.4439,-0.4442,-0.4469,-0.4466,-0.4442,-0.4469,-0.4482,-0.4482,-0.4482,-0.4499,-0.4526,-0.4496,-0.4512,-0.4567,-0.4512,-0.4496,-0.4526,-0.4529,-0.4526,-0.4529,-0.4556,-0.4572,-0.4572,-0.4515,-0.4515,-0.4564,-0.4455,-0.4368,-0.4308,0.0,0.0,0.0,0.0,0.0,0.0,0.0,0.0,0.0,0.0,0.0,-0.6114,-0.6588,-0.7222,-0.8178,-0.9723,-1.0777,-1.1493,-1.3448,-1.4572,-1.4477,-1.4563,-1.4666,-1.477,-1.478,-1.4827,-1.4922,-1.4931,-1.4931,-1.4931,-1.4931,-1.4931,-1.4931,-1.4931,-1.4931,-1.4931,-1.4931,-1.4931,-1.4931,-1.4931,-1.5016,-1.5196,-1.5233,-1.5347,-1.564,-1.5715,-1.5763,-1.5867,-1.5971,-1.5989,-1.5904,-1.5971,-1.5952,-1.5772,-1.5715,-1.5715,-1.5706,-1.5791,-1.5886,-1.5989,-1.6253,-1.6452,-1.6452,-1.6744,-1.7157,-1.7298,-1.758,-1.7872,-1.7872,-1.8428,-1.8928,-0.5008,-0.4965,-0.4946,-0.4907,-0.4856,-0.4785,-0.4749,-0.4733,0.0,0.0,0.0,-0.4501,-0.4504,-0.4515,-0.4504,-0.4499,-0.4499,-0.451,-0.4507,-0.4501,-0.4521,-0.4526,-0.4515,-0.4526,-0.4551,-0.4586,-0.4537,-0.4564,-0.4657,-0.4561,-0.454,-0.4586,-0.46,-0.461,-0.4624,-0.466,-0.4657,-0.4608,-0.4583,-0.4578,-0.4586,-0.4521,-0.4442,-0.4357,-0.4324,-0.427,-0.4194,-0.4169,-0.4161,-0.4174,-0.4692,-0.4686,-0.4158,-0.4674,-0.5062,-0.5062,-0.5454,-0.5873,-0.6201,-0.7908,-0.952,-1.0948,-1.3202,-1.4595,-1.4566,-1.4837,-1.4931,-1.4931,-1.4931,-1.4931,-1.4931,-1.4931,-1.4931,-1.4931,-1.4931,-1.4931,-1.4931,-1.4931,-1.4931,-1.4931,-1.4931,-1.4931,-1.4931,-1.4931,-1.4988,-1.513,-1.5167,-1.5233,-1.5413,-1.5517,-1.5583,-1.5611,-1.5763,-1.58,-1.5649,-1.5744,-1.5772,-1.5611,-1.5536,-1.5593,-1.5791,-1.5829,-1.5914,-1.6131,-1.6178,-1.6188,-1.6188,-1.632,-1.632,-1.6593,-1.7017,-1.7449,-1.7882,-1.8301,-1.867,-0.5093,-0.5079,-0.4978,-0.4932,-0.4916,-0.4804,-0.4725,-0.4676,-0.466,-0.4646,-0.4635,-0.4583,-0.4589,-0.4635,-0.4583,-0.4559,-0.4564,-0.4616,-0.461,0.0,-0.4668,-0.4689,-0.4643,-0.4692,-0.4692,-0.4654,-0.464,-0.4646,-0.466,-0.4646,-0.4643,-0.4657,-0.4703,-0.4755,-0.4801,-0.4763,-0.4739,-0.4728,-0.4627,-0.46,-0.4649,-0.4542,-0.4501,-0.4529,-0.4387,-0.4352,-0.4428,-0.4335,-0.4305,-0.4357,-0.4496,-0.447,-0.4286,-0.4675,-0.4812,-0.4812,-0.5478,-0.5882,-0.6027,-0.7621,-0.9745,-1.215,-1.2816,-1.3595,-1.4763,-1.4922,-1.4931,-1.4931,-1.48,-1.4931,-1.4931,-1.4931,-1.4931,-1.4931,-1.4931,-1.4931,-1.4931,-1.4931,-1.4931,-1.4931,-1.4931,-1.4931,-1.4931,-1.4931,-1.4941,-1.4978,-1.5007,-1.5007,-1.5092,-1.5337,-1.5536,-1.5583,-1.5734,-1.5763,-1.5583,-1.5725,-1.5725,-1.5593,-1.5394,-1.5413,-1.58,-1.5725,-1.5772,-1.6122,-1.6178,-1.6188,-1.6178,-1.6452,-1.6593,-1.6734,-1.7298,-1.7861,-1.7861,-1.8195,-1.8541,-0.5112,-0.5101,-0.5019,-0.4981,-0.4976,-0.4888,-0.4801,-0.4717,-0.4714,-0.4695,-0.4665,-0.4668,-0.4687,-0.4711,-0.4719,-0.4722,-0.4722,-0.4749,-0.4749,-0.4728,-0.4779,-0.479,-0.4768,-0.479,-0.4788,-0.4763,-0.4763,-0.4763,-0.4763,-0.4763,-0.4763,-0.4763,-0.479,-0.4818,-0.4842,-0.4818,-0.4804,-0.4804,-0.4717,-0.4684,-0.4711,-0.4692,-0.4662,-0.4624,-0.454,-0.4493,-0.4482,-0.4431,-0.4538,-0.4669,-0.4535,-0.4507,-0.458,-0.4574,-0.4574,-0.4574,-0.5245,-0.5647,-0.5647,-0.7507,-0.9105,-1.0432,-1.1358,-1.2157,-1.2816,-1.2947,-1.3218,-1.3875,-1.4006,-1.4268,-1.48,-1.4931,-1.4931,-1.4931,-1.4931,-1.4931,-1.4931,-1.4931,-1.4931,-1.4931,-1.4931,-1.4931,-1.4931,-1.4931,-1.4931,-1.4931,-1.4931,-1.4931,-1.4931,-1.5092,-1.5224,-1.5233,-1.5385,-1.5413,-1.5281,-1.5385,-1.546,-1.5385,-1.5205,-1.5309,-1.5715,-1.5697,-1.5763,-1.6084,-1.6188,-1.6188,-1.6178,-1.6452,-1.6734,-1.7017,-1.7439,-1.7861,-1.8142,-1.8293,-1.8476,-0.5142,-0.5147,-0.5071,-0.5033,-0.5016,-0.4959,-0.4875,-0.4779,-0.4774,-0.4749,-0.4714,-0.4741,-0.4763,-0.4779,-0.4826,-0.4845,-0.4848,-0.4848,-0.4845,-0.4848,-0.4861,-0.4858,-0.4848,-0.4858,-0.4858,-0.4848,-0.4848,-0.4848,-0.4848,-0.4848,-0.4853,-0.4864,-0.4867,-0.4872,-0.4886,-0.4872,-0.4867,-0.4864,-0.482,-0.4788,-0.4777,-0.4809,-0.4779,-0.4692,-0.4657,-0.4605,-0.4529,-0.451,-0.4622,-0.4854,-0.456,-0.4527,-0.4735,-0.4583,-0.4442,-0.444,-0.5245,-0.5647,-0.5781,-0.7512,-0.8573,-0.8573,-0.9902,-1.0704,-1.0836,-1.0571,-1.1358,-1.2947,-1.335,-1.3744,-1.467,-1.4931,-1.4931,-1.4931,-1.4931,-1.4931,-1.4931,-1.4931,-1.4931,-1.4931,-1.4931,-1.4931,-1.4931,-1.4931,-1.4931,-1.4931,-1.4931,-1.4931,-1.4931,-1.4931,-1.4931,-1.4969,-1.5101,-1.5158,-1.4988,-1.5177,-1.529,-1.5252,-1.5167,-1.5356,-1.5697,-1.5725,-1.5782,-1.6084,-1.6131,-1.6093,-1.6103,-1.6234,-1.6506,-1.6787,-1.7248,-1.7861,-1.8293,-1.8433,-1.8433,-0.5226,-0.5256,-0.515,-0.5071,-0.5019,-0.4962,-0.4902,-0.4842,-0.4837,-0.4834,-0.4826,-0.4777,-0.479,-0.4834,-0.4845,-0.4853,-0.485,-0.4848,-0.485,-0.4856,-0.4902,-0.4899,-0.4861,-0.4905,-0.4899,-0.4858,-0.4856,-0.4867,-0.4867,-0.4858,-0.4877,-0.4921,-0.4929,-0.4957,-0.4992,-0.4954,-0.4929,-0.4929,-0.4924,-0.4894,-0.4837,-0.4788,-0.4758,-0.4747,-0.4643,-0.4605,-0.4643,-0.4594,-0.4564,-0.4553,-0.4501,-0.4447,-0.4529,-0.5011,-0.5111,-0.4842,-0.5781,-0.6451,-0.6451,-0.7779,-0.8573,-0.8573,-0.8978,-0.9383,-0.9643,-0.8984,-0.9782,-1.2421,-1.3218,-1.3744,-1.467,-1.4931,-1.4931,-1.4931,-1.4931,-1.4931,-1.4931,-1.4931,-1.4931,-1.4931,-1.4931,-1.4931,-1.4931,-1.4931,-1.4931,-1.4931,-1.4931,-1.4931,-1.4931,-1.4931,-1.4931,-1.4959,-1.5101,-1.512,-1.5016,-1.5271,-1.5375,-1.529,-1.5385,-1.5583,-1.5782,-1.5876,-1.5914,-1.6084,-1.6027,-1.5933,-1.5914,-1.6025,-1.6044,-1.638,-1.6897,-1.759,-1.8153,-1.8433,-1.8293,-0.527,-0.5286,-0.5202,-0.5131,-0.5074,-0.5049,-0.4986,-0.4902,-0.4899,-0.4918,-0.4946,-0.4924,-0.4907,-0.4902,-0.4935,-0.4948,-0.4948,-0.4948,-0.4951,-0.4951,-0.4976,-0.4973,-0.4957,-0.5014,-0.5025,-0.5008,-0.5038,-0.5055,-0.5057,-0.5055,-0.5052,-0.5041,-0.5041,-0.5052,-0.5068,-0.5016,-0.5019,-0.509,-0.5022,-0.4992,-0.4995,-0.4943,-0.4897,-0.4861,-0.4812,-0.4779,-0.4766,-0.4711,-0.481,-0.4915,-0.482,-0.4875,-0.5087,-0.5288,-0.5379,-0.5245,-0.5781,-0.6317,-0.6455,-0.7116,-0.7383,-0.7383,-0.7789,-0.8189,-0.8451,-0.8984,-1.0306,-1.1894,-1.2421,-1.3087,-1.4539,-1.4931,-1.4931,-1.4931,-1.4931,-1.4931,-1.4931,-1.4931,-1.4931,-1.4931,-1.4931,-1.4931,-1.4931,-1.4931,-1.4931,-1.4931,-1.4931,-1.4931,-1.4931,-1.4931,-1.4931,-1.4941,-1.5007,-1.5016,-1.4969,-1.5167,-1.5347,-1.5432,-1.5498,-1.5649,-1.5942,-1.5923,-1.5933,-1.6141,-1.5961,-1.5848,-1.5867,-1.6144,-1.6144,-1.6322,-1.6718,-1.7449,-1.8012,-1.8142,-1.8142,-0.5303,-0.5308,-0.5254,-0.5202,-0.5158,-0.5125,-0.5063,-0.4986,-0.4967,-0.4992,-0.5044,-0.5046,-0.5033,-0.5016,-0.5052,-0.5071,-0.5071,-0.5071,-0.5071,-0.5071,-0.5071,-0.5071,-0.5076,-0.5115,-0.5128,-0.5123,-0.5169,-0.5199,-0.5202,-0.5202,-0.518,-0.5142,-0.5136,-0.5136,-0.5131,-0.509,-0.5112,-0.5183,-0.5098,-0.5074,-0.5115,-0.506,-0.4995,-0.494,-0.4921,-0.4891,-0.4848,-0.4788,-0.4884,-0.5131,-0.5003,-0.5051,-0.5279,-0.5211,-0.5434,-0.5545,-0.5792,-0.6049,-0.6455,-0.6455,-0.6585,-0.6723,-0.7125,-0.7526,-0.7922,-0.925,-1.0571,-1.163,-1.2025,-1.3079,-1.4539,-1.4931,-1.4931,-1.4931,-1.4931,-1.4931,-1.4931,-1.4931,-1.4931,-1.4931,-1.4931,-1.4931,-1.4931,-1.4931,-1.4931,-1.4931,-1.4931,-1.4931,-1.4931,-1.4931,-1.4931,-1.4931,-1.4931,-1.4941,-1.495,-1.5186,-1.5375,-1.5526,-1.563,-1.5867,-1.6112,-1.598,-1.5867,-1.5999,-1.5838,-1.5697,-1.5611,-1.5923,-1.6205,-1.6431,-1.6867,-1.7439,-1.7861,-1.8002,-1.8142,-0.5327,-0.5368,-0.5313,-0.5283,-0.5275,-0.5166,-0.5112,-0.5093,-0.5044,-0.5052,-0.5109,-0.5112,-0.5139,-0.5188,-0.5194,-0.5194,-0.5191,-0.5185,-0.5183,-0.5183,-0.5185,-0.5191,-0.5194,-0.5196,-0.5169,-0.5136,-0.5191,-0.5215,-0.5213,-0.5207,-0.5202,-0.5199,-0.5199,-0.5199,-0.5196,-0.5188,-0.5196,-0.5204,-0.5145,-0.5136,-0.5177,-0.5085,-0.5003,-0.4948,-0.4886,-0.4861,-0.4845,-0.479,-0.4755,-0.4752,-0.478,-0.4709,-0.4701,-0.4926,-0.5414,-0.5902,-0.596,-0.6053,-0.646,-0.6468,-0.6594,-0.6991,-0.7273,-0.7665,-0.8076,-0.9546,-1.0744,-1.1776,-1.2732,-1.3787,-1.4707,-1.4959,-1.4941,-1.4931,-1.4931,-1.4931,-1.4931,-1.4931,-1.4931,-1.4931,-1.4931,-1.4931,-1.4931,-1.4931,-1.4931,-1.4931,-1.4931,-1.4941,-1.4959,-1.495,-1.4959,-1.4978,-1.4978,-1.4941,-1.4978,-1.5186,-1.5441,-1.5602,-1.5791,-1.6103,-1.6075,-1.6027,-1.5942,-1.581,-1.5602,-1.5432,-1.5309,-1.55,-1.5827,-1.6284,-1.6857,-1.7419,-1.7861,-1.8142,-1.8293,-0.5363,-0.5382,-0.536,-0.533,-0.5289,-0.5245,-0.5207,-0.5169,-0.5147,-0.5172,-0.5221,-0.5229,-0.5262,-0.5319,-0.5319,-0.5275,-0.5207,-0.5202,-0.5202,-0.5202,-0.5202,-0.5202,-0.5207,-0.524,-0.5251,-0.524,-0.5289,-0.5319,-0.5319,-0.5319,-0.53,-0.5264,-0.5259,-0.5262,-0.5254,-0.5221,-0.5237,-0.53,-0.5221,-0.5199,-0.5248,-0.518,-0.5109,-0.5049,-0.4989,-0.4957,-0.4957,-0.4902,-0.4853,-0.4815,-0.4844,-0.5045,-0.5285,-0.5785,-0.6155,-0.6403,-0.6367,-0.6465,-0.6558,-0.6598,-0.6574,-0.674,-0.7378,-0.7688,-0.8188,-0.998,-1.1668,-1.2338,-1.3831,-1.4925,-1.5147,-1.5101,-1.4931,-1.4931,-1.4941,-1.495,-1.4931,-1.4931,-1.4931,-1.4931,-1.4931,-1.4931,-1.4959,-1.4941,-1.4931,-1.4931,-1.4941,-1.4997,-1.5092,-1.512,-1.5167,-1.529,-1.5328,-1.5328,-1.5337,-1.53,-1.5394,-1.5574,-1.5782,-1.5999,-1.6065,-1.598,-1.5895,-1.5848,-1.5574,-1.5394,-1.5356,-1.5702,-1.5982,-1.6314,-1.6867,-1.7419,-1.7861,-1.8174,-1.8314,-0.5384,-0.5384,-0.5384,-0.5363,-0.5322,-0.5303,-0.527,-0.5232,-0.521,-0.5237,-0.5286,-0.5294,-0.5327,-0.5376,-0.5384,-0.5343,-0.5267,-0.5262,-0.5262,-0.5262,-0.5262,-0.5262,-0.5267,-0.5305,-0.5313,-0.53,-0.5335,-0.5365,-0.5382,-0.5384,-0.5363,-0.5324,-0.5324,-0.5324,-0.5316,-0.5281,-0.5308,-0.5352,-0.5283,-0.5262,-0.5305,-0.5224,-0.5166,-0.5134,-0.5063,-0.5022,-0.5019,-0.4967,-0.4918,-0.4869,-0.4926,-0.5281,-0.5643,-0.6005,-0.6375,-0.6493,-0.6597,-0.6561,-0.6651,-0.6692,-0.681,-0.6966,-0.747,-0.7798,-0.8285,-1.0679,-1.2101,-1.2803,-1.4318,-1.5564,-1.5508,-1.53,-1.5139,-1.513,-1.5139,-1.5139,-1.5139,-1.5139,-1.5148,-1.5158,-1.5167,-1.5148,-1.513,-1.5139,-1.5148,-1.513,-1.5139,-1.5205,-1.53,-1.5347,-1.5375,-1.5526,-1.5536,-1.5526,-1.5508,-1.5451,-1.5526,-1.5697,-1.5829,-1.5999,-1.6056,-1.5952,-1.5867,-1.5829,-1.5706,-1.5662,-1.5615,-1.5953,-1.6226,-1.653,-1.7127,-1.771,-1.7892,-1.8096,-1.8227,-0.5387,-0.5384,-0.5384,-0.5382,-0.5371,-0.5324,-0.5297,-0.5286,-0.5237,-0.5254,-0.5303,-0.53,-0.5335,-0.5376,-0.5384,-0.5379,-0.5368,-0.5365,-0.5365,-0.5365,-0.5376,-0.5373,-0.5368,-0.5371,-0.5349,-0.5305,-0.53,-0.533,-0.5382,-0.5384,-0.5382,-0.5382,-0.5376,-0.5373,-0.5382,-0.5371,-0.5376,-0.5371,-0.5322,-0.5324,-0.5354,-0.5226,-0.5164,-0.518,-0.5093,-0.5036,-0.5027,-0.4973,-0.494,-0.4927,-0.4875,-0.4965,-0.5333,-0.5411,-0.5647,-0.629,-0.6215,-0.6457,-0.6589,-0.6741,-0.703,-0.7395,-0.7697,-0.8139,-0.8815,-1.0902,-1.2298,-1.2589,-1.4242,-1.5611,-1.564,-1.5611,-1.5564,-1.5545,-1.5489,-1.5489,-1.5508,-1.5545,-1.5555,-1.5517,-1.5498,-1.5545,-1.5545,-1.5489,-1.547,-1.5479,-1.5479,-1.5498,-1.5545,-1.5555,-1.5564,-1.5621,-1.5725,-1.581,-1.5697,-1.5593,-1.5725,-1.5857,-1.5971,-1.6093,-1.6084,-1.6008,-1.5895,-1.5829,-1.5697,-1.5662,-1.5748,-1.6089,-1.6432,-1.6867,-1.7446,-1.7861,-1.8033,-1.8216,-1.8421,-0.5422,-0.5387,-0.5384,-0.5384,-0.5382,-0.5363,-0.5357,-0.5354,-0.5335,-0.5338,-0.5354,-0.5357,-0.5365,-0.5379,-0.5384,-0.5384,-0.5384,-0.5384,-0.5384,-0.5392,-0.5425,-0.542,-0.539,-0.5384,-0.5376,-0.536,-0.5357,-0.5365,-0.5382,-0.5384,-0.5384,-0.5384,-0.5384,-0.5384,-0.5384,-0.5384,-0.5384,-0.5382,-0.5365,-0.5368,-0.5382,-0.533,-0.527,-0.5204,-0.5164,-0.5128,-0.5085,-0.5027,-0.4978,-0.4943,-0.4918,-0.5013,-0.536,-0.5723,-0.6112,-0.6376,-0.6637,-0.6733,-0.6831,-0.6868,-0.6998,-0.7204,-0.7686,-0.8002,-0.853,-1.0838,-1.244,-1.273,-1.4578,-1.6027,-1.616,-1.6197,-1.6018,-1.5611,-1.5564,-1.5611,-1.564,-1.5602,-1.5564,-1.5564,-1.5564,-1.5564,-1.5574,-1.5593,-1.563,-1.5611,-1.5602,-1.564,-1.5744,-1.5791,-1.5914,-1.6122,-1.616,-1.6178,-1.6178,-1.616,-1.6226,-1.6207,-1.6216,-1.6254,-1.6216,-1.616,-1.6027,-1.5923,-1.5772,-1.5862,-1.6067,-1.6273,-1.6658,-1.7096,-1.7518,-1.7861,-1.8153,-1.84,-1.8407,-0.542,-0.5384,-0.5384,-0.5384,-0.5384,-0.5384,-0.5384,-0.5384,-0.5384,-0.5384,-0.5384,-0.5384,-0.5384,-0.5384,-0.5384,-0.5384,-0.5387,-0.5406,-0.5406,-0.539,-0.542,-0.542,-0.5387,-0.5384,-0.5384,-0.5384,-0.5384,-0.5384,-0.5384,-0.5384,-0.5384,-0.5384,-0.5384,-0.5384,-0.5384,-0.5384,-0.5384,-0.5384,-0.5384,-0.5384,-0.5379,-0.5363,-0.5313,-0.5245,-0.5215,-0.5185,-0.5142,-0.5085,-0.5038,-0.5006,-0.5139,-0.537,-0.5843,-0.6234,-0.6477,-0.672,-0.6873,-0.7011,-0.697,-0.7039,-0.7198,-0.7255,-0.7579,-0.8033,-0.8564,-1.063,-1.1963,-1.2835,-1.4483,-1.602,-1.6421,-1.6594,-1.6405,-1.6084,-1.6056,-1.6027,-1.6027,-1.6027,-1.6037,-1.6075,-1.6056,-1.6018,-1.6018,-1.6027,-1.598,-1.5933,-1.5904,-1.5923,-1.6056,-1.6093,-1.6311,-1.649,-1.6538,-1.6604,-1.6727,-1.6745,-1.6755,-1.6623,-1.649,-1.649,-1.6471,-1.6443,-1.6358,-1.6358,-1.6254,-1.6406,-1.6606,-1.6719,-1.7053,-1.7298,-1.7551,-1.7826,-1.8104,-1.8331,-1.8435,-0.539,-0.5384,-0.5384,-0.5384,-0.5384,-0.5384,-0.5384,-0.5384,-0.5384,-0.5384,-0.5384,-0.5384,-0.5384,-0.5384,-0.5384,-0.5384,-0.5392,-0.5431,-0.5428,-0.5395,-0.5392,-0.5387,-0.5384,-0.5384,-0.5384,-0.5384,-0.5384,-0.5384,-0.5384,-0.5384,-0.5384,-0.5384,-0.5384,-0.5384,-0.5384,-0.5384,-0.5384,-0.5384,-0.5384,-0.5384,-0.5382,-0.5335,-0.53,-0.5286,-0.524,-0.5213,-0.5202,-0.5158,-0.512,-0.5098,-0.5347,-0.5726,-0.6236,-0.6506,-0.6571,-0.6751,-0.6945,-0.7125,-0.715,-0.7186,-0.7369,-0.748,-0.7734,-0.786,-0.8426,-0.9753,-1.1244,-1.2422,-1.3992,-1.5432,-1.6499,-1.6821,-1.6793,-1.6831,-1.6698,-1.6679,-1.6764,-1.6736,-1.6651,-1.6689,-1.6783,-1.6774,-1.6679,-1.6689,-1.6613,-1.6509,-1.6434,-1.6434,-1.6453,-1.6471,-1.6594,-1.6708,-1.6812,-1.6906,-1.6991,-1.7029,-1.7029,-1.6991,-1.6831,-1.6764,-1.6698,-1.6651,-1.6632,-1.6651,-1.6689,-1.7029,-1.701,-1.7068,-1.7194,-1.7474,-1.7669,-1.7799,-1.7976,-1.8132,-1.8193,-0.5425,-0.5384,-0.5384,-0.5384,-0.5384,-0.5384,-0.5384,-0.5384,-0.5384,-0.5384,-0.5384,-0.5384,-0.5384,-0.5384,-0.5384,-0.5384,-0.539,-0.5403,-0.5403,-0.5387,-0.5384,-0.5384,-0.5384,-0.5384,-0.5384,-0.5384,-0.5384,-0.5384,-0.5384,-0.5384,-0.5384,-0.5384,-0.5384,-0.5384,-0.5384,-0.5384,-0.5384,-0.5384,-0.5384,-0.5384,-0.5382,-0.5371,-0.5338,-0.5294,-0.5278,-0.5273,-0.527,-0.5256,-0.5175,-0.5052,-0.4989,-0.5106,-0.5526,-0.5939,-0.6341,-0.6455,-0.6907,-0.7227,-0.7231,-0.7256,-0.7385,-0.7323,-0.766,-0.7792,-0.7869,-0.926,-1.0928,-1.243,-1.3808,-1.5075,-1.6536,-1.688,-1.6936,-1.719,-1.701,-1.684,-1.6831,-1.6802,-1.6802,-1.6802,-1.6821,-1.6831,-1.684,-1.6831,-1.6802,-1.6745,-1.6717,-1.6717,-1.6717,-1.6727,-1.6793,-1.6934,-1.7048,-1.7133,-1.7218,-1.7256,-1.7284,-1.7303,-1.7199,-1.7067,-1.6944,-1.6802,-1.6774,-1.6774,-1.6849,-1.7045,-1.6987,-1.6902,-1.7243,-1.7635,-1.7605,-1.7635,-1.7869,-1.8006,-1.8127,-0.5417,-0.5384,-0.5384,-0.5384,-0.5384,-0.5384,-0.5384,-0.5384,-0.5384,-0.5384,-0.5384,-0.5384,-0.5384,-0.5384,-0.5384,-0.5384,-0.5387,-0.5412,-0.5422,-0.5422,-0.5425,-0.5412,-0.5398,-0.5406,-0.5409,-0.5384,-0.5384,-0.5384,-0.5384,-0.5384,-0.5384,-0.5384,-0.5384,-0.5384,-0.5384,-0.5384,-0.5384,-0.5384,-0.5384,-0.5384,-0.5384,-0.5384,-0.5368,-0.5343,-0.5352,-0.5371,-0.5365,-0.5322,-0.5218,-0.5254,-0.5367,-0.5341,-0.5438,-0.6022,-0.6441,-0.6412,-0.7013,-0.7317,-0.7325,-0.735,-0.735,-0.7305,-0.7473,-0.7587,-0.7707,-0.8644,-0.9882,-1.1227,-1.2326,-1.3468,-1.4908,-1.5707,-1.6527,-1.7198,-1.7209,-1.7067,-1.7067,-1.7086,-1.7067,-1.7067,-1.7067,-1.7067,-1.7057,-1.7057,-1.701,-1.6953,-1.6925,-1.6925,-1.6925,-1.6934,-1.6982,-1.7123,-1.7218,-1.7284,-1.7312,-1.7341,-1.736,-1.7388,-1.7379,-1.7275,-1.718,-1.7001,-1.7038,-1.7048,-1.7057,-1.7048,-1.702,-1.702,-1.7254,-1.7442,-1.7365,-1.7485,-1.7624,-1.7862,-1.7971,-0.5384,-0.5384,-0.5384,-0.5384,-0.5384,-0.5384,-0.5384,-0.5384,-0.5384,-0.5384,-0.5384,-0.5384,-0.5384,-0.5384,-0.5384,-0.5384,-0.5387,-0.5442,-0.5466,-0.5472,-0.5472,-0.5455,-0.5392,-0.5425,-0.542,-0.539,-0.5384,-0.5384,-0.5384,-0.5384,-0.5384,-0.5384,-0.5384,-0.5384,-0.5384,-0.5384,-0.5384,-0.5387,-0.5401,-0.5403,-0.5406,-0.5406,-0.5401,-0.5401,-0.5414,-0.5433,-0.5417,-0.536,-0.5415,-0.562,-0.5668,-0.5777,-0.6155,-0.6616,-0.6733,-0.6836,-0.7138,-0.7448,-0.7427,-0.7493,-0.7533,-0.7497,-0.7439,-0.7411,-0.7552,-0.8017,-0.8784,-1.0151,-1.0252,-1.1664,-1.3223,-1.4314,-1.5701,-1.695,-1.7398,-1.7416,-1.7426,-1.7426,-1.7426,-1.7426,-1.7416,-1.7426,-1.7426,-1.7407,-1.735,-1.7161,-1.7142,-1.7142,-1.7142,-1.7152,-1.7209,-1.7322,-1.7379,-1.7398,-1.7407,-1.7416,-1.7407,-1.7416,-1.7416,-1.7369,-1.7369,-1.7294,-1.735,-1.736,-1.7265,-1.7256,-1.7303,-1.7341,-1.736,-1.735,-1.7407,-1.7473,-1.7379,-1.7728,-1.7898,-0.5384,-0.5384,-0.5384,-0.5384,-0.5384,-0.5384,-0.5384,-0.5384,-0.5384,-0.5384,-0.5384,-0.5384,-0.5384,-0.5384,-0.5384,-0.5384,-0.5392,-0.5444,-0.5477,-0.5482,-0.5523,-0.5477,-0.5409,-0.5406,-0.5398,-0.5384,-0.5384,-0.5384,-0.5384,-0.5384,-0.5384,-0.5384,-0.5384,-0.5384,-0.5387,-0.5392,-0.5384,-0.5392,-0.5431,-0.5455,-0.5455,-0.5452,-0.545,-0.545,-0.5422,-0.5409,-0.5403,-0.5379,-0.533,-0.5431,-0.5387,-0.5523,-0.5972,-0.6448,-0.673,-0.7005,-0.7342,-0.764,-0.7558,-0.7627,-0.7672,-0.7562,-0.7578,-0.7574,-0.7501,-0.7505,-0.843,-0.9506,-1.0147,-1.1268,-1.3575,-1.4645,-1.5735,-1.6986,-1.7445,-1.7445,-1.7435,-1.7435,-1.7445,-1.7435,-1.7435,-1.7426,-1.7426,-1.7426,-1.7388,-1.735,-1.735,-1.735,-1.7341,-1.7331,-1.7369,-1.7426,-1.7426,-1.7426,-1.7426,-1.7426,-1.7426,-1.7426,-1.7426,-1.7426,-1.7426,-1.7426,-1.7426,-1.7426,-1.7407,-1.7426,-1.7426,-1.7426,-1.755,-1.7416,-1.7426,-1.7578,-1.7731,-1.7731,-1.7883,-0.5384,-0.5384,-0.5384,-0.5384,-0.5384,-0.5384,-0.5384,-0.5384,-0.5384,-0.5384,-0.5384,-0.5384,-0.5384,-0.5384,-0.5384,-0.5384,-0.5398,-0.5447,-0.5491,-0.5507,-0.5523,-0.5482,-0.5436,-0.5398,-0.5384,-0.5384,-0.5384,-0.5384,-0.5384,-0.5384,-0.5384,-0.5384,-0.5387,-0.5406,-0.5422,-0.5428,-0.5447,-0.5472,-0.5496,-0.5515,-0.5515,-0.5488,-0.5477,-0.5463,-0.5425,-0.5414,-0.5504,-0.5422,-0.5422,-0.5417,-0.5352,-0.5437,-0.5906,-0.639,-0.6693,-0.7162,-0.7455,-0.777,-0.7709,-0.7729,-0.7754,-0.7664,-0.7701,-0.7693,-0.7664,-0.7656,-0.7969,-0.8758,-0.9228,-1.0313,-1.3368,-1.4764,-1.5855,-1.7097,-1.7568,-1.7605,-1.7672,-1.7634,-1.7568,-1.7568,-1.7577,-1.7577,-1.7558,-1.7501,-1.7426,-1.7398,-1.7388,-1.7388,-1.7398,-1.7379,-1.7388,-1.7426,-1.7426,-1.7426,-1.7426,-1.7426,-1.7426,-1.7426,-1.7426,-1.7426,-1.7426,-1.7426,-1.7426,-1.7426,-1.7426,-1.7578,-1.7578,-1.7578,-1.7731,-1.8035,-1.8035,-1.8035,-1.8035,-1.8187,-1.8339,-0.5384,-0.5384,-0.5384,-0.5384,-0.5384,-0.5384,-0.5384,-0.5384,-0.5384,-0.5384,-0.5384,-0.5384,-0.5384,-0.5384,-0.5384,-0.5387,-0.5409,-0.5431,-0.5477,-0.5542,-0.5501,-0.548,-0.5455,-0.5428,-0.5398,-0.5387,-0.5384,-0.5384,-0.5387,-0.5395,-0.5409,-0.5403,-0.5414,-0.5447,-0.548,-0.5491,-0.5504,-0.554,-0.5561,-0.5572,-0.557,-0.5534,-0.5515,-0.5485,-0.5461,-0.5482,-0.5551,-0.5507,-0.548,-0.5613,-0.5491,-0.5735,-0.6013,-0.6317,-0.679,-0.7278,-0.7569,-0.7693,-0.7799,-0.7819,-0.7848,-0.7827,-0.7819,-0.7819,-0.7811,-0.7787,-0.7931,-0.7936,-0.825,-0.9342,-1.2272,-1.384,-1.5573,-1.7144,-1.7776,-1.7861,-1.7965,-1.7898,-1.7851,-1.7776,-1.7776,-1.7766,-1.7681,-1.7596,-1.7511,-1.7435,-1.7435,-1.7426,-1.7435,-1.7435,-1.7435,-1.7426,-1.7426,-1.7426,-1.7426,-1.7426,-1.7426,-1.7426,-1.7426,-1.7426,-1.7426,-1.7578,-1.7578,-1.7578,-1.7578,-1.7731,-1.7883,-1.8035,-1.8187,-1.8491,-1.8491,-1.8339,-1.8339,-1.8643,-1.8663,-0.5384,-0.5384,-0.5384,-0.5384,-0.5384,-0.5384,-0.5384,-0.5384,-0.5384,-0.5384,-0.5384,-0.5384,-0.5384,-0.5384,-0.5384,-0.5412,-0.5439,-0.5442,-0.5469,-0.5537,-0.5507,-0.5482,-0.548,-0.5469,-0.5436,-0.5395,-0.5392,-0.5401,-0.5403,-0.5431,-0.5458,-0.5469,-0.5499,-0.5531,-0.554,-0.5548,-0.5553,-0.5586,-0.5616,-0.5635,-0.563,-0.5613,-0.5578,-0.5545,-0.5515,-0.5542,-0.5564,-0.5553,-0.5548,-0.557,-0.5545,-0.5871,-0.6013,-0.6145,-0.6579,-0.7183,-0.7547,-0.7682,-0.7889,-0.7938,-0.7958,-0.7934,-0.7913,-0.7913,-0.7897,-0.7852,-0.784,-0.7819,-0.8139,-0.9244,-1.2416,-1.3525,-1.4963,-1.6871,-1.7993,-1.8021,-1.8087,-1.8154,-1.8154,-1.8059,-1.8012,-1.7946,-1.7861,-1.7728,-1.7596,-1.753,-1.7501,-1.7492,-1.7492,-1.7473,-1.7464,-1.7445,-1.7426,-1.7426,-1.7426,-1.7426,-1.7426,-1.7426,-1.7426,-1.7426,-1.7569,-1.7721,-1.7873,-1.8035,-1.8035,-1.8187,-1.8339,-1.8491,-1.8643,-1.8795,-1.8795,-1.8653,-1.8815,-1.9129,-1.9233,-0.5384,-0.5384,-0.5384,-0.5384,-0.5384,-0.5384,-0.5384,-0.5384,-0.5384,-0.5384,-0.5384,-0.5384,-0.5384,-0.5384,-0.5384,-0.542,-0.5452,-0.545,-0.5482,-0.554,-0.5531,-0.5518,-0.5518,-0.5518,-0.5504,-0.5482,-0.5477,-0.5455,-0.5442,-0.5491,-0.5515,-0.5523,-0.5548,-0.5572,-0.56,-0.5608,-0.5624,-0.5649,-0.5679,-0.5695,-0.5689,-0.567,-0.5621,-0.5578,-0.5567,-0.5575,-0.56,-0.557,-0.5594,-0.563,-0.5594,-0.5757,-0.5937,-0.6097,-0.6385,-0.7159,-0.7503,-0.7654,-0.7853,-0.806,-0.8032,-0.8011,-0.7999,-0.7999,-0.7991,-0.7966,-0.7929,-0.8094,-0.9076,-1.0198,-1.2728,-1.3689,-1.5618,-1.7394,-1.821,-1.8258,-1.8352,-1.8456,-1.8418,-1.8333,-1.8258,-1.8172,-1.8078,-1.7927,-1.7719,-1.7624,-1.7587,-1.7577,-1.7577,-1.7587,-1.7587,-1.7568,-1.7558,-1.752,-1.7511,-1.7483,-1.7483,-1.7464,-1.7607,-1.7607,-1.774,-1.8045,-1.8339,-1.8633,-1.8643,-1.8643,-1.8643,-1.8946,-1.9098,-1.9249,-1.926,-1.9281,-1.9443,-1.9485,-1.9632,-0.5384,-0.5384,-0.5384,-0.5384,-0.5384,-0.5384,-0.5384,-0.5384,-0.5384,-0.5384,-0.5384,-0.5384,-0.5384,-0.5384,-0.539,-0.5417,-0.5472,-0.5474,-0.5512,-0.557,-0.5561,-0.5559,-0.5575,-0.5564,-0.5551,-0.5542,-0.5567,-0.5548,-0.5512,-0.5551,-0.5572,-0.5586,-0.5586,-0.5616,-0.566,-0.5668,-0.5706,-0.5722,-0.5741,-0.5741,-0.5728,-0.5692,-0.5649,-0.5602,-0.5594,-0.5624,-0.566,-0.5635,-0.5654,-0.5681,-0.5662,-0.5621,-0.566,-0.5668,-0.6174,-0.7171,-0.7439,-0.7742,-0.8033,-0.8138,-0.8113,-0.813,-0.8081,-0.8072,-0.8076,-0.806,-0.8048,-0.8395,-0.9049,-1.0837,-1.2716,-1.4334,-1.6129,-1.7925,-1.8428,-1.8465,-1.8569,-1.8636,-1.8617,-1.855,-1.8484,-1.838,-1.8258,-1.8163,-1.7965,-1.7832,-1.7794,-1.7794,-1.7794,-1.7794,-1.7785,-1.7757,-1.7728,-1.7653,-1.7615,-1.7731,-1.7731,-1.7875,-1.8009,-1.8143,-1.8266,-1.8389,-1.8683,-1.916,-1.9088,-1.9088,-1.9249,-1.9401,-1.939,-1.9552,-1.9887,-1.9941,-1.9864,-2.0003,-2.0173,-0.5384,-0.5384,-0.5384,-0.5384,-0.5384,-0.5384,-0.5384,-0.5384,-0.5384,-0.5384,-0.5384,-0.5384,-0.5384,-0.539,-0.539,-0.5422,-0.5469,-0.5499,-0.5548,-0.5624,-0.56,-0.5602,-0.5627,-0.5581,-0.5583,-0.5591,-0.5621,-0.56,-0.5583,-0.5616,-0.5638,-0.5646,-0.5681,-0.5719,-0.5714,-0.5714,-0.5733,-0.5739,-0.5741,-0.5741,-0.5739,-0.573,-0.5717,-0.5711,-0.5709,-0.5709,-0.5717,-0.57,-0.5722,-0.5725,-0.5728,-0.5719,-0.573,-0.573,-0.6085,-0.6592,-0.6898,-0.7352,-0.8145,-0.8236,-0.8207,-0.8223,-0.8158,-0.8125,-0.8117,-0.8105,-0.8076,-0.806,-0.8566,-1.0216,-1.2669,-1.3659,-1.5483,-1.7284,-1.8598,-1.8607,-1.8673,-1.8673,-1.8673,-1.8673,-1.8579,-1.8484,-1.838,-1.8314,-1.8229,-1.8106,-1.8012,-1.8012,-1.8012,-1.8002,-1.7946,-1.7908,-1.7889,-1.7823,-1.7747,-1.7855,-1.801,-1.8145,-1.8414,-1.8548,-1.8722,-1.8865,-1.9111,-1.9406,-1.9506,-1.9648,-1.9701,-1.9832,-1.9898,-1.993,-2.0048,-2.0124,-2.0177,-2.0361,-2.0565,-0.5384,-0.5384,-0.5384,-0.5384,-0.5384,-0.5384,-0.5384,-0.5384,-0.5384,-0.5384,-0.5384,-0.5384,-0.5403,-0.5425,-0.5436,-0.5491,-0.5556,-0.557,-0.5619,-0.5681,-0.5673,-0.5673,-0.5692,-0.5676,-0.5662,-0.5662,-0.5684,-0.5692,-0.5676,-0.5679,-0.57,-0.5703,-0.5725,-0.5736,-0.5741,-0.5741,-0.5741,-0.5741,-0.5741,-0.5741,-0.5741,-0.5741,-0.5741,-0.5741,-0.5741,-0.5741,-0.5741,-0.5741,-0.5741,-0.5741,-0.5741,-0.5741,-0.573,-0.5714,-0.5875,-0.6445,-0.6702,-0.7349,-0.7872,-0.8149,-0.8313,-0.8293,-0.8219,-0.8142,-0.8134,-0.8134,-0.8105,-0.8064,-0.9118,-1.0786,-1.2886,-1.4189,-1.618,-1.7837,-1.8673,-1.8673,-1.8673,-1.8673,-1.8673,-1.8673,-1.8664,-1.8579,-1.8494,-1.8418,-1.8361,-1.8295,-1.822,-1.822,-1.822,-1.822,-1.8135,-1.8021,-1.8012,-1.7993,-1.8065,-1.7998,-1.8319,-1.8456,-1.8677,-1.8997,-1.9399,-1.9543,-1.9811,-1.9976,-2.0152,-2.0285,-2.0221,-2.0156,-2.0091,-2.0156,-2.0242,-2.0328,-2.0425,-2.0597,-2.0813,-0.5384,-0.5384,-0.5384,-0.5384,-0.5384,-0.5384,-0.5384,-0.5384,-0.5384,-0.5384,-0.539,-0.5401,-0.5428,-0.5455,-0.5482,-0.5537,-0.5619,-0.5643,-0.5687,-0.5722,-0.5741,-0.5736,-0.573,-0.5733,-0.5733,-0.5741,-0.5728,-0.5728,-0.5733,-0.5736,-0.5733,-0.5741,-0.5736,-0.5741,-0.5741,-0.5741,-0.5741,-0.5741,-0.5741,-0.5741,-0.5741,-0.5741,-0.5741,-0.5741,-0.5741,-0.5741,-0.5741,-0.5741,-0.5741,-0.5741,-0.5741,-0.5741,-0.5733,-0.5714,-0.587,-0.6412,-0.6686,-0.7188,-0.7716,-0.8035,-0.837,-0.8354,-0.8289,-0.8203,-0.813,-0.8162,-0.8158,-0.8068,-0.8982,-1.0981,-1.3078,-1.4518,-1.618,-1.751,-1.8673,-1.8673,-1.8683,-1.8692,-1.8692,-1.8673,-1.8673,-1.8673,-1.8588,-1.8513,-1.8465,-1.8447,-1.8437,-1.8428,-1.8418,-1.8409,-1.8371,-1.8267,-1.8276,-1.8276,-1.837,-1.8433,-1.8562,-1.8946,-1.9179,-1.945,-1.9855,-2.0085,-2.0252,-2.0441,-2.0608,-2.0511,-2.0393,-2.0339,-2.0307,-2.0382,-2.0457,-2.0576,-2.0705,-2.0877,-2.106,-0.5384,-0.5384,-0.5384,-0.5384,-0.5384,-0.5384,-0.5384,-0.5384,-0.5384,-0.5387,-0.5401,-0.5439,-0.5439,-0.5442,-0.5515,-0.5564,-0.5578,-0.5627,-0.5687,-0.5725,-0.5741,-0.5741,-0.5741,-0.5741,-0.5741,-0.5741,-0.5741,-0.5741,-0.5741,-0.5741,-0.5741,-0.5741,-0.5741,-0.5741,-0.5752,-0.5766,-0.5752,-0.5749,-0.5749,-0.5747,-0.5744,-0.5741,-0.5741,-0.5741,-0.5741,-0.5741,-0.5741,-0.5741,-0.5741,-0.5741,-0.5741,-0.5741,-0.5736,-0.5717,-0.5875,-0.639,-0.6699,-0.7213,-0.775,-0.8074,-0.8436,-0.8477,-0.8424,-0.8272,-0.8203,-0.8191,-0.8158,-0.8282,-0.9385,-1.0709,-1.2464,-1.4038,-1.6435,-1.7634,-1.8843,-1.8834,-1.8815,-1.8739,-1.873,-1.8692,-1.8673,-1.8673,-1.8673,-1.8588,-1.8569,-1.855,-1.856,-1.855,-1.8579,-1.8569,-1.8598,-1.8569,-1.8588,-1.8588,-1.8741,-1.8798,-1.9075,-1.9502,-1.9779,-2.019,-2.0494,-2.0716,-2.0686,-2.078,-2.0759,-2.0651,-2.0619,-2.0694,-2.0716,-2.064,-2.0684,-2.0856,-2.0985,-2.1136,-2.133,-0.5384,-0.5384,-0.5384,-0.5384,-0.5384,-0.5384,-0.5384,-0.5384,-0.5384,-0.5409,-0.5439,-0.5466,-0.5504,-0.5548,-0.5583,-0.5638,-0.567,-0.5692,-0.5719,-0.5733,-0.5741,-0.5741,-0.5741,-0.5741,-0.5741,-0.5741,-0.5741,-0.5741,-0.5741,-0.5741,-0.5741,-0.5741,-0.5747,-0.5769,-0.5788,-0.5818,-0.5804,-0.5763,-0.5771,-0.5782,-0.5744,-0.5741,-0.5741,-0.5741,-0.5741,-0.5741,-0.5741,-0.5741,-0.5741,-0.5741,-0.5741,-0.5741,-0.5733,-0.5711,-0.6053,-0.6393,-0.6699,-0.7223,-0.7802,-0.8113,-0.846,-0.8464,-0.8407,-0.8313,-0.8264,-0.8277,-0.8268,-0.8779,-1.0174,-1.2045,-1.316,-1.5669,-1.8067,-1.8727,-1.9042,-1.9023,-1.8976,-1.891,-1.8872,-1.8872,-1.8758,-1.8673,-1.8673,-1.8664,-1.8664,-1.8664,-1.8673,-1.8673,-1.8673,-1.8673,-1.8673,-1.8673,-1.8673,-1.8673,-1.8827,-1.9189,-1.9705,-2.0036,-2.0377,-2.0665,-2.0942,-2.1028,-2.1103,-2.1017,-2.1007,-2.1028,-2.1071,-2.1147,-2.1103,-2.0953,-2.1007,-2.1168,-2.1297,-2.1416,-2.1588,-0.5384,-0.5384,-0.5384,-0.5384,-0.5384,-0.5384,-0.5384,-0.5384,-0.5384,-0.542,-0.5477,-0.551,-0.5556,-0.5619,-0.5668,-0.5676,-0.5703,-0.5722,-0.5736,-0.5741,-0.5741,-0.5741,-0.5741,-0.5741,-0.5741,-0.5741,-0.5741,-0.5741,-0.5741,-0.5741,-0.5755,-0.5766,-0.5769,-0.5798,-0.5828,-0.5883,-0.5869,-0.5807,-0.5818,-0.5812,-0.5758,-0.576,-0.5752,-0.5747,-0.5741,-0.5741,-0.5741,-0.5741,-0.5741,-0.5741,-0.5741,-0.5741,-0.5725,-0.5709,-0.605,-0.6384,-0.6888,-0.7216,-0.7975,-0.8369,-0.8497,-0.8477,-0.8395,-0.833,-0.8305,-0.8317,-0.8305,-0.8452,-1.1128,-1.3281,-1.3666,-1.5994,-1.8033,-1.8848,-1.9193,-1.9184,-1.9174,-1.9127,-1.9099,-1.907,-1.8966,-1.89,-1.89,-1.891,-1.8768,-1.8739,-1.8683,-1.8673,-1.8673,-1.8673,-1.8673,-1.8673,-1.8673,-1.8673,-1.8664,-1.9095,-1.9533,-2.0038,-2.0393,-2.0962,-2.1135,-2.1351,-2.1448,-2.1491,-2.1491,-2.1491,-2.1502,-2.1545,-2.1394,-2.12,-2.134,-2.1502,-2.1599,-2.1706,-2.1846,-0.5384,-0.5384,-0.5384,-0.5384,-0.5384,-0.5384,-0.5384,-0.5387,-0.5392,-0.5422,-0.5485,-0.5575,-0.5602,-0.5608,-0.5676,-0.5698,-0.5692,-0.5722,-0.5741,-0.5741,-0.5741,-0.5741,-0.5741,-0.5741,-0.5741,-0.5741,-0.5741,-0.5741,-0.5741,-0.5755,-0.5779,-0.5818,-0.5831,-0.5842,-0.5842,-0.5894,-0.5888,-0.5848,-0.5891,-0.5834,-0.5798,-0.5804,-0.5788,-0.5766,-0.5758,-0.576,-0.5741,-0.5741,-0.5741,-0.5741,-0.5741,-0.5741,-0.5736,-0.5733,-0.6068,-0.6908,-0.6898,-0.742,-0.8309,-0.8558,-0.855,-0.8489,-0.8407,-0.833,-0.8268,-0.8281,-0.8326,-0.8486,-1.0473,-1.2409,-1.3885,-1.5717,-1.7639,-1.8873,-1.9231,-1.941,-1.941,-1.9259,-1.9212,-1.9136,-1.9203,-1.925,-1.924,-1.9174,-1.8957,-1.8834,-1.8721,-1.8702,-1.8739,-1.8739,-1.8768,-1.8815,-1.8825,-1.8825,-1.8999,-1.9077,-1.9529,-2.0038,-2.0548,-2.0926,-2.1317,-2.1513,-2.1653,-2.1846,-2.1793,-2.162,-2.176,-2.1922,-2.1706,-2.1534,-2.1674,-2.1814,-2.1911,-2.1997,-2.2105,-0.5384,-0.5384,-0.5384,-0.5384,-0.5384,-0.5384,-0.5384,-0.5392,-0.5425,-0.5455,-0.5488,-0.5561,-0.5608,-0.563,-0.5657,-0.5695,-0.5717,-0.5719,-0.5741,-0.5741,-0.5741,-0.5741,-0.5741,-0.5744,-0.5744,-0.5741,-0.5741,-0.5749,-0.5741,-0.5777,-0.5804,-0.5839,-0.5907,-0.5927,-0.5921,-0.5943,-0.5954,-0.5897,-0.588,-0.5856,-0.5858,-0.5842,-0.5826,-0.5801,-0.5798,-0.5779,-0.5744,-0.5741,-0.5741,-0.5741,-0.5741,-0.5741,-0.5741,-0.5741,-0.6088,-0.6958,-0.7132,-0.7492,-0.8207,-0.8595,-0.8595,-0.8526,-0.8432,-0.8383,-0.8444,-0.8362,-0.8362,-0.8904,-1.0564,-1.233,-1.4,-1.6167,-1.7966,-1.9213,-1.9751,-1.9751,-1.9694,-1.942,-1.9259,-1.9146,-1.9146,-1.9042,-1.8995,-1.9136,-1.9014,-1.8995,-1.891,-1.8966,-1.9023,-1.8957,-1.8938,-1.9014,-1.9051,-1.9042,-1.917,-1.9221,-1.9502,-2.0005,-2.0488,-2.0979,-2.1217,-2.162,-2.1599,-2.1653,-2.1696,-2.1739,-2.1825,-2.1889,-2.1922,-2.19,-2.1911,-2.2008,-2.2126,-2.2212,-2.232,-0.5384,-0.5384,-0.5384,-0.5384,-0.5384,-0.5384,-0.5384,-0.5395,-0.5447,-0.5477,-0.5493,-0.5556,-0.561,-0.5646,-0.5676,-0.5695,-0.5739,-0.5741,-0.5741,-0.5741,-0.5741,-0.5741,-0.5744,-0.576,-0.5779,-0.5777,-0.5793,-0.5809,-0.5815,-0.5845,-0.5878,-0.5924,-0.5989,-0.6008,-0.6008,-0.6019,-0.6,-0.5951,-0.5924,-0.5921,-0.5902,-0.5883,-0.5878,-0.5845,-0.582,-0.5801,-0.5758,-0.5741,-0.5741,-0.5741,-0.5741,-0.5741,-0.5741,-0.5741,-0.6099,-0.6637,-0.7352,-0.771,-0.8425,-0.8603,-0.8603,-0.8591,-0.8456,-0.8432,-0.8501,-0.8419,-0.8424,-0.9167,-1.0848,-1.2079,-1.3618,-1.6011,-1.7964,-1.9204,-1.9653,-1.9643,-1.9722,-1.9439,-1.9278,-1.9165,-1.9089,-1.8928,-1.8825,-1.8938,-1.9023,-1.907,-1.9117,-1.9184,-1.9221,-1.9136,-1.9061,-1.9136,-1.9155,-1.9099,-1.9051,-1.9151,-1.9454,-1.997,-2.0436,-2.0878,-2.127,-2.1498,-2.1402,-2.1513,-2.1696,-2.1814,-2.1793,-2.1814,-2.1836,-2.1868,-2.19,-2.2051,-2.2288,-2.2385,-2.2449,-0.5384,-0.5384,-0.5384,-0.5384,-0.5384,-0.5384,-0.5384,-0.539,-0.545,-0.5477,-0.5482,-0.5589,-0.5635,-0.5657,-0.5706,-0.573,-0.5739,-0.5741,-0.5741,-0.5741,-0.5741,-0.5741,-0.5758,-0.5785,-0.579,-0.5831,-0.5856,-0.5858,-0.5907,-0.5921,-0.5951,-0.6006,-0.6055,-0.6068,-0.6076,-0.6068,-0.6027,-0.5984,-0.5973,-0.5946,-0.5902,-0.5946,-0.5921,-0.5886,-0.5856,-0.5826,-0.5785,-0.5758,-0.5749,-0.5744,-0.5741,-0.5741,-0.5741,-0.5741,-0.6097,-0.6633,-0.7352,-0.8067,-0.8429,-0.8607,-0.8607,-0.8599,-0.853,-0.8444,-0.8415,-0.8448,-0.8452,-0.9013,-1.0313,-1.14,-1.2832,-1.5139,-1.7622,-1.8427,-1.9195,-1.9493,-1.9599,-1.9448,-1.9316,-1.9221,-1.9165,-1.907,-1.9014,-1.9061,-1.8976,-1.9004,-1.9042,-1.908,-1.9127,-1.9174,-1.9127,-1.9193,-1.9193,-1.9117,-1.908,-1.9227,-1.9336,-1.9824,-2.0136,-2.0611,-2.1003,-2.1323,-2.1392,-2.1566,-2.1814,-2.1889,-2.1782,-2.1739,-2.1739,-2.1771,-2.1814,-2.2029,-2.2256,-2.2395,-2.2482,-0.5384,-0.5384,-0.5384,-0.5384,-0.5384,-0.5384,-0.5384,-0.5392,-0.5447,-0.5477,-0.548,-0.5553,-0.5616,-0.5651,-0.567,-0.5706,-0.5728,-0.5741,-0.5741,-0.5741,-0.5741,-0.5741,-0.5749,-0.5766,-0.5769,-0.5793,-0.5828,-0.5883,-0.5886,-0.5929,-0.6014,-0.6071,-0.6087,-0.6096,-0.6098,-0.6096,-0.6044,-0.6006,-0.6,-0.5959,-0.5932,-0.5976,-0.5948,-0.5924,-0.5924,-0.5883,-0.5823,-0.5807,-0.5788,-0.5747,-0.5744,-0.5741,-0.5741,-0.5741,-0.6099,-0.6994,-0.7531,-0.8067,-0.8429,-0.8607,-0.8607,-0.8607,-0.8575,-0.857,-0.853,-0.8497,-0.8485,-0.9043,-0.9791,-1.0707,-1.2467,-1.4759,-1.708,-1.8453,-1.9204,-1.9447,-1.9552,-1.9439,-1.9297,-1.9136,-1.9089,-1.9061,-1.9023,-1.8947,-1.8872,-1.891,-1.8938,-1.8985,-1.908,-1.9146,-1.9184,-1.925,-1.9221,-1.9146,-1.9184,-1.9184,-1.9413,-1.9678,-1.997,-2.024,-2.0683,-2.1,-2.1327,-2.1577,-2.1717,-2.1739,-2.1696,-2.1696,-2.1749,-2.1685,-2.1728,-2.1976,-2.2202,-2.2352,-2.2514,-0.5384,-0.5384,-0.5384,-0.5384,-0.5384,-0.5384,-0.5384,-0.5395,-0.545,-0.5477,-0.5485,-0.5564,-0.5616,-0.5651,-0.5679,-0.5709,-0.5739,-0.5741,-0.5741,-0.5741,-0.5741,-0.5741,-0.5744,-0.5763,-0.5785,-0.5804,-0.5853,-0.5927,-0.5927,-0.5987,-0.6071,-0.609,-0.6098,-0.6098,-0.6098,-0.6093,-0.6066,-0.6027,-0.6003,-0.5978,-0.5981,-0.5992,-0.5978,-0.597,-0.5987,-0.5921,-0.5858,-0.5853,-0.5826,-0.5766,-0.5755,-0.5777,-0.5777,-0.5957,-0.6293,-0.719,-0.771,-0.8067,-0.8429,-0.8607,-0.8607,-0.8607,-0.8607,-0.8603,-0.8591,-0.8558,-0.8546,-0.8728,-0.9286,-1.0189,-1.2284,-1.4555,-1.653,-1.8681,-1.9059,-1.9609,-1.9505,-1.9401,-1.9231,-1.9042,-1.8966,-1.8928,-1.8881,-1.8815,-1.8796,-1.8872,-1.8891,-1.8891,-1.9061,-1.9259,-1.9269,-1.9288,-1.924,-1.9184,-1.9221,-1.9221,-1.9275,-1.9317,-1.9541,-1.9811,-2.0232,-2.0558,-2.0937,-2.1164,-2.1402,-2.1631,-2.1749,-2.1782,-2.1814,-2.1771,-2.1825,-2.2083,-2.2266,-2.2342,-2.2492,-0.5384,-0.5384,-0.5384,-0.5384,-0.5384,-0.5384,-0.5384,-0.5392,-0.545,-0.548,-0.5504,-0.5594,-0.564,-0.5673,-0.5709,-0.5728,-0.5741,-0.5741,-0.5741,-0.5741,-0.5741,-0.5741,-0.5758,-0.5796,-0.5809,-0.5867,-0.5929,-0.5984,-0.6022,-0.606,-0.6085,-0.6098,-0.6098,-0.6098,-0.6098,-0.6098,-0.6076,-0.6049,-0.6049,-0.6044,-0.6008,-0.6008,-0.6016,-0.6003,-0.5973,-0.5924,-0.5886,-0.5875,-0.5878,-0.5818,-0.5798,-0.5837,-0.6007,-0.6169,-0.6497,-0.7018,-0.7531,-0.8067,-0.8429,-0.8607,-0.8607,-0.8607,-0.8607,-0.8607,-0.8599,-0.8595,-0.8579,-0.8575,-0.913,-1.0733,-1.2832,-1.4414,-1.6194,-1.8279,-1.9223,-1.9637,-1.9552,-1.9439,-1.9297,-1.9155,-1.9136,-1.9099,-1.9042,-1.9004,-1.9014,-1.8976,-1.8957,-1.8938,-1.9061,-1.9335,-1.9363,-1.9344,-1.9278,-1.9212,-1.9146,-1.9127,-1.908,-1.9142,-1.9386,-1.9512,-1.9861,-2.0139,-2.0416,-2.0847,-2.1466,-2.1771,-2.1879,-2.19,-2.1943,-2.2019,-2.2105,-2.2266,-2.2374,-2.2428,-2.2503,-0.5384,-0.5384,-0.5384,-0.5384,-0.5384,-0.5384,-0.5384,-0.539,-0.545,-0.5496,-0.554,-0.5572,-0.5635,-0.5706,-0.5722,-0.5733,-0.5741,-0.5741,-0.5741,-0.5741,-0.5741,-0.5741,-0.5749,-0.5793,-0.5826,-0.5872,-0.5943,-0.6033,-0.6066,-0.6087,-0.6098,-0.6098,-0.6098,-0.6098,-0.6098,-0.6098,-0.6085,-0.6068,-0.6076,-0.6052,-0.5989,-0.6033,-0.6063,-0.6044,-0.6011,-0.6006,-0.5981,-0.597,-0.5946,-0.5899,-0.5894,-0.5878,-0.5834,-0.5971,-0.6299,-0.6998,-0.7356,-0.7889,-0.8429,-0.8607,-0.8607,-0.8607,-0.8607,-0.8607,-0.8607,-0.8607,-0.8607,-0.8786,-0.9496,-1.1266,-1.3034,-1.4441,-1.6026,-1.7887,-1.9405,-1.9512,-1.9609,-1.9505,-1.9382,-1.9344,-1.9344,-1.9306,-1.925,-1.9221,-1.9221,-1.9212,-1.9212,-1.9212,-1.925,-1.942,-1.9448,-1.942,-1.9335,-1.9259,-1.9165,-1.9136,-1.9136,-1.9304,-1.9423,-1.9541,-1.9659,-2.0126,-2.0601,-2.0982,-2.1418,-2.1766,-2.2029,-2.1986,-2.2051,-2.2202,-2.2288,-2.2417,-2.2514,-2.2579,-2.2611,-0.4204,-0.4372,-0.5046,-0.5384,-0.5384,-0.5384,-0.5384,-0.539,-0.542,-0.5469,-0.5523,-0.5553,-0.5613,-0.5695,-0.57,-0.5725,-0.5736,-0.5741,-0.5741,-0.5741,-0.5741,-0.5741,-0.576,-0.5785,-0.5807,-0.5853,-0.5957,-0.6038,-0.6087,-0.6098,-0.6098,-0.6098,-0.6098,-0.6098,-0.6098,-0.6098,-0.6098,-0.6096,-0.6098,-0.6057,-0.5989,-0.6036,-0.6071,-0.6055,-0.6052,-0.6046,-0.6033,-0.6011,-0.5976,-0.5954,-0.5946,-0.5927,-0.5888,-0.6036,-0.654,-0.7048,-0.756,-0.7889,-0.8433,-0.8611,-0.8611,-0.8607,-0.8607,-0.8607,-0.8607,-0.8607,-0.8607,-0.8786,-1.0026,-1.1616,-1.3558,-1.5323,-1.7088,-1.8985,-1.9488,-1.9798,-1.9779,-1.9722,-1.9599,-1.9495,-1.9524,-1.9571,-1.9505,-1.9429,-1.942,-1.9392,-1.9392,-1.9401,-1.9458,-1.9524,-1.9543,-1.9543,-1.9477,-1.9344,-1.924,-1.924,-1.9278,-1.9447,-1.9447,-1.939,-1.95,-2.0316,-2.0806,-2.1066,-2.1516,-2.2001,-2.2234,-2.2212,-2.2288,-2.246,-2.2503,-2.2535,-2.2622,-2.2686,-2.2697,-0.2858,-0.3362,-0.471,-0.5384,-0.5384,-0.5384,-0.5384,-0.5384,-0.5387,-0.5414,-0.5463,-0.551,-0.5575,-0.5632,-0.5654,-0.5695,-0.5725,-0.5739,-0.5741,-0.5741,-0.5741,-0.5741,-0.5749,-0.5771,-0.5834,-0.5905,-0.5992,-0.6049,-0.6096,-0.6098,-0.6098,-0.6098,-0.6098,-0.6098,-0.6098,-0.6098,-0.6098,-0.6098,-0.6098,-0.6098,-0.6074,-0.6052,-0.6066,-0.6066,-0.6055,-0.6027,-0.6025,-0.6016,-0.5992,-0.5984,-0.5987,-0.5967,-0.6128,-0.6276,-0.6794,-0.7299,-0.7595,-0.8109,-0.8453,-0.8619,-0.8615,-0.8607,-0.8611,-0.8607,-0.8607,-0.8607,-0.8607,-0.9317,-1.056,-1.2148,-1.4088,-1.6034,-1.7972,-1.9388,-1.9728,-1.9902,-1.9892,-1.9892,-1.9779,-1.9647,-1.9703,-1.977,-1.9732,-1.9647,-1.9609,-1.9581,-1.9571,-1.9562,-1.959,-1.9656,-1.9703,-1.9713,-1.9694,-1.9543,-1.9373,-1.942,-1.9486,-1.9467,-1.9637,-1.9401,-1.9513,-2.0348,-2.0894,-2.1186,-2.147,-2.2246,-2.2503,-2.2525,-2.2622,-2.2643,-2.2632,-2.2611,-2.2632,-2.2697,-2.2729,-0.353,-0.4878,-0.5216,-0.5384,-0.5384,-0.5384,-0.5384,-0.5384,-0.5384,-0.5392,-0.5409,-0.5422,-0.5496,-0.5651,-0.5651,-0.5684,-0.5733,-0.5741,-0.5741,-0.5741,-0.5741,-0.5741,-0.5766,-0.582,-0.594,-0.6003,-0.6044,-0.6079,-0.6098,-0.6098,-0.6098,-0.6098,-0.6098,-0.6098,-0.6098,-0.6098,-0.6098,-0.6098,-0.6098,-0.6098,-0.6098,-0.6085,-0.6087,-0.609,-0.6087,-0.6082,-0.6082,-0.6082,-0.6076,-0.606,-0.6033,-0.6014,-0.6176,-0.6514,-0.6844,-0.7364,-0.766,-0.8171,-0.8513,-0.864,-0.8624,-0.8624,-0.8624,-0.8607,-0.8607,-0.8607,-0.8786,-0.9139,-1.0555,-1.2503,-1.4441,-1.6561,-1.8506,-1.9388,-1.9911,-1.9911,-1.9911,-1.9911,-1.9864,-1.9826,-1.9836,-1.9873,-1.9855,-1.9817,-1.9807,-1.9788,-1.9788,-1.9779,-1.977,-1.9817,-1.9855,-1.9855,-1.9855,-1.9751,-1.959,-1.9684,-1.9741,-1.9703,-1.9666,-1.9618,-1.9913,-2.0387,-2.0788,-2.1029,-2.1646,-2.2417,-2.2675,-2.2686,-2.2675,-2.2665,-2.2675,-2.2675,-2.2686,-2.274,-2.2805]}]]